[[{"header":{"parameterUnit":"m.s-1","parameterCategory":1,"la1":30.6,"la2":29.2853,"lo1":-89.7004,"lo2":-87.6739,"dy":0.0162,"dx":0.0183,"nx":112,"ny":82,"refTime":"2023-09-02T12:00:00:Z","depth":0,"parameterNumber":2,"parameterNumberName":"U-component_of_WINDS"},"data":[0.0,0.0,0.0,0.0,0.0,0.0,0.0,0.0,0.0,0.0,0.0,0.0,0.0,0.0,0.0,0.0,0.0,0.0,0.0,0.0,0.0,0.0,0.0,0.0,0.0,0.0,0.0,0.0,0.0,0.0,0.0,0.0,0.0,0.0,0.0,0.0,0.0,0.0,0.0,0.0,0.0,0.0,0.0,0.0,0.0,0.0,0.0,0.0,0.0,0.0,0.0,0.0,0.0,0.0,0.0,0.0,0.0,0.0,0.0,0.0,0.0,0.0,0.0,0.0,0.0,0.0,0.0,0.0,0.0,0.0,0.0,0.0,0.0,0.0,0.0,0.0,0.0,0.0,0.0,0.0,0.0,0.0,0.0,0.0,0.0,0.0,0.0,0.0,0.0,0.0,2.9821,3.0047,3.026,3.0404,3.0404,3.0404,3.0462,3.0583,0.0,0.0,0.0,0.0,0.0,0.0,0.0,0.0,0.0,0.0,0.0,0.0,0.0,0.0,0.0,0.0,0.0,0.0,0.0,0.0,0.0,0.0,0.0,0.0,0.0,0.0,0.0,0.0,0.0,0.0,0.0,0.0,0.0,0.0,0.0,0.0,0.0,0.0,0.0,0.0,0.0,0.0,0.0,0.0,0.0,0.0,0.0,0.0,0.0,0.0,0.0,0.0,0.0,0.0,0.0,0.0,0.0,0.0,0.0,0.0,0.0,0.0,0.0,0.0,0.0,0.0,0.0,0.0,0.0,0.0,0.0,0.0,0.0,0.0,0.0,0.0,0.0,0.0,0.0,0.0,0.0,0.0,0.0,0.0,0.0,0.0,0.0,0.0,0.0,0.0,0.0,0.0,0.0,0.0,0.0,0.0,0.0,0.0,0.0,0.0,0.0,0.0,0.0,0.0,3.0054,3.0311,3.0389,3.0404,3.0404,3.0404,3.0462,3.0583,0.0,0.0,0.0,0.0,0.0,0.0,0.0,0.0,0.0,0.0,0.0,0.0,0.0,0.0,0.0,0.0,0.0,0.0,0.0,0.0,0.0,0.0,0.0,0.0,0.0,0.0,0.0,0.0,0.0,0.0,0.0,0.0,0.0,0.0,0.0,0.0,0.0,0.0,0.0,0.0,0.0,0.0,0.0,0.0,0.0,0.0,0.0,0.0,0.0,0.0,0.0,0.0,0.0,0.0,0.0,0.0,0.0,0.0,0.0,0.0,0.0,0.0,0.0,0.0,0.0,0.0,0.0,0.0,0.0,0.0,0.0,0.0,0.0,0.0,0.0,0.0,0.0,0.0,0.0,0.0,0.0,0.0,0.0,0.0,0.0,0.0,0.0,0.0,0.0,0.0,0.0,0.0,0.0,0.0,0.0,0.0,0.0,0.0,0.0,0.0,0.0,0.0,0.0,2.9718,2.9939,3.015,3.0311,3.0404,3.0404,3.0404,3.0462,3.0583,3.0568,0.0,0.0,0.0,0.0,0.0,0.0,0.0,0.0,0.0,0.0,0.0,0.0,0.0,0.0,0.0,0.0,0.0,0.0,0.0,0.0,0.0,0.0,0.0,0.0,0.0,0.0,0.0,0.0,0.0,0.0,0.0,0.0,0.0,0.0,0.0,0.0,0.0,0.0,0.0,0.0,0.0,0.0,0.0,0.0,0.0,0.0,0.0,0.0,0.0,0.0,0.0,0.0,0.0,0.0,0.0,0.0,0.0,0.0,0.0,0.0,0.0,0.0,0.0,0.0,0.0,0.0,0.0,0.0,0.0,0.0,0.0,0.0,0.0,0.0,0.0,0.0,0.0,0.0,0.0,0.0,0.0,0.0,0.0,0.0,0.0,0.0,0.0,0.0,0.0,0.0,0.0,0.0,0.0,0.0,0.0,0.0,0.0,0.0,0.0,0.0,0.0,0.0,2.9575,2.9771,2.998,3.0248,3.0404,3.0404,3.0404,3.0442,3.0561,3.0597,0.0,0.0,0.0,0.0,0.0,0.0,0.0,0.0,0.0,0.0,0.0,0.0,0.0,0.0,0.0,0.0,0.0,0.0,0.0,0.0,0.0,0.0,0.0,0.0,0.0,0.0,0.0,0.0,0.0,0.0,0.0,0.0,0.0,0.0,0.0,0.0,0.0,0.0,0.0,0.0,0.0,0.0,0.0,0.0,0.0,0.0,0.0,0.0,0.0,0.0,0.0,0.0,0.0,0.0,0.0,0.0,0.0,0.0,0.0,0.0,0.0,0.0,0.0,0.0,0.0,0.0,0.0,0.0,0.0,0.0,0.0,0.0,0.0,0.0,0.0,0.0,0.0,0.0,0.0,0.0,0.0,0.0,0.0,0.0,0.0,0.0,0.0,0.0,0.0,0.0,0.0,0.0,0.0,0.0,0.0,0.0,0.0,0.0,0.0,0.0,0.0,0.0,2.9575,2.9771,2.998,3.0248,3.0404,3.0404,3.0404,3.0423,3.0503,3.0577,0.0,0.0,0.0,0.0,0.0,0.0,0.0,0.0,0.0,0.0,0.0,0.0,0.0,0.0,0.0,0.0,0.0,0.0,0.0,0.0,0.0,0.0,0.0,0.0,0.0,0.0,0.0,0.0,0.0,0.0,0.0,0.0,0.0,0.0,0.0,0.0,0.0,0.0,0.0,0.0,0.0,0.0,0.0,0.0,0.0,0.0,0.0,0.0,0.0,0.0,0.0,0.0,0.0,0.0,0.0,0.0,0.0,0.0,0.0,0.0,0.0,0.0,0.0,0.0,0.0,0.0,0.0,0.0,0.0,0.0,0.0,0.0,0.0,0.0,0.0,0.0,0.0,0.0,0.0,0.0,0.0,0.0,0.0,0.0,0.0,0.0,0.0,0.0,0.0,0.0,0.0,0.0,0.0,0.0,0.0,0.0,0.0,0.0,0.0,0.0,0.0,0.0,2.9474,2.9648,2.9969,3.0086,3.0212,3.0395,3.0404,3.0423,3.0503,0.0,0.0,0.0,0.0,0.0,0.0,0.0,0.0,0.0,0.0,0.0,0.0,0.0,0.0,0.0,0.0,0.0,0.0,0.0,0.0,0.0,0.0,0.0,0.0,0.0,0.0,0.0,0.0,0.0,0.0,0.0,0.0,0.0,0.0,0.0,0.0,0.0,0.0,0.0,0.0,0.0,0.0,0.0,0.0,0.0,0.0,0.0,0.0,0.0,0.0,0.0,0.0,0.0,0.0,0.0,0.0,0.0,0.0,0.0,0.0,0.0,0.0,0.0,0.0,0.0,0.0,0.0,0.0,0.0,0.0,0.0,0.0,0.0,0.0,0.0,0.0,0.0,0.0,0.0,0.0,0.0,0.0,0.0,0.0,0.0,0.0,0.0,0.0,0.0,0.0,0.0,0.0,0.0,0.0,0.0,0.0,0.0,0.0,0.0,0.0,0.0,0.0,2.9246,2.9351,2.9504,2.9775,2.9869,3.0011,3.0254,3.0267,3.0349,3.05,0.0,0.0,0.0,0.0,0.0,0.0,0.0,0.0,0.0,0.0,0.0,0.0,0.0,0.0,0.0,0.0,0.0,0.0,0.0,0.0,0.0,0.0,0.0,0.0,0.0,0.0,0.0,0.0,0.0,0.0,0.0,0.0,0.0,0.0,0.0,0.0,0.0,0.0,0.0,0.0,0.0,0.0,0.0,0.0,0.0,0.0,0.0,0.0,0.0,0.0,0.0,0.0,0.0,0.0,0.0,0.0,0.0,0.0,0.0,0.0,0.0,0.0,0.0,0.0,0.0,0.0,0.0,0.0,0.0,0.0,0.0,0.0,0.0,0.0,0.0,0.0,0.0,0.0,0.0,0.0,0.0,0.0,0.0,0.0,0.0,0.0,0.0,0.0,0.0,0.0,0.0,0.0,0.0,0.0,0.0,0.0,0.0,0.0,0.0,0.0,0.0,0.0,2.8999,2.9225,2.9402,2.9402,2.9575,2.9771,2.9984,2.9999,3.0142,0.0,0.0,0.0,0.0,0.0,0.0,0.0,0.0,0.0,0.0,0.0,0.0,0.0,0.0,0.0,0.0,0.0,0.0,0.0,0.0,0.0,0.0,0.0,0.0,0.0,0.0,0.0,0.0,0.0,0.0,0.0,0.0,0.0,0.0,0.0,0.0,0.0,0.0,0.0,0.0,0.0,0.0,0.0,0.0,0.0,0.0,0.0,0.0,0.0,0.0,0.0,0.0,0.0,0.0,0.0,0.0,0.0,0.0,0.0,0.0,0.0,0.0,0.0,0.0,0.0,0.0,0.0,0.0,0.0,0.0,0.0,0.0,0.0,0.0,0.0,0.0,0.0,0.0,0.0,0.0,0.0,0.0,0.0,0.0,0.0,0.0,0.0,0.0,0.0,0.0,0.0,0.0,0.0,0.0,0.0,0.0,0.0,0.0,0.0,0.0,0.0,0.0,0.0,2.8999,2.9061,2.9181,2.9382,2.9454,2.9566,2.9763,2.9784,2.9896,3.0135,0.0,0.0,0.0,0.0,0.0,0.0,0.0,0.0,0.0,0.0,0.0,0.0,0.0,0.0,0.0,0.0,0.0,0.0,0.0,0.0,0.0,0.0,0.0,0.0,0.0,0.0,0.0,0.0,0.0,0.0,0.0,0.0,0.0,0.0,0.0,0.0,0.0,0.0,0.0,0.0,0.0,0.0,0.0,0.0,0.0,0.0,0.0,0.0,0.0,0.0,0.0,0.0,0.0,0.0,0.0,0.0,0.0,0.0,0.0,0.0,0.0,0.0,0.0,0.0,0.0,0.0,0.0,0.0,0.0,0.0,0.0,0.0,0.0,0.0,0.0,0.0,0.0,0.0,0.0,0.0,0.0,0.0,0.0,0.0,0.0,0.0,0.0,0.0,0.0,0.0,0.0,0.0,0.0,0.0,0.0,0.0,0.0,0.0,0.0,0.0,0.0,0.0,2.8988,2.8857,2.888,2.9203,2.9235,2.9332,2.9556,2.9579,2.971,3.0053,0.0,0.0,0.0,0.0,0.0,0.0,0.0,0.0,0.0,0.0,0.0,0.0,0.0,0.0,0.0,0.0,0.0,0.0,0.0,0.0,0.0,0.0,0.0,0.0,0.0,0.0,0.0,0.0,0.0,0.0,0.0,0.0,0.0,0.0,0.0,0.0,0.0,0.0,0.0,0.0,0.0,0.0,0.0,0.0,0.0,0.0,0.0,0.0,0.0,0.0,0.0,0.0,0.0,0.0,0.0,0.0,0.0,0.0,0.0,0.0,0.0,0.0,0.0,0.0,0.0,0.0,0.0,0.0,0.0,0.0,0.0,0.0,0.0,0.0,0.0,0.0,0.0,0.0,0.0,0.0,0.0,0.0,0.0,0.0,0.0,0.0,0.0,0.0,0.0,0.0,0.0,0.0,0.0,0.0,0.0,0.0,0.0,0.0,0.0,0.0,0.0,0.0,2.8946,2.8651,2.8552,2.897,2.8999,2.9095,2.9346,2.9367,2.9574,3.0081,0.0,0.0,0.0,0.0,0.0,0.0,0.0,0.0,0.0,0.0,0.0,0.0,0.0,0.0,0.0,0.0,0.0,0.0,0.0,0.0,0.0,0.0,0.0,0.0,0.0,0.0,0.0,0.0,0.0,0.0,0.0,0.0,0.0,0.0,0.0,0.0,0.0,0.0,0.0,0.0,0.0,0.0,0.0,0.0,0.0,0.0,0.0,0.0,0.0,0.0,0.0,0.0,0.0,0.0,0.0,0.0,0.0,0.0,0.0,0.0,2.0688,0.0,0.0,0.0,0.0,0.0,0.0,0.0,0.0,0.0,0.0,0.0,0.0,0.0,0.0,0.0,0.0,0.0,0.0,0.0,0.0,0.0,0.0,0.0,0.0,0.0,0.0,0.0,0.0,0.0,0.0,0.0,0.0,0.0,0.0,0.0,0.0,0.0,0.0,0.0,0.0,0.0,2.8946,2.8651,2.8552,2.897,2.8999,2.901,2.9078,2.9084,2.9227,2.955,2.9541,0.0,0.0,0.0,0.0,0.0,0.0,0.0,0.0,0.0,0.0,0.0,0.0,0.0,0.0,0.0,0.0,0.0,0.0,0.0,0.0,0.0,0.0,0.0,0.0,0.0,0.0,0.0,0.0,0.0,0.0,0.0,0.0,0.0,0.0,0.0,0.0,0.0,0.0,0.0,0.0,0.0,0.0,0.0,0.0,0.0,0.0,0.0,0.0,0.0,0.0,0.0,0.0,0.0,0.0,0.0,0.0,0.0,0.0,0.0,0.0,2.0977,0.0,0.0,0.0,0.0,0.0,0.0,0.0,0.0,0.0,0.0,0.0,0.0,0.0,0.0,0.0,0.0,0.0,0.0,0.0,0.0,0.0,0.0,0.0,0.0,0.0,0.0,0.0,0.0,0.0,0.0,0.0,0.0,0.0,0.0,0.0,0.0,0.0,0.0,0.0,0.0,2.8664,2.8534,2.8552,2.897,2.8999,2.8999,2.8999,2.8999,2.9112,2.9387,2.9402,0.0,0.0,0.0,0.0,0.0,0.0,0.0,0.0,0.0,0.0,0.0,0.0,0.0,0.0,0.0,0.0,0.0,0.0,0.0,0.0,0.0,0.0,0.0,0.0,0.0,0.0,0.0,0.0,0.0,0.0,0.0,0.0,0.0,0.0,0.0,0.0,0.0,0.0,0.0,0.0,0.0,0.0,0.0,0.0,0.0,0.0,0.0,0.0,0.0,0.0,0.0,0.0,0.0,1.9031,1.9371,1.89,1.9514,1.9798,1.9798,1.9798,2.0182,2.0795,2.0795,0.0,0.0,0.0,0.0,0.0,0.0,0.0,0.0,0.0,0.0,0.0,0.0,0.0,0.0,0.0,0.0,0.0,0.0,0.0,0.0,0.0,0.0,0.0,0.0,2.4582,2.4532,2.5505,0.0,0.0,0.0,0.0,0.0,0.0,0.0,0.0,0.0,0.0,0.0,2.8355,2.8355,2.8489,2.8946,2.8999,2.8999,2.8999,2.8999,2.9095,2.9315,2.933,2.9434,0.0,0.0,0.0,0.0,0.0,0.0,0.0,0.0,0.0,0.0,0.0,0.0,0.0,0.0,0.0,0.0,0.0,0.0,0.0,0.0,0.0,0.0,0.0,0.0,0.0,0.0,0.0,0.0,0.0,0.0,0.0,0.0,1.6153,1.6153,0.0,0.0,0.0,0.0,0.0,0.0,0.0,0.0,0.0,0.0,0.0,0.0,0.0,1.7756,1.7756,1.7841,1.811,1.8568,1.8754,1.9136,1.9669,1.976,1.9798,1.9798,1.9798,0.0,2.0795,2.0795,0.0,0.0,0.0,0.0,0.0,0.0,0.0,0.0,0.0,0.0,0.0,0.0,0.0,0.0,0.0,0.0,0.0,0.0,0.0,0.0,0.0,0.0,2.3709,2.3794,2.3752,2.3869,0.0,2.4989,2.5458,2.5988,2.6086,0.0,0.0,0.0,0.0,0.0,0.0,0.0,2.8305,2.815,2.8228,2.8923,2.8999,2.8999,2.8999,2.8999,2.9022,2.9038,2.9044,2.916,2.9424,2.9474,0.0,0.0,0.0,0.0,0.0,0.0,0.0,0.0,0.0,0.0,0.0,0.0,0.0,0.0,0.0,0.0,0.0,0.0,0.0,0.0,0.0,0.0,0.0,0.0,0.0,0.0,0.0,0.0,0.0,1.6283,1.6283,1.6283,1.6493,1.6789,0.0,0.0,0.0,0.0,0.0,0.0,0.0,0.0,0.0,1.6978,1.6978,1.6978,1.6978,1.78,1.7961,1.7482,1.8728,1.9268,1.9202,1.9618,1.9798,1.9798,1.9798,1.9965,2.0245,2.0245,2.0782,2.1669,0.0,0.0,0.0,0.0,2.3087,2.3043,2.2662,2.2778,2.3087,2.3087,0.0,0.0,0.0,0.0,0.0,0.0,0.0,0.0,0.0,0.0,2.3595,2.3595,2.3595,2.367,2.39,2.4122,2.4552,0.0,2.5781,2.6067,2.6271,0.0,0.0,0.0,0.0,2.7416,2.7747,2.7851,2.8099,2.8614,2.8664,2.8755,2.8988,2.8999,2.8999,2.8999,2.8999,2.9044,2.9178,2.932,2.9474,0.0,0.0,0.0,0.0,0.0,0.0,0.0,0.0,0.0,0.0,0.0,0.0,0.0,0.0,0.0,0.0,0.0,0.0,0.0,0.0,0.0,0.0,0.0,0.0,0.0,0.0,0.0,0.0,1.6222,1.6222,1.6222,1.6222,1.6439,0.0,0.0,0.0,0.0,0.0,0.0,1.5425,1.5921,1.6222,1.6222,1.6222,1.6308,1.6507,1.7592,1.7784,1.7076,1.8728,1.932,1.8993,1.9553,1.9798,1.9798,1.9798,1.9798,1.9798,1.9798,2.0295,2.1064,2.152,2.2112,2.2694,2.2694,2.2592,2.2369,2.1875,2.203,2.244,2.244,2.244,2.2566,2.3187,0.0,0.0,0.0,0.0,2.3117,2.3117,2.3242,2.3366,2.3366,2.3486,2.3595,2.3595,2.3713,2.4043,0.0,2.5421,2.5843,2.5986,0.0,0.0,0.0,0.0,2.7186,2.7295,2.7552,2.788,2.8226,2.8355,2.8527,2.8827,2.894,2.8999,2.8999,2.8999,2.8999,2.8999,2.9181,2.933,2.9402,0.0,0.0,0.0,0.0,0.0,0.0,0.0,0.0,0.0,0.0,0.0,0.0,0.0,0.0,0.0,0.0,0.0,0.0,0.0,0.0,0.0,0.0,0.0,0.0,0.0,0.0,0.0,0.0,0.0,1.5454,1.5454,0.0,0.0,0.0,0.0,1.5454,1.5454,1.5439,1.5396,1.5439,1.5454,1.5454,1.5454,1.5791,1.6482,1.6567,1.7285,1.8595,1.8701,1.9097,1.9747,1.9785,1.9798,1.9798,1.9798,1.9798,1.9798,1.9798,2.0533,2.1663,2.1685,2.2112,2.2694,2.2694,2.23,2.1758,2.1708,2.172,2.1744,2.1744,2.1744,2.1875,2.2543,2.2311,0.0,0.0,2.1791,2.1791,2.1791,2.2276,2.2754,2.2754,2.3176,2.3595,2.3595,2.4001,2.4379,0.0,2.4865,2.5402,2.5906,0.0,2.6674,2.6691,2.6716,2.6865,2.7257,2.7326,2.7477,2.7883,2.821,2.8414,2.8433,2.8773,2.8999,2.8999,2.8999,2.8999,2.8999,2.9017,2.9139,2.9397,2.9417,0.0,0.0,0.0,0.0,0.0,0.0,0.0,0.0,0.0,0.0,0.0,0.0,0.0,0.0,0.0,0.0,0.0,0.0,0.0,0.0,0.0,0.0,0.0,0.0,0.0,0.0,0.0,0.0,1.5396,1.5396,0.0,1.5396,1.5396,1.5396,1.5396,1.5396,1.5396,1.5396,1.5396,1.5396,1.5396,1.5396,1.5748,1.6482,1.6964,1.7715,1.8701,1.9176,1.9553,1.9798,1.9798,1.9798,1.9798,1.9798,1.9798,1.9798,1.9798,2.008,2.0521,2.0954,2.1272,2.1477,2.1477,2.1333,2.1125,2.1125,2.1125,2.1125,2.1125,2.1679,2.2311,2.2112,2.2181,2.2334,2.2334,2.2334,2.2334,2.2334,2.2804,2.3279,2.3279,2.3443,2.3595,2.3595,2.3741,2.389,2.389,2.4318,2.4762,2.495,2.5395,2.5846,2.6209,2.6505,2.675,2.6898,2.6914,2.7067,2.7462,2.7609,2.7872,2.835,2.8534,2.8713,2.8969,2.8999,2.8999,2.8999,2.8999,2.9038,2.9145,2.9145,2.9181,0.0,0.0,0.0,0.0,0.0,0.0,0.0,0.0,0.0,0.0,0.0,0.0,0.0,0.0,0.0,0.0,0.0,0.0,0.0,0.0,0.0,0.0,0.0,0.0,0.0,1.5396,1.5396,1.5396,1.5396,1.5396,1.5396,1.5396,1.5396,1.5396,1.5396,1.5396,1.5396,1.5396,1.5478,1.5625,1.5649,1.6199,1.7377,1.7868,1.8617,1.9656,2.0138,2.0363,2.0363,2.0363,2.0363,2.0363,2.0363,2.0363,2.0363,2.0363,2.0363,2.0392,2.0691,2.0795,2.0795,2.0795,2.0659,2.0459,2.0459,2.0459,2.0534,2.0954,2.1535,2.2058,2.2042,2.2181,2.2357,2.2357,2.2357,2.2357,2.2357,2.2827,2.3301,2.3301,2.3454,2.3595,2.3595,2.3595,2.3595,2.3595,2.4032,2.44,2.44,2.4983,2.5596,2.5943,2.6401,2.67,2.67,2.67,2.6791,2.7067,2.7225,2.7507,2.7995,2.8259,2.8503,2.8773,2.8923,2.8999,2.8999,2.8999,2.8999,2.8999,2.8999,2.8999,2.8999,0.0,0.0,0.0,0.0,0.0,0.0,0.0,0.0,0.0,0.0,0.0,0.0,0.0,0.0,0.0,0.0,0.0,0.0,0.0,0.0,0.0,0.0,0.0,1.5279,1.5381,1.5366,1.5396,1.5381,1.5366,1.5396,1.5405,1.5415,1.5415,1.5435,1.5435,1.5435,1.5435,1.5644,1.6095,1.6114,1.7072,1.9071,1.9097,1.9919,2.1507,2.1507,2.1507,2.1507,2.1507,2.1507,2.1507,2.1507,2.1507,2.1507,2.1507,2.1507,2.1463,2.1016,2.0861,2.0861,2.0861,2.0448,1.9887,1.9913,1.9926,2.0118,2.1334,2.136,2.1157,2.2359,2.2287,2.1787,2.1774,2.176,2.176,2.1746,2.2228,2.2728,2.2728,2.3165,2.3595,2.3595,2.3595,2.3595,2.3595,2.4022,2.4379,2.44,2.5278,2.5986,2.6004,2.6401,0.0,2.67,2.67,2.67,2.67,2.7043,2.7295,2.7311,2.7942,2.8363,2.837,2.8761,2.8988,2.8988,2.8999,2.8999,2.8999,2.8994,2.8994,2.8999,0.0,0.0,0.0,0.0,0.0,0.0,0.0,0.0,0.0,0.0,0.0,0.0,0.0,0.0,0.0,0.0,0.0,0.0,0.0,0.0,0.0,1.3846,1.3816,1.5196,1.4903,1.4756,1.5337,1.4888,1.4761,1.5337,1.5708,1.5919,1.5919,1.6191,1.6336,1.6336,1.6336,1.6395,1.6527,1.6537,1.7364,1.9082,1.9097,1.9919,2.1507,2.1507,2.1507,2.1507,2.1507,2.1507,2.1507,2.1507,2.1507,2.1507,2.1507,2.1507,2.1539,2.1942,2.2115,2.2115,2.2115,2.1996,2.1917,2.2439,2.2631,2.2606,2.2413,2.2937,2.3586,2.3417,2.36,2.3767,2.3286,2.3145,2.3046,2.2554,2.2883,2.3341,2.3341,2.3486,2.3595,2.3595,2.3595,2.3595,2.3595,2.3724,2.3938,2.4328,2.4979,2.5559,2.5933,2.6401,0.0,2.67,2.67,2.67,2.67,2.6791,2.6979,2.728,2.75,2.7726,2.8013,2.838,2.8565,2.8565,2.8845,2.8999,2.8999,2.8707,2.87,0.0,0.0,0.0,0.0,0.0,0.0,0.0,0.0,0.0,0.0,0.0,0.0,0.0,0.0,0.0,0.0,0.0,0.0,0.0,0.0,0.0,0.0,1.381,1.4028,1.5491,1.4829,1.4455,1.5109,1.5068,1.5249,1.5887,1.6191,1.6353,1.6353,1.6576,1.6697,1.6697,1.6697,1.6933,1.7473,1.7168,1.8055,2.0247,1.9912,2.0549,2.2169,2.2169,2.2169,2.2169,2.2169,2.2169,2.2169,2.2169,2.2169,2.2169,2.2169,2.2169,0.0,0.0,0.0,0.0,0.0,2.2804,2.312,2.3547,2.3701,2.3675,2.3521,2.4032,2.4666,2.4484,2.473,2.501,2.4605,2.4502,2.4403,2.401,2.4185,2.4448,2.4448,2.4448,2.4448,2.4448,2.4448,2.4448,2.4448,2.4448,0.0,2.5156,2.521,2.5307,2.5615,2.6254,2.67,2.67,2.67,2.67,2.67,2.67,2.6783,2.7027,2.721,0.0,0.0,0.0,2.8471,2.8645,2.8707,0.0,0.0,0.0,2.8451,2.8533,0.0,0.0,0.0,2.8688,2.8615,0.0,0.0,0.0,0.0,0.0,0.0,0.0,0.0,0.0,0.0,0.0,0.0,0.0,0.0,0.0,0.0,1.4237,1.4602,1.5729,1.5,1.4535,1.5037,1.5649,1.6212,1.6658,1.6746,1.6775,1.6775,1.6814,1.6843,1.6843,0.0,0.0,0.0,0.0,1.8851,2.1725,2.0989,2.1447,2.3108,2.3108,2.3108,2.3108,2.3108,2.3108,2.3108,2.3108,2.3108,2.3108,2.3108,2.314,2.3204,2.291,2.2381,2.1921,2.2735,2.335,2.3793,2.405,0.0,0.0,2.4583,2.4834,2.4972,2.534,2.5559,2.5691,2.5616,2.5586,2.5571,2.5497,2.5541,2.5591,2.5494,2.5541,2.5603,2.5603,2.5603,2.5603,2.5603,2.5603,2.5751,2.6235,2.5764,2.5384,2.551,2.6291,2.6885,2.6945,2.6877,2.6826,2.6826,0.0,0.0,2.67,2.7036,2.7233,2.7233,2.7897,2.8464,2.887,2.8496,2.8292,2.8349,2.8298,2.8156,2.7904,2.8563,2.8533,2.7911,2.8232,2.8368,0.0,0.0,0.0,0.0,0.0,0.0,0.0,0.0,0.0,0.0,0.0,0.0,0.0,0.0,0.0,1.4753,1.4497,1.437,1.46,1.4998,1.5514,1.6268,1.5917,1.5897,1.6624,1.7035,1.7256,1.7256,1.7578,1.7747,1.7747,1.7747,1.786,1.8107,1.7965,1.8845,2.083,2.0687,2.1447,2.3108,0.0,0.0,2.3108,2.3108,2.3108,2.3108,2.3108,2.3108,2.3108,2.3108,2.3484,2.4063,2.3998,2.3878,2.3921,2.5243,2.508,2.4444,2.6224,2.6068,2.5093,2.5216,2.5673,2.5951,2.4874,2.5378,0.0,2.568,2.552,2.5392,2.4846,2.5143,2.5458,2.4852,2.5167,2.5603,2.5603,2.5603,2.5603,2.5603,2.5603,2.5623,2.574,2.5983,2.6477,2.7404,2.7704,2.8006,2.8499,2.7994,2.7587,2.7587,2.7055,2.67,2.67,2.6775,2.6825,2.6825,2.7255,2.7682,2.8099,2.7736,2.7678,2.7985,2.7685,2.7648,2.7904,2.8044,2.8037,2.7911,2.8232,2.8084,0.0,0.0,0.0,0.0,0.0,0.0,0.0,0.0,0.0,0.0,0.0,1.5928,1.5517,0.0,1.5676,1.5271,1.5373,1.5573,1.5814,1.6202,1.6439,1.6397,1.643,1.6687,1.7278,1.7568,1.7695,1.7695,1.7891,1.7991,1.7991,1.7991,1.8202,1.8647,1.8236,1.9044,2.1227,2.0814,2.1447,2.3108,2.3108,2.3108,2.3108,2.3108,2.3108,2.3108,2.3108,2.3108,2.3108,2.3108,2.3335,2.3693,2.3693,2.4163,2.4908,2.5259,2.5161,2.5007,2.6121,2.6013,2.5398,2.5398,2.5646,2.581,2.5063,2.537,2.5876,2.5538,2.5453,2.5462,2.5489,2.5776,2.6054,2.6038,2.634,2.6599,2.6599,2.6599,2.6599,2.6599,2.6599,2.6599,2.6599,2.6814,2.7061,2.7217,2.7721,2.821,2.8505,2.8465,2.8399,2.8399,2.7714,2.7241,2.7241,2.6911,2.6791,2.6996,2.7194,2.7477,2.7883,2.7507,2.7386,2.7607,2.7394,2.7311,2.7311,2.7692,2.7685,2.7319,2.7675,2.7653,0.0,0.0,0.0,0.0,0.0,0.0,0.0,1.6697,1.6697,1.6697,1.6697,1.6497,1.5854,1.6348,1.6622,1.5974,1.6487,1.7083,1.7451,1.7516,1.7265,1.6552,1.709,1.7637,1.7978,1.7991,1.7991,1.7991,1.7991,1.7991,1.7991,1.7991,1.832,1.9027,1.8371,1.9177,2.1616,2.0942,2.1447,2.3108,2.3108,2.3108,2.3108,2.3108,2.3108,2.3108,2.3108,2.3108,2.3108,2.3108,2.3108,2.3108,2.3108,2.3857,2.4908,2.4466,2.4581,2.4993,2.5301,2.5203,2.4979,2.5133,2.5189,2.5161,2.5007,2.5063,2.5189,2.5189,2.5189,2.5315,2.5933,2.6176,2.643,2.7034,2.7293,2.742,2.7575,2.76,2.76,2.76,2.76,2.76,2.76,2.76,2.7423,2.6891,2.7583,2.8256,2.8494,2.8825,2.9085,2.9194,2.8518,2.7959,2.7815,2.7258,2.6985,2.7162,2.7186,2.7325,2.7648,2.7365,2.7186,2.7186,2.7186,2.7019,2.67,2.734,2.7325,2.6708,2.7027,2.7186,1.5919,1.6279,1.656,1.6619,1.6629,1.6638,0.0,1.6697,1.6697,1.6697,1.6697,1.6665,1.6586,1.6977,1.7288,1.7206,1.7551,1.7864,1.7939,1.7922,1.7906,1.7794,1.7862,1.7942,1.8008,1.7991,1.7991,1.7991,1.7991,1.7991,1.7991,1.7991,1.8042,1.8134,1.8059,1.8877,2.0735,2.0655,2.1447,2.3108,2.3108,2.3108,2.3108,2.3108,2.3108,2.3108,2.3108,2.3108,2.3108,2.3108,2.3108,2.3108,2.3108,2.32,2.3427,2.4074,2.3899,2.3545,2.4909,2.4496,2.3484,2.4178,2.4422,2.4292,2.356,2.3855,2.4422,2.4422,2.4422,2.4437,2.4524,2.5021,2.5536,2.5632,2.6149,2.68,2.7458,2.76,2.76,2.76,2.76,2.76,2.76,2.76,2.7752,2.8203,2.8373,2.8844,2.9909,2.9537,2.9377,2.9916,2.9322,2.8578,2.7858,2.7722,2.7427,2.68,2.6775,2.6791,2.6824,2.68,2.6775,2.6775,2.6775,2.675,2.67,2.68,2.68,2.67,2.675,2.6775,1.6328,1.6576,1.6781,1.7051,1.7109,1.7178,1.7405,1.7464,1.7464,1.7464,1.7464,1.7464,1.7464,1.7627,1.7744,1.7744,1.79,1.7991,1.7991,1.7991,1.7991,1.7991,1.7991,1.7991,1.7991,1.7991,1.7991,1.7991,1.7991,1.7991,1.7991,1.7991,1.7991,1.7991,1.7991,1.8596,1.983,2.0349,2.1211,2.2414,2.2884,2.3108,2.3108,2.3108,2.3108,2.3108,2.3108,2.3108,2.3108,2.3108,2.3108,2.3108,2.3108,2.3108,2.314,2.3484,2.3395,2.3185,2.3842,2.3636,2.3168,2.3499,2.359,2.3543,2.3213,2.3335,2.359,2.359,2.359,2.3708,2.4176,2.4524,2.4879,2.5301,2.5632,2.5932,2.6255,2.6654,2.6956,2.6956,2.7306,2.76,2.76,2.76,2.77,2.7947,2.8286,2.8689,2.918,2.9294,2.9258,2.9071,2.9099,2.8819,2.8032,2.8295,2.818,2.7393,2.7342,2.7148,2.6716,2.67,2.67,2.67,2.67,2.67,2.67,2.67,2.67,2.67,2.67,2.67,1.681,1.696,1.7142,1.748,1.7575,1.7637,1.7922,1.7991,1.7991,1.7991,1.7991,1.7991,1.7991,1.7794,1.7699,1.7957,1.7777,1.7699,1.7957,1.7991,1.7991,1.7991,1.7991,1.7991,1.7991,1.7991,1.7991,1.7991,1.7991,1.7991,1.7991,1.7991,1.7991,1.7991,1.7991,1.8411,1.9282,2.0155,2.1049,2.1908,2.2717,2.3108,2.3108,2.3108,2.3108,2.3108,2.3108,2.3108,2.3108,2.3108,2.3108,2.3108,2.3108,2.3108,2.3108,2.3108,2.3108,2.3108,2.3108,2.3108,2.3108,2.3108,2.3108,2.3108,2.3108,2.3108,2.3108,2.3108,2.3108,2.323,2.3811,2.3972,2.4162,2.4908,2.5091,2.5147,2.5356,2.581,2.6256,2.6457,2.693,2.7357,2.7547,2.76,2.76,2.76,2.7968,2.8307,2.8475,2.9035,2.9203,2.8653,2.8995,2.896,2.8211,2.8719,2.8721,2.7929,2.804,2.7729,2.6849,2.6815,2.6654,2.6289,2.6436,2.6505,2.6505,2.6641,2.67,2.67,2.6911,2.6996,1.738,1.7656,1.7961,1.7988,1.7971,1.7971,1.8008,1.7991,1.7991,1.7991,1.7991,1.7991,1.7991,1.7268,1.694,1.7845,1.7234,1.6957,1.7862,1.7991,1.7991,1.7991,1.7991,1.7991,1.7991,1.7991,1.7991,1.7991,1.7991,1.7991,1.7991,1.7991,1.7991,1.7991,1.7991,1.8411,1.9282,2.0155,2.1049,2.1908,2.2717,2.3108,2.3108,2.3108,2.3108,2.3108,2.3108,2.3108,2.3108,2.3108,2.3108,2.3108,2.3108,2.3108,2.3108,2.3108,2.3108,2.3108,2.3108,2.3108,2.3108,2.3108,2.3108,2.3108,2.3108,2.3108,2.3108,2.3108,2.3108,2.3108,2.3138,2.3138,2.3335,2.4147,2.4336,2.4524,2.5245,2.5412,2.5632,2.635,2.6523,2.6761,2.7471,2.76,2.76,2.76,2.7625,2.7848,2.8415,2.9035,2.939,2.9363,2.9385,2.9097,2.8355,2.8848,2.887,2.8132,2.8639,2.8404,2.7139,2.7095,2.6508,2.5275,2.5753,2.6022,2.6015,2.647,2.67,2.6716,2.7435,2.7773,1.7803,1.79,1.7991,1.7991,1.7991,1.7991,1.7991,1.7991,1.7991,1.7991,1.7991,1.7991,1.7991,1.7742,1.763,1.7957,1.7733,1.7647,1.7957,1.7991,1.7991,1.7991,1.7991,1.7991,1.7991,1.7991,1.7991,1.7991,1.7991,1.7991,1.7991,1.7991,1.7991,1.7991,1.7991,1.8134,1.8428,1.9299,2.0171,2.1037,2.2433,2.3108,2.3108,2.3108,2.3108,2.3108,2.3108,2.3108,2.3108,2.3108,2.3108,2.3108,2.3108,2.3108,2.3108,2.3108,2.3108,2.3108,2.3108,2.3108,2.3108,2.3108,2.3108,2.3108,2.3108,2.3108,2.3108,2.3108,2.3108,2.3108,2.3108,2.3108,2.3168,2.3439,2.3499,2.356,2.3813,2.4293,2.4738,2.4979,2.5439,2.5851,2.6108,2.6148,2.6309,2.68,2.7293,2.7673,2.7885,2.8076,2.821,2.821,2.8555,2.8697,2.8451,2.8988,2.9022,2.828,2.8419,2.8115,2.7195,2.7179,2.6959,2.6535,2.6708,2.6798,2.6798,2.6941,2.724,2.7618,2.7883,2.8213,1.7991,1.7991,1.7991,1.7991,1.7991,1.7991,1.7991,1.7991,1.7991,1.7991,1.7991,1.7991,1.7991,1.7725,1.7613,1.7957,1.7716,1.763,1.7957,1.7991,1.7991,1.7991,1.7991,1.7991,1.7991,1.7991,1.7991,1.7991,1.8127,1.8215,1.8215,1.8361,1.8467,1.8467,1.8467,1.8467,1.8467,1.9172,2.0052,2.108,2.2156,2.2823,2.3108,2.3108,2.3108,2.3108,2.3108,2.3108,2.3108,2.3108,2.3108,2.3108,2.3108,2.3108,2.3108,2.3108,2.3108,2.3108,2.3108,2.3108,2.3108,2.3108,2.3108,2.3108,2.3108,2.3108,2.3108,2.3108,2.3108,2.3108,2.3108,2.3108,2.3108,2.3108,2.3108,2.3108,2.3108,2.3514,2.3958,2.4249,2.4681,2.5091,2.5342,2.5398,2.5563,2.6041,2.6522,2.6993,2.7522,2.76,2.76,2.76,2.7959,2.8177,2.8177,2.8732,2.8876,2.8395,2.8575,2.8283,2.7346,2.7303,2.7095,2.6642,2.6827,2.6908,2.6908,2.7116,2.7394,2.7778,2.8042,2.8374,1.7991,1.7991,1.7991,1.7991,1.7991,1.7991,1.7991,1.7991,1.7991,1.7991,1.7991,1.7991,1.7991,1.7268,1.6957,1.7862,1.7251,1.6983,1.7862,1.7991,1.7991,1.7991,1.7991,1.7991,1.7991,1.8027,1.803,1.803,1.8373,1.8617,1.8627,1.9062,1.9305,1.9305,1.9305,1.9305,1.9305,1.97,2.0527,2.1804,2.1858,2.2307,2.3047,2.308,2.3108,2.3108,2.3108,2.3108,2.3108,2.3108,2.3108,2.3108,2.3108,2.3108,2.3108,2.3108,2.3108,2.3108,2.3108,2.3108,2.3108,2.3108,2.3108,2.3108,2.3108,2.3108,2.3108,2.3108,2.3108,2.3108,2.3108,2.3108,2.3108,2.3108,2.3108,2.3108,2.3108,2.3108,2.3335,2.4089,2.4234,2.4466,2.5161,2.5287,2.5301,2.5342,2.5342,2.585,2.7291,2.7522,2.7534,2.7534,2.7587,2.76,2.76,2.8128,2.8451,2.8451,2.9,2.8776,2.7558,2.7504,2.6938,2.5719,2.6207,2.6463,2.6463,2.6965,2.7233,2.728,2.7987,2.8333,1.7991,1.7991,1.7991,1.7991,1.7991,1.7991,1.7991,1.7991,1.7991,1.7991,1.7991,1.7991,1.7991,1.7811,1.7716,1.7957,1.7794,1.7725,1.7974,1.7991,1.7991,1.7991,1.7991,1.7991,1.7991,1.8274,1.8442,1.8442,1.8539,1.8744,1.9102,1.9228,1.9305,1.9305,1.9305,1.9305,1.9305,1.97,2.006,2.0421,2.1428,2.2002,2.223,2.2838,2.3108,2.3108,2.3108,2.3108,2.3108,2.3108,2.3108,2.3108,2.3108,2.3108,2.3108,2.3108,2.3108,2.3108,2.3108,2.3108,2.3108,2.3108,2.3108,2.3108,2.3108,2.3108,2.3108,2.3108,2.3108,2.3108,2.3108,2.3108,2.3108,2.3108,2.3108,2.3108,2.3108,2.3108,2.3155,2.3365,2.341,2.3469,2.3651,2.3693,2.3886,2.4495,2.4581,2.4908,2.5837,2.6443,2.6787,2.6787,2.7267,2.76,2.76,2.7735,2.7835,2.7835,2.7968,2.7902,2.759,2.7575,2.7414,2.7106,2.7211,2.7285,2.7285,2.7428,2.774,2.8159,2.8354,2.8698,1.7991,1.7991,1.7991,1.7991,1.7991,1.7991,1.7991,1.7991,1.7991,1.7991,1.7991,1.7991,1.7991,1.7664,1.7389,1.7389,1.7389,1.7389,1.7389,1.7742,1.7991,1.7991,1.7991,1.7991,1.7991,1.8354,1.8693,1.8888,1.9074,1.9288,1.9551,1.9765,1.9872,1.9872,1.9872,1.9774,1.957,1.9787,1.9889,1.9902,2.0649,2.1131,2.1365,2.2187,2.2567,2.2583,0.0,2.2899,2.2567,2.2567,2.2341,2.2036,2.243,2.2341,2.2082,2.2838,2.2884,2.2567,2.2567,2.2808,2.3108,2.3108,2.3108,2.3108,2.3108,2.3108,2.3108,2.3108,2.3108,2.3108,2.3108,2.3108,2.3108,2.3108,2.3108,2.3108,2.3108,2.3108,2.3108,2.3108,2.3108,2.3108,2.3108,2.3108,2.3245,2.3721,2.3767,2.3915,2.4338,2.5329,2.6028,2.6028,2.6403,2.6627,2.6627,2.6627,2.6627,2.6627,2.6943,2.7126,2.7126,2.742,2.76,2.76,2.76,2.76,2.76,2.76,2.7773,2.8104,2.8104,2.8295,1.7991,1.7991,1.7991,1.7991,1.7991,1.7991,1.7991,1.7991,1.7991,1.7991,1.7991,1.7991,1.7991,1.7234,1.6636,1.6767,1.6671,1.6636,1.6767,1.7484,1.7991,1.7991,1.7991,1.7991,1.7991,1.843,1.8859,1.9276,1.9727,1.9981,1.9981,2.0381,2.0605,2.0605,2.0605,2.04,2.0,1.9923,1.9889,1.99,1.9896,2.0114,2.0535,2.1341,2.1737,2.1768,2.2476,2.2368,2.1737,2.1737,2.1286,2.0671,2.1428,2.127,2.0782,2.2221,2.2326,2.1737,2.1737,2.2172,2.2793,2.2899,2.2944,2.2959,2.3078,2.3032,2.2959,2.3078,2.3108,2.3108,2.3108,2.3108,2.3108,2.3108,2.3108,2.3108,2.3108,2.3108,2.3108,2.3108,2.3108,2.3108,2.3108,2.3108,2.3108,2.3108,2.3108,2.3108,2.3108,2.4352,2.5245,2.5245,2.5342,2.5398,2.5398,2.5398,2.5398,2.5398,2.6001,2.6404,2.6497,2.7111,2.7496,2.76,2.76,2.76,2.76,2.76,2.76,2.76,2.76,2.76,1.7991,1.7991,1.7991,1.7991,1.7991,1.7991,1.7991,1.7991,1.7991,1.7991,1.7991,1.7991,1.7991,1.7234,1.6853,1.763,1.7104,1.6871,1.7647,1.7896,1.7991,1.7991,1.7991,1.7991,1.7991,1.8711,1.9209,1.9296,2.0029,2.0468,2.0468,2.0566,2.0605,2.0605,2.0605,2.0566,2.0468,2.0088,1.989,1.989,1.9893,1.9945,2.0037,2.0575,2.083,2.083,2.0974,0.0,2.083,2.083,2.0735,2.0623,2.0767,2.0735,2.0639,2.0926,2.0958,2.083,2.083,2.091,2.1148,2.1877,2.211,2.223,2.2899,2.2641,2.2245,2.2914,2.3108,2.3108,2.3108,2.3108,2.3108,2.3108,2.3108,2.3108,2.3108,2.3108,2.3108,2.3108,2.3108,2.3108,2.3108,2.3108,2.3108,2.3108,2.3108,2.3108,2.3108,2.3901,2.4481,2.4481,2.5035,2.5398,2.5398,2.5398,2.5398,2.5398,2.5522,2.5851,2.647,2.6616,2.6969,2.76,2.76,2.76,2.76,2.76,2.76,2.76,2.76,2.76,1.7991,1.7991,1.7991,1.7991,1.7991,1.7862,1.7371,1.7647,1.7725,1.6741,1.6932,1.7131,1.6637,1.6166,1.6027,1.6481,1.6576,1.6758,1.7217,1.7681,1.7991,1.7991,1.7991,1.7991,1.7991,1.8779,1.9305,1.9305,2.0107,2.0605,2.0605,2.0605,2.0605,2.0605,2.0605,2.0605,2.0605,2.0381,2.0137,1.9902,1.9693,1.9465,1.924,1.9698,1.9911,1.9944,2.0398,2.0333,1.9911,1.9911,1.9661,1.9282,1.9759,1.9661,1.9365,2.0268,2.0317,1.9911,1.9911,2.022,2.059,2.0558,2.0846,2.1381,2.2218,2.2214,2.2063,2.2869,2.3108,2.3108,2.3108,2.3108,2.3108,2.3108,2.3108,2.3108,2.3108,2.3108,2.3108,2.3108,2.3108,2.3108,2.3108,2.3108,2.3108,2.3108,2.3108,2.3108,2.3108,2.3439,2.3679,2.3679,2.3989,2.4208,2.4208,2.4208,2.4208,2.4208,2.4596,2.4979,2.5342,2.5714,2.6283,2.7008,2.7021,2.7216,2.76,2.76,2.76,2.76,2.76,2.76,1.7991,1.7991,1.7991,1.7991,1.7991,1.7811,1.707,1.7467,1.7527,1.5851,1.6097,1.6315,1.5376,1.5199,1.5269,1.5464,1.6123,1.6671,1.6871,1.7535,1.7991,1.7991,1.7991,1.7991,1.7991,1.8779,1.9305,1.9305,2.0107,2.0605,2.0605,2.0605,2.0605,2.0605,2.0605,2.0605,2.0605,2.0605,2.041,2.0049,1.9531,1.9111,1.876,1.8931,1.9027,1.9061,1.9759,1.965,0.0,1.9027,1.862,1.8076,1.8754,1.8603,1.8178,1.9546,1.9612,1.9027,1.9027,1.9464,1.9928,1.9233,1.9601,2.0478,2.1365,2.1491,2.1506,2.2326,2.2567,2.2567,2.2567,2.2705,2.2884,2.3063,2.2959,2.2884,2.3063,2.2959,2.2899,2.3078,2.3108,2.3108,2.3108,2.3108,2.3108,2.3108,2.3108,2.3108,2.3108,2.3108,2.3108,2.3108,2.3108,2.3108,2.3108,2.3108,2.3108,2.3108,2.3679,2.4118,2.4292,2.4865,2.5508,2.6243,2.6256,2.6549,2.7137,2.7137,2.7137,2.7137,2.7137,2.7214,1.7991,1.7991,1.7991,1.7991,1.7991,1.7974,1.7889,1.794,1.7708,1.6671,1.655,1.6315,1.5376,1.5199,1.5482,1.6332,1.655,1.6905,1.7759,1.7957,1.7991,1.7991,1.7991,1.7991,1.7991,1.8779,1.9305,1.9305,2.0107,2.0605,2.0605,2.0605,2.0605,2.0605,2.0605,2.0605,2.0605,2.0605,2.0586,2.0537,1.9696,1.9286,1.9217,1.8466,1.8127,1.8117,1.8202,1.8185,0.0,1.8127,1.8076,1.8008,1.8093,1.8076,1.8025,1.8178,1.8185,1.8127,1.8127,1.8168,1.8236,1.8161,1.8704,1.9568,2.0462,2.0171,1.9726,2.059,2.083,2.083,2.083,2.1428,2.2187,2.2929,2.2537,2.2214,2.2944,2.2522,2.223,2.2959,2.3108,2.3108,2.3108,2.3108,2.3108,2.3108,2.3108,2.3108,2.3108,2.3108,2.3108,2.3108,2.3108,2.3108,2.3108,2.3108,2.3108,2.3108,2.3168,2.3543,2.4263,2.4379,2.4752,2.5481,2.5495,2.5536,2.5605,2.5605,2.5605,2.5605,2.5605,2.5959,1.7991,1.7991,1.7991,1.7991,1.7991,1.7845,1.7285,1.7586,1.7579,1.6062,1.5755,1.564,1.5269,1.5199,1.5517,1.6445,1.707,1.7569,1.7957,1.7991,1.7991,1.7991,1.7991,1.7991,1.7991,1.8527,1.9093,1.9629,2.0244,2.0605,2.0605,2.0605,2.0605,2.0605,2.0605,2.0605,2.0605,2.0605,2.0605,2.0595,1.9951,1.9531,1.9286,1.8644,1.8235,1.7991,1.7991,1.7991,0.0,1.7991,1.7991,1.7991,1.7991,1.7991,1.7991,1.7991,1.7991,1.7991,1.7991,1.7991,1.7991,1.7991,1.8236,1.867,1.9562,1.9579,1.948,2.0349,2.0606,2.0606,2.0606,2.0862,2.1195,2.151,2.1337,2.1207,2.1538,2.1337,2.1211,2.1526,2.2032,2.2202,2.1694,2.2433,2.2944,2.2445,2.2793,2.3108,2.3108,2.3108,2.3108,2.3108,2.3108,2.3108,2.3108,2.3108,2.3108,2.3108,2.3108,2.323,2.356,2.3588,2.3943,2.4723,2.4738,2.4951,2.5398,2.5398,2.5398,2.5398,2.5398,2.5563,1.7991,1.7991,1.7991,1.7991,1.7991,1.7828,1.7156,1.7303,1.7131,1.5534,1.4968,1.4665,1.4396,1.4575,1.4968,1.5632,1.6784,1.7596,1.7596,1.7811,1.7991,1.7991,1.7991,1.7991,1.7991,1.8488,1.9113,1.9844,2.0332,2.0605,2.0605,2.0605,2.0605,2.0605,2.0605,2.0605,2.0605,2.0605,2.0605,2.0595,2.0117,1.9697,1.9286,1.882,1.8373,1.7991,1.7991,1.7991,0.0,1.7991,1.7991,1.7991,1.7991,1.7991,1.7991,1.7991,1.7991,1.7991,1.7991,1.7991,1.7991,1.7991,1.7991,1.811,1.8721,1.8921,1.9044,1.9661,1.983,1.9895,2.0155,2.022,2.0285,2.0542,2.0398,2.0285,2.0542,2.0398,2.0285,2.0558,2.1096,2.1318,2.0703,2.1573,2.2172,2.16,2.199,2.2356,2.2356,2.2583,2.2747,2.2747,2.2747,2.2838,2.3078,2.3108,2.3108,2.3108,2.3108,2.3108,2.3108,2.3108,2.3365,2.3928,2.3943,2.4192,2.4724,2.4724,2.4724,2.4724,2.4724,2.4852,1.7991,1.7991,1.7991,1.7991,1.7991,1.7991,1.7991,1.7268,1.6358,1.5411,1.4422,1.3437,1.25,1.3098,1.3727,1.3727,1.5349,1.661,1.661,1.7415,1.7991,1.7991,1.7991,1.7991,1.7991,1.8779,1.9453,1.9864,2.0332,0.0,2.0605,2.0605,2.0605,2.0605,2.0605,2.0605,2.0605,2.0605,2.0605,2.0595,2.0117,1.9697,1.9286,1.882,1.8373,1.7991,1.7991,1.7991,0.0,1.7991,1.7991,1.7991,1.7991,1.7991,1.7991,1.7991,1.7991,1.7991,1.7991,1.7991,1.7991,1.7991,1.7991,1.7991,1.8008,1.8008,1.8025,1.8025,1.8025,1.8236,1.9094,1.9315,1.9529,2.0398,1.9928,1.9546,2.0414,1.9911,1.9579,2.043,2.0606,2.0606,2.0606,2.0606,2.0623,2.0606,2.0623,2.0623,2.0623,2.1381,2.1908,2.1908,2.1908,2.223,2.302,2.3108,2.3108,2.3108,2.3108,2.3108,2.3108,2.3108,2.3108,2.3108,2.3108,2.3123,2.3123,2.3123,2.3123,2.3123,2.3123,2.3558,1.7035,1.7035,1.719,1.7845,1.7518,1.7035,1.7035,1.6324,1.557,1.5269,1.4396,1.381,1.4217,1.3954,1.4135,1.5473,1.5667,1.5869,1.6515,1.6289,1.6088,1.6088,1.6088,1.635,1.6983,1.7134,1.7821,1.9381,1.9506,1.9825,2.0566,2.0605,2.0605,2.0605,2.0605,2.0605,2.0605,2.0605,2.0605,2.0605,2.0439,1.9999,1.9296,1.915,1.8691,1.7991,1.7991,1.7991,0.0,1.7991,1.7991,1.7991,1.7991,1.7991,1.7991,1.7991,1.7991,1.7991,1.7991,1.7991,1.7991,1.7991,1.7991,1.7991,1.7991,1.7991,1.7991,1.7991,1.7991,1.8059,1.8344,1.8411,1.8479,1.8754,1.8613,1.8496,1.8754,1.8613,1.8496,1.8771,1.9299,1.9513,1.8938,1.9808,2.0398,1.9797,2.022,2.0606,2.0606,2.0846,2.1005,2.1005,2.1005,2.1365,2.2214,2.2276,2.2276,2.2276,2.2793,2.3108,2.3108,2.3108,2.3108,2.3108,2.3108,2.3108,2.3108,2.3108,2.3108,2.3108,2.3108,2.323,1.5965,1.6332,1.6654,1.688,1.6507,1.607,1.607,1.534,1.4629,1.4629,1.3846,1.3364,1.3983,1.3593,1.3575,1.4774,1.4782,1.4843,1.542,1.534,1.5199,1.5199,1.5199,1.5429,1.6018,1.6149,1.6908,1.8645,1.8902,1.9461,2.0547,2.0605,2.0605,2.0605,2.0605,2.0605,2.0605,2.0605,2.0605,2.0605,2.0605,2.0214,1.9521,1.9365,1.8906,1.8225,1.8059,1.7991,0.0,1.7991,1.7991,1.7991,1.7991,1.7991,1.7991,1.7991,1.7991,1.7991,1.7991,1.7991,1.7991,1.7991,1.7991,1.7991,1.7991,1.7991,1.7991,1.7991,1.7991,1.7991,1.7991,1.7991,1.7991,1.7991,1.7991,1.7991,1.7991,1.7991,1.7991,1.7991,1.8428,1.8647,1.8093,1.8904,1.9431,1.8894,1.9266,1.9628,1.9628,1.9911,2.0107,2.0107,2.0107,2.0333,2.0862,2.1223,2.1412,2.1412,2.1881,2.2295,2.2628,2.2656,2.2793,2.308,2.3108,2.3108,2.3108,2.3108,2.3108,2.3108,2.3108,2.3108,0.0,1.5685,1.6193,1.5411,1.5145,1.5092,1.5092,1.4314,0.0,1.36,1.2915,1.2305,1.2305,1.2305,1.2316,1.239,1.308,1.3618,1.3691,1.445,1.4985,1.4985,1.4985,1.5021,1.5092,1.564,1.6483,1.7682,1.839,1.9274,2.0421,2.0489,2.0527,2.0605,2.0605,2.0605,2.0605,2.0605,2.0605,2.0605,2.0605,2.0351,1.9902,1.9482,1.9035,0.0,1.8176,1.7991,0.0,1.7991,1.7991,1.7991,1.7991,1.7957,1.7896,1.7896,1.7896,1.7896,1.7896,1.794,1.7991,1.7991,1.7991,1.7991,1.7991,1.7991,1.7991,1.7991,1.7991,1.7991,1.7991,1.7991,1.7991,1.7991,1.7991,1.7991,1.7991,1.7991,1.7991,1.7991,1.7991,1.7991,1.7991,1.7991,1.7991,1.7991,1.7991,1.7991,1.7991,1.8704,1.9199,1.9199,1.9199,1.9199,1.9199,2.0009,2.051,2.051,2.0574,2.0958,2.1768,2.1815,2.2156,2.2914,2.2975,2.3005,2.3005,2.3078,2.3108,2.3108,2.3108,2.3108,1.3109,0.0,1.4504,1.5057,1.4611,1.4045,0.0,1.331,1.2629,1.2629,1.2445,1.2305,1.2305,1.2305,1.2537,1.3255,1.2952,1.2879,1.36,1.3291,1.2981,1.2981,1.2981,1.3248,1.3973,1.3953,1.4647,1.6455,1.6516,1.7326,1.9274,1.9382,1.9756,2.0566,2.0605,2.0605,2.0605,2.0605,2.0605,2.0605,2.0605,2.0351,1.9902,1.9482,1.9035,1.8578,1.8176,0.0,1.7991,1.7991,1.7991,1.7991,1.7991,1.7562,1.6922,1.6922,1.6922,1.6922,1.6922,1.7398,1.7991,1.7991,1.7991,1.7991,1.7991,1.7991,1.7991,1.7991,1.7991,1.7991,1.7991,1.7991,1.7991,1.7991,1.7991,1.7991,1.7991,1.7991,1.7991,1.7991,1.7991,1.7991,1.7991,1.7991,1.7991,1.7991,1.7991,1.7991,1.7991,1.8178,1.8303,1.8303,1.8303,1.8303,1.8303,1.9094,1.9612,1.9612,2.022,2.0687,2.0894,2.091,2.0989,2.118,2.1834,2.2184,2.2184,2.2793,2.3108,2.3108,2.3108,2.3108,1.2445,1.2989,1.3727,1.3839,1.3448,1.3062,1.3062,1.2659,1.2305,1.2305,1.2305,1.2305,1.2305,1.2305,1.2464,1.2989,1.2629,1.2482,1.2989,1.2629,1.2305,1.2305,1.2305,1.25,1.3007,1.3134,1.3856,1.5434,1.5644,1.6437,1.8129,1.8718,1.9263,1.9844,2.0343,2.0362,1.9883,1.9864,1.9864,1.9864,1.9864,1.9984,2.0195,1.9589,1.916,1.8879,1.8264,0.0,1.7364,1.7364,1.7096,1.6768,1.7182,1.6784,1.6009,1.6445,1.6602,1.6602,1.6602,1.7217,1.7991,1.7991,1.7991,1.7991,1.7991,1.7991,1.7991,1.7991,1.7991,1.7991,1.7991,1.7991,1.7991,1.7991,1.7991,1.7991,1.7991,1.7991,1.7991,1.7991,1.7991,1.7991,1.7991,1.7991,1.7991,1.7991,1.7991,1.7991,1.7991,1.7991,1.7991,1.7991,1.7991,1.7991,1.7991,1.8428,1.8704,1.8704,1.9144,1.9595,1.9993,1.9993,2.0188,2.059,2.1459,2.1706,2.1318,2.2522,2.2914,2.2552,2.2929,2.3108,1.2305,1.2879,1.3291,1.25,1.2305,1.2305,1.2305,1.2305,1.2305,1.2305,1.2305,1.2305,1.2305,1.2305,1.2305,1.2305,1.2305,1.2305,1.2305,1.2305,1.2305,1.2305,1.2305,1.2305,1.2305,1.2852,1.3588,1.4499,1.5107,1.5923,1.7009,1.796,1.8649,1.8997,1.9883,1.9923,1.9006,1.8997,1.8997,1.8997,1.8818,1.9313,2.0333,1.9445,1.9159,1.9256,0.0,0.0,1.6619,1.6758,1.6184,1.5287,1.6227,1.593,1.5074,1.586,1.6158,1.6193,1.6498,1.7217,1.7991,1.7991,1.7991,1.7991,1.7991,1.7991,1.7991,1.7991,1.7991,1.7991,1.7991,1.7991,1.7991,1.7991,1.7991,1.7991,1.7991,1.7991,1.7991,1.7991,1.7991,1.7991,1.7991,1.7991,1.7991,1.7991,1.7991,1.7991,1.7991,1.7991,1.7991,1.7991,1.7991,1.7991,1.7991,1.7991,1.7991,1.7991,1.7991,1.8337,1.9077,1.9094,1.9447,2.0188,2.1053,2.1144,2.0414,2.1959,2.2368,2.1721,2.2537,2.2914,1.2305,1.2409,1.2482,1.2335,1.2305,1.2305,1.2305,1.2305,1.2305,1.2305,1.2305,1.2305,1.2305,1.2305,1.2305,1.2305,1.2305,1.2305,1.2305,1.2305,1.2305,1.2305,1.2305,1.2305,1.2305,1.2852,1.3266,1.3437,1.3994,1.4817,1.5882,1.6108,1.7062,1.8937,1.9155,1.9164,1.8997,1.8997,1.8997,1.8986,1.8029,1.8149,1.9216,1.8335,1.8443,1.9256,0.0,1.7467,1.6671,1.7467,1.6759,1.5287,1.6227,1.5508,1.3954,1.4099,1.4153,1.4378,1.6035,1.7217,1.7991,1.7991,1.7991,1.7991,1.7991,1.7991,1.7991,1.7991,1.7991,1.7991,1.7991,1.7991,1.7991,1.7991,1.7991,1.7991,1.7991,1.7991,1.7991,1.7991,1.7991,1.7991,1.7991,1.7991,1.7991,1.7991,1.7991,1.7991,1.7991,1.7991,1.7991,1.7991,1.7991,1.7991,1.7991,1.7991,1.7991,1.7991,1.7991,1.8059,1.8185,1.8202,1.8252,1.8405,1.926,1.9628,1.9497,2.051,2.0926,2.0814,2.1678,2.2079,1.2305,1.2305,1.2305,1.2305,1.2305,1.2305,1.2305,1.2305,1.2305,1.2305,1.2305,1.2305,1.2305,1.2305,1.2305,1.2305,1.2305,1.2305,1.2305,1.2305,1.2305,1.2305,1.2305,1.2305,1.2305,1.2852,1.3193,1.3193,1.3754,1.4307,1.4817,1.54,1.617,1.7184,1.839,1.8698,1.8089,1.8089,1.8089,1.8069,1.6968,1.7009,1.8063,1.7812,1.7971,1.8414,0.0,1.7467,1.6636,1.707,1.6114,1.4486,1.5455,1.4657,1.3007,1.351,1.4045,1.4718,1.6105,1.7217,1.7991,1.7991,1.7991,1.7991,1.7991,1.7991,1.7991,1.7991,1.7991,1.7991,1.7991,1.7991,1.7991,1.7991,1.7991,1.7991,1.7991,1.7991,1.7991,1.7991,1.7991,1.7991,1.7991,1.7991,1.7991,1.7991,1.7991,1.7991,1.7991,1.7991,1.7991,1.7991,1.7991,1.7991,1.7991,1.7991,1.7991,1.7991,1.7991,1.7991,1.7991,1.7991,1.7991,1.7991,1.8854,1.9077,1.8603,1.9944,2.0365,1.9911,2.0782,2.1207,1.2305,1.2305,1.2305,1.2305,1.2305,1.2305,1.2305,1.2305,1.2305,1.2305,1.2305,1.2305,1.2305,1.2305,1.2305,1.2305,1.2305,1.2305,1.2305,1.2305,1.2305,1.2305,1.2305,1.2305,1.2305,1.2786,1.3133,1.3206,1.3694,1.4015,1.4103,1.4873,1.5434,1.5696,1.7346,1.8069,1.7698,1.7444,1.718,1.6907,1.5848,1.5844,1.6823,1.6936,1.7199,1.7586,1.7649,1.7268,1.6619,1.6836,1.579,1.4153,1.5145,1.4343,1.2714,1.3437,1.4189,1.495,1.5667,1.6697,1.7664,1.7664,1.7811,1.7991,1.7991,1.7991,1.7991,1.7991,1.7991,1.7991,1.7991,1.7991,1.7991,1.7991,1.7991,1.7991,1.7991,1.7991,1.7991,1.7991,1.7991,1.7991,1.7991,1.7991,1.7991,1.7991,1.7991,1.7991,1.7991,1.7991,1.7991,1.7991,1.7991,1.7991,1.7991,1.7991,1.7991,1.7991,1.7991,1.7991,1.7991,1.7991,1.7991,1.7991,1.8664,1.867,1.7991,1.9332,1.9661,1.9011,1.9895,2.0301,1.2305,1.2305,1.2305,1.2305,1.2305,1.2305,1.2305,1.2305,1.2305,1.2305,1.2305,1.2305,1.2305,1.2305,1.2305,1.2305,1.2305,1.2305,1.2305,1.2305,1.2305,1.2305,1.2305,1.2305,1.2305,1.263,1.2938,1.3186,1.348,1.3774,1.4075,1.4166,1.4671,1.5662,1.5841,1.6879,1.8858,1.7827,1.6805,1.5799,1.4734,1.4649,1.544,1.4999,1.5713,1.7225,1.6862,1.6671,1.6671,1.7545,1.6793,1.5199,1.6123,1.5314,1.3618,1.3673,1.3745,1.381,1.3882,1.5137,1.6706,1.6706,1.7285,1.7991,1.7991,1.7991,1.7991,1.7991,1.7991,1.7991,1.7991,1.7991,1.7991,1.7991,1.7991,1.7991,1.7991,1.7991,1.7991,1.7991,1.7991,1.7991,1.7991,1.7991,1.7991,1.7991,1.7991,1.7991,1.7991,1.7991,1.7991,1.7991,1.7991,1.7991,1.7991,1.7991,1.7991,1.7991,1.7991,1.7991,1.7991,1.7991,1.7991,1.7991,1.8059,1.8059,1.7991,1.8127,1.8151,1.811,1.8977,1.9381,1.2305,1.2305,1.2305,1.2305,1.2305,1.2305,1.2305,1.2305,1.2305,1.2305,1.2305,1.2305,1.2305,1.2305,1.2305,1.2305,1.2305,1.2305,1.2305,1.2305,1.2305,1.2305,1.2305,1.2305,1.2305,1.261,1.2837,1.2932,1.3206,1.348,1.3774,1.3787,1.4075,1.4692,1.5359,1.6108,1.694,1.6511,1.6108,1.5696,1.5296,1.4793,1.4244,1.4488,1.5186,1.6231,1.6492,1.6922,1.7501,1.7845,1.7234,1.6062,1.5825,1.4897,1.3709,1.3709,1.3709,1.3709,1.3709,1.496,1.6602,1.6602,1.6836,1.7139,1.7139,1.6724,1.6385,1.6966,1.6715,1.6533,1.7708,1.7991,1.7991,1.7991,1.7991,1.7991,1.7991,1.7991,1.7991,1.7991,1.7991,1.7991,1.7991,1.7991,1.7991,1.7991,1.7991,1.7991,1.7991,1.7991,1.7991,1.7991,1.7991,1.7991,1.7991,1.7991,1.7991,1.7991,1.7991,1.7991,1.7991,1.7991,1.7991,1.7991,1.7991,1.7991,1.7991,1.7991,1.7991,1.8008,1.8337,1.8496,1.2305,1.2305,1.2305,1.2305,1.2305,1.2305,1.2305,1.2305,1.2305,1.2305,1.2305,1.2305,1.2305,1.2305,1.2305,1.2305,1.2305,1.2305,1.2305,1.2305,1.2305,1.2305,1.2305,1.2305,1.2305,1.2504,1.2683,1.2796,1.2965,1.3193,1.3453,1.3467,1.358,1.3801,1.4522,1.5072,1.541,1.543,1.5564,1.5839,1.5564,1.472,1.3494,1.3862,1.4388,1.5018,1.5494,1.6393,1.7562,1.7562,1.7173,1.6515,1.557,1.4601,1.3709,1.3709,1.351,1.3255,1.3255,1.4325,1.5685,1.5685,1.5895,1.6158,1.6158,1.5711,1.534,1.5983,1.5702,1.5499,1.6785,1.7346,1.7562,1.7562,1.7777,1.7991,1.7991,1.7991,1.7991,1.7991,1.7991,1.7991,1.7991,1.7991,1.7991,1.7991,1.7991,1.7991,1.7991,1.7991,1.7991,1.7991,1.7991,1.7991,1.7991,1.7991,1.7991,1.7991,1.7991,1.7991,1.7991,1.7991,1.7991,1.7991,1.7991,1.7991,1.7991,1.7991,1.7991,1.7991,1.7991,1.7991,1.2305,1.2305,1.2305,1.2305,1.2305,1.2305,1.2305,1.2305,1.2305,1.2305,1.2305,1.2305,1.2305,1.2305,1.2305,1.2305,1.2305,1.2305,1.2305,1.2305,1.2305,1.2305,1.2305,1.2305,1.2305,1.2305,1.2444,1.2776,1.2803,1.2918,1.3186,1.3206,1.3206,1.3193,1.3193,1.3719,1.4802,1.4802,1.5269,1.6182,1.5223,1.4226,1.3193,1.2924,1.3135,1.3709,1.3709,1.4799,1.6602,1.6602,1.6593,1.6489,1.557,1.4601,1.3709,1.3709,1.3109,1.2305,1.2305,1.2915,1.3709,1.3709,1.4368,1.5181,1.5181,1.5181,1.5163,1.5181,1.5181,1.5163,1.5181,1.5878,1.6558,1.6584,1.7303,1.7974,1.7974,1.7974,1.7974,1.7974,1.7974,1.7974,1.7991,1.7991,1.7991,1.7991,1.7991,1.7991,1.7991,1.7991,1.7991,1.7991,1.7991,1.7991,1.7991,1.7991,1.7991,1.7991,1.7991,1.7991,1.7991,1.7991,1.7991,1.7991,1.7991,1.7991,1.7991,1.7991,1.7991,1.7991,1.7991,1.7991,1.2305,1.2305,1.2305,1.2305,1.2305,1.2305,1.2305,1.2305,1.2305,1.2305,1.2305,1.2305,1.2305,1.2305,1.2305,1.2305,1.2305,1.2305,1.2305,1.2305,1.2305,1.2305,1.2305,1.2305,1.2305,1.2305,1.2338,1.2444,1.2457,1.2584,1.2904,1.2924,1.3006,1.318,1.3193,1.3719,1.4802,1.4038,1.4194,1.5204,1.3976,1.3576,1.3882,1.3149,1.3135,1.3709,1.3709,1.4799,1.6602,1.6602,1.621,1.5587,1.5305,1.4601,1.3709,1.3709,1.3109,1.2305,1.2305,1.2915,1.3709,1.3709,1.3908,1.4135,1.4135,1.3683,1.331,1.3954,1.3665,1.3302,1.3973,1.4343,1.4728,1.5438,1.5834,1.6035,1.6035,1.6035,1.6035,1.6035,1.6035,1.6245,1.6888,1.7018,1.7234,1.7896,1.7991,1.7991,1.7991,1.7991,1.7991,1.7991,1.7991,1.7991,1.7991,1.7991,1.7991,1.7991,1.7991,1.7991,1.7991,1.7991,1.7991,1.7991,1.7991,1.7991,1.7991,1.7991,1.7991,1.7991,1.7991,1.7991,1.2305,1.2305,1.2305,1.2305,1.2305,1.2305,1.2305,1.2305,1.2305,1.2305,1.2305,1.2305,1.2305,1.2305,1.2305,1.2305,1.2305,1.2305,1.2305,1.2305,1.2305,1.2305,1.2305,1.2305,1.2305,1.2305,1.2305,1.2305,1.2305,1.2397,1.2596,1.2603,1.2671,1.2846,1.2833,1.314,1.3805,1.3166,1.335,1.4347,1.3174,1.3084,1.397,1.3035,1.2801,1.3164,1.3546,1.436,1.5455,1.5455,1.5102,1.4575,1.4199,1.3683,1.3135,1.3135,1.2787,1.2305,1.2305,1.2659,1.3135,1.3135,1.3135,1.3135,1.3135,1.2751,1.2427,1.2989,1.2732,1.2427,1.3007,1.3135,1.3382,1.436,1.4914,1.5199,1.5199,1.5199,1.5199,1.5199,1.5199,1.5376,1.5956,1.6035,1.6358,1.7303,1.7759,1.7872,1.7484,1.7777,1.7991,1.7991,1.7991,1.7991,1.7991,1.7991,1.7991,1.7991,1.7991,1.7991,1.7991,1.7991,1.7991,1.7991,1.7991,1.7991,1.7991,1.7991,1.7991,1.7991,1.7991,1.7991,1.2305,1.2305,1.2305,1.2305,1.2305,1.2305,1.2305,1.2305,1.2305,1.2305,1.2305,1.2305,1.2305,1.2305,1.2305,1.2305,1.2305,1.2305,1.2305,1.2305,1.2305,1.2305,1.2305,1.2305,1.2305,1.2305,1.2305,1.2305,1.2305,1.2305,1.2305,1.2305,1.2305,1.2305,1.2305,1.2305,1.2305,1.2305,1.2769,1.3691,1.2751,1.2787,1.3673,1.2739,1.2305,1.236,1.3291,1.3655,1.3582,1.3655,1.3655,1.3491,1.2629,1.2305,1.2305,1.2305,1.2305,1.2305,1.2305,1.2305,1.2305,1.2305,1.2305,1.2305,1.2305,1.2305,1.2305,1.2305,1.2305,1.2305,1.2305,1.2305,1.2519,1.3364,1.4279,1.4932,1.4932,1.4932,1.4932,1.4932,1.4932,1.4968,1.5057,1.5057,1.5385,1.6332,1.72,1.7476,1.6706,1.7337,1.7906,1.7991,1.7991,1.7991,1.7991,1.7991,1.7991,1.7991,1.7991,1.7991,1.7991,1.7991,1.7991,1.7991,1.7991,1.7991,1.7991,1.7991,1.7991,1.7991,1.7991,1.7991,1.2305,1.2305,1.2305,1.2305,1.2305,1.2305,1.2305,1.2305,1.2305,1.2305,1.2305,1.2305,1.2305,1.2305,1.2305,1.2305,1.2305,1.2305,1.2305,1.2305,1.2305,1.2305,1.2305,1.2305,1.2305,1.2305,1.2305,1.2305,1.2305,1.2305,1.2305,1.2305,1.2305,1.2305,1.2305,1.2305,1.2305,1.2305,1.2769,0.0,1.2751,1.2787,1.3673,1.2739,1.2305,1.236,1.3291,1.3273,1.2666,1.3401,1.328,1.2574,1.2378,1.2305,1.2305,1.2305,1.2305,1.2305,1.2305,1.2305,1.2305,1.2305,1.2305,1.2305,1.2305,1.2305,1.2305,1.2305,1.2305,1.2305,1.2305,1.2305,1.236,1.2556,1.2769,1.2927,1.2927,1.2927,1.2927,1.2927,1.2927,1.3164,1.39,1.4027,1.436,1.5358,1.5675,1.5992,1.6532,1.6775,1.7173,1.7923,1.7991,1.7991,1.7991,1.7991,1.7991,1.7991,1.7991,1.7991,1.7991,1.7991,1.7991,1.7991,1.7991,1.7991,1.7991,1.7991,1.7991,1.7991,1.7991,1.7991,1.2305,1.2305,1.2305,1.2305,1.2305,1.2305,1.2305,1.2305,1.2305,1.2305,1.2305,1.2305,1.2305,1.2305,1.2305,1.2305,1.2305,1.2305,1.2305,1.2305,1.2305,1.2305,1.2305,1.2305,1.2305,1.2305,1.2305,1.2305,1.2305,1.2305,1.2305,1.2305,1.2305,1.2305,1.2305,1.2305,1.2305,1.2305,1.2556,1.3025,1.2537,1.2556,1.3007,1.2519,1.2305,1.2342,1.2824,1.2751,1.2335,1.2824,1.2732,1.2305,1.2305,1.2305,1.2305,1.2305,1.2305,1.2305,1.2305,1.2305,1.2305,1.2305,1.2305,1.2305,1.2305,1.2305,1.2305,1.2305,1.2305,1.2305,1.2305,1.2305,1.2305,1.2305,1.2305,1.2305,1.2305,1.2305,1.2305,1.2305,1.2305,1.2464,1.2952,1.3401,1.3727,1.381,1.4593,1.5199,1.5208,1.5632,1.6289,1.7234,1.732,1.7501,1.7957,1.7991,1.7991,1.7991,1.7991,1.7991,1.7991,1.7991,1.7991,1.7991,1.7991,1.7991,1.7991,1.7991,1.7991,1.7991,1.7991,1.7991,1.2305,1.2305,1.2305,1.2305,1.2305,1.2305,1.2305,1.2305,1.2305,1.2305,1.2305,1.2305,1.2305,1.2305,1.2305,1.2305,1.2305,1.2305,1.2305,1.2305,1.2305,1.2305,1.2305,1.2305,1.2305,1.2305,1.2305,1.2305,1.2305,1.2305,1.2305,1.2305,1.2305,1.2305,1.2305,1.2305,1.2305,1.2305,1.2378,1.2537,1.2537,1.2464,1.2305,1.2305,1.2305,1.2305,1.2305,1.2305,1.2305,1.2305,1.2305,1.2305,1.2305,1.2305,1.2305,1.2305,1.2305,1.2305,1.2305,1.2305,1.2305,1.2305,1.2305,1.2305,1.2305,1.2305,1.2305,1.2305,1.2305,1.2305,1.2305,1.2305,1.2305,1.2305,1.2305,1.2305,1.2305,1.2305,1.2305,1.2305,1.2305,1.2305,1.2305,1.308,1.3382,1.2445,1.381,1.4647,1.3818,1.4575,1.557,1.6498,1.674,1.7156,1.794,1.7991,1.7991,1.7991,1.7991,1.7991,1.7991,1.7991,1.7991,1.7991,1.7991,1.7991,1.7991,1.7991,1.7991,1.7991,1.7991,1.7991,1.2305,1.2305,1.2305,1.2305,1.2305,1.2305,1.2305,1.2305,1.2305,1.2305,1.2305,1.2305,1.2305,1.2305,1.2305,1.2305,1.2305,1.2305,1.2305,1.2305,1.2305,1.2305,1.2305,1.2305,1.2305,1.2305,1.2305,1.2305,1.2305,1.2305,1.2305,1.2305,1.2305,1.2305,1.2305,1.2305,1.2305,1.2305,1.2721,1.351,1.351,1.3098,1.2305,1.2305,1.2305,1.2305,1.2305,1.2305,1.2305,1.2305,1.2305,1.2305,1.2305,1.2305,1.2305,1.2305,1.2305,1.2305,1.2305,1.2305,1.2305,1.2305,1.2305,1.2305,1.2305,1.2305,1.2305,1.2305,1.2305,1.2305,1.2305,1.2305,1.2305,1.2305,1.2305,1.2305,1.2305,1.2305,1.2305,1.2305,1.2305,1.2305,1.2305,1.308,1.3382,1.2445,1.3219,1.3854,1.3727,1.4575,1.557,1.6498,1.732,1.7862,1.7991,1.7991,1.7991,1.7991,1.7991,1.7991,1.7991,1.7991,1.7991,1.7991,1.7991,1.7991,1.7991,1.7991,1.7991,1.7991,1.7991,1.7991,1.2305,1.2305,1.2305,1.2305,1.2305,1.2305,1.2305,1.2305,1.2305,1.2305,1.2305,1.2305,1.2305,1.2305,1.2305,1.2305,1.2305,1.2305,1.2305,1.2305,1.2305,1.2305,1.2305,1.2305,1.2305,1.2305,1.2305,1.2305,1.2305,1.2305,1.2305,1.2305,1.2305,1.2305,1.2305,1.2305,1.2305,1.2305,1.2519,1.2915,1.2915,1.2703,1.2305,1.2305,1.2305,1.2305,1.2305,1.2305,1.2305,1.2305,1.2305,1.2305,1.2305,1.2305,1.2305,1.2305,1.2305,1.2305,1.2305,1.2305,1.2305,1.2305,1.2305,1.2305,1.2305,1.2305,1.2305,1.2305,1.2305,1.2305,1.2305,1.2305,1.2305,1.2305,1.2305,1.2305,1.2305,1.2305,1.2305,1.2305,1.2305,1.2305,1.2305,1.2641,1.2776,1.2353,1.3098,1.3709,1.3709,1.4575,1.557,1.6498,1.6974,1.7432,1.7957,1.7991,1.7991,1.7991,1.7501,1.7449,1.7974,1.6993,1.6689,1.7217,1.7733,1.7991,1.7991,1.7467,1.7484,1.7991,1.7467,1.7501,1.2305,1.2305,1.2305,1.2305,1.2305,1.2305,1.2305,1.2305,1.2305,1.2305,1.2305,1.2305,1.2305,1.2305,1.2305,1.2305,1.2305,1.2305,1.2305,1.2305,1.2305,1.2305,1.2305,1.2305,1.2305,1.2305,1.2305,1.2305,1.2305,1.2305,1.2305,1.2305,1.2305,1.2305,1.2305,1.2305,1.2305,1.2305,1.2305,1.2305,1.2305,1.2305,1.2305,1.2305,1.2305,1.2305,1.2305,1.2305,1.2305,1.2305,1.2305,1.2305,1.2305,1.2305,1.2305,1.2305,1.2305,1.2305,1.2305,1.2305,1.2305,1.2305,1.2305,1.2305,1.2305,1.2305,1.2305,1.2305,1.2305,1.2305,1.2305,1.2305,1.2305,1.2305,1.2305,1.2305,1.2305,1.2305,1.2305,1.2305,1.2305,1.2305,1.2305,1.25,1.2574,1.2335,1.3098,1.3618,1.3364,1.4207,1.5084,1.579,1.6315,1.6784,1.7243,1.751,1.7545,1.7295,1.6628,1.6559,1.726,1.5939,1.5534,1.6227,1.6932,1.7295,1.7295,1.6836,1.6957,1.763,1.7182,1.732,1.2305,1.2305,1.2305,1.2305,1.2305,1.2305,1.2305,1.2305,1.2305,1.2305,1.2305,1.2305,1.2305,1.2305,1.2305,1.2305,1.2305,1.2305,1.2305,1.2305,1.2305,1.2305,1.2305,1.2305,1.2305,1.2305,1.2305,1.2305,1.2305,1.2305,1.2305,1.2305,1.2305,1.2305,1.2305,1.2305,1.2305,1.2305,1.2305,1.2305,1.2305,1.2305,1.2305,1.2305,1.2305,1.2305,1.2305,1.2305,1.2305,1.2305,1.2305,1.2305,1.2305,1.2305,1.2305,1.2305,1.2305,1.2305,1.2305,1.2305,1.2305,1.2305,1.2305,1.2305,1.2305,1.2305,1.2305,1.2305,1.2305,1.2305,1.2305,1.2305,1.2305,1.2305,1.2305,1.2305,1.2305,1.2305,1.2305,1.2305,1.2305,1.2305,1.2305,1.3043,1.3328,1.2427,1.3098,1.3382,1.2482,1.32,1.3792,1.3854,1.5508,1.6262,1.5411,1.6158,1.6289,1.5411,1.5305,1.5287,1.534,1.5252,1.5216,1.5269,1.5322,1.5358,1.5358,1.6201,1.6636,1.6688,1.7545,1.7957,1.2305,1.2305,1.2305,1.2305,1.2305,1.2305,1.2305,1.2305,1.2305,1.2305,1.2305,1.2305,1.2305,1.2305,1.2305,1.2305,1.2305,1.2305,1.2305,1.2305,1.2305,1.2305,1.2305,1.2305,1.2305,1.2305,1.2305,1.2305,1.2305,1.2305,1.2305,1.2305,1.2305,1.2305,1.2305,1.2305,1.2305,1.2305,1.2305,1.2305,1.2305,1.2305,1.2305,1.2305,1.2305,1.2305,1.2305,1.2305,1.2305,1.2305,1.2305,1.2305,1.2305,1.2305,1.2305,1.2305,1.2305,1.2305,1.2305,1.2305,1.2305,1.2305,1.2305,1.2305,1.2305,1.2305,1.2305,1.2305,1.2305,1.2305,1.2305,1.2305,1.2305,1.2305,1.2305,1.2305,1.2305,1.2305,1.2305,1.2305,1.2305,1.2305,1.2305,1.2574,1.2696,1.236,1.3098,1.3582,1.3244,1.4063,1.4665,1.4665,1.5287,1.557,1.5234,1.5517,1.557,1.5216,1.4593,1.4522,1.5163,1.4001,1.3629,1.4225,1.3647,1.3947,1.5199,1.5552,1.5702,1.572,1.6663,1.7104,1.2305,1.2305,1.2305,1.2305,1.2305,1.2305,1.2305,1.2305,1.2305,1.2305,1.2305,1.2305,1.2305,1.2305,1.2305,1.2305,1.2305,1.2305,1.2305,1.2305,1.2305,1.2305,1.2305,1.2305,1.2305,1.2305,1.2305,1.2305,1.2305,0.0,1.2305,1.2305,1.2305,1.2305,1.2305,1.2305,1.2305,1.2305,1.2305,1.2305,1.2305,1.2305,1.2305,1.2305,1.2305,1.2305,1.2305,1.2305,1.2305,1.2305,1.2305,1.2305,1.2305,1.2305,1.2305,1.2305,1.2305,1.2305,1.2305,1.2305,1.2305,1.2305,1.2305,1.2305,1.2305,1.2305,1.2305,1.2305,1.2305,1.2305,1.2305,1.2305,1.2305,1.2305,1.2305,1.2305,1.2305,1.2305,1.2305,1.2305,1.2305,1.2305,1.2305,1.2305,1.2305,1.2305,1.2824,1.3219,1.3219,1.381,1.4235,1.4235,1.4504,1.4575,1.4253,1.4522,1.4557,1.4253,1.3593,1.352,1.4199,1.2981,1.2586,1.3226,1.2629,1.2934,1.4235,1.454,1.47,1.4718,1.5685,1.6297,0.0,0.0,0.0,1.2305,1.2305,1.2305,1.2305,1.2305,1.2305,1.2305,1.2305,1.2305,1.2305,1.2305,1.2305,1.2305,1.2305,1.2305,1.2305,1.2305,1.2305,1.2305,1.2305,1.2305,1.2305,1.2305,1.2305,1.2305,1.2305,1.2305,1.2305,1.2305,1.2305,1.2305,1.2305,1.2305,1.2305,1.2305,1.2305,1.2305,1.2305,1.2305,1.2305,1.2305,1.2305,1.2305,1.2305,1.2305,1.2305,1.2305,1.2305,1.2305,1.2305,1.2305,1.2305,1.2305,1.2305,1.2305,1.2305,1.2305,1.2305,1.2305,1.2305,1.2305,1.2305,1.2305,1.2305,1.2305,1.2305,1.2305,1.2305,1.2305,1.2305,1.2305,1.2305,1.2305,1.2305,1.2305,1.2305,1.2305,1.2305,1.2305,1.2305,1.2305,1.2305,1.2305,1.2305,1.2305,1.2305,1.2305,1.2305,1.2305,1.3116,1.3299,1.2378,1.3127,1.3273,1.236,1.2305,1.2305,1.2305,1.2305,1.2305,1.2305,1.2305,1.2305,1.2305,1.3244,1.3691,1.3673,1.4683,1.5649,1.2305,0.0,0.0,0.0,0.0,0.0,1.2305,1.2305,1.2305,1.2305,1.2305,1.2305,1.2305,1.2305,1.2305,1.2305,1.2305,1.2305,1.2305,1.2305,1.2305,1.2305,1.2305,1.2305,1.2305,1.2305,1.2305,0.0,1.2305,1.2305,1.2305,1.2305,1.2305,1.2305,1.2305,1.2305,1.2305,1.2305,1.2305,1.2305,1.2305,1.2305,1.2305,1.2305,1.2305,1.2305,1.2305,1.2305,1.2305,1.2305,1.2305,1.2305,1.2305,1.2305,1.2305,1.2305,1.2305,1.2305,1.2305,1.2305,1.2305,1.2305,1.2305,1.2305,1.2305,1.2305,1.2305,1.2305,1.2305,1.2305,1.2305,1.2305,1.2305,1.2305,1.2305,1.2305,1.2305,1.2305,1.2305,1.2305,1.2305,1.2305,1.2305,1.2305,1.2305,1.2305,1.2305,1.2305,1.2305,1.2305,1.2305,1.2305,1.2537,1.2574,1.2316,1.2537,1.2574,1.2316,1.2305,1.2305,1.2305,1.2305,1.2305,1.2305,1.2305,1.2305,1.2305,1.3244,1.3346,1.2714,1.3665,1.4647,1.2305,1.2305,1.2305,1.2305,0.0,0.0,1.2305,1.2305,1.2305,1.2305,1.2305,1.2305,1.2305,1.2305,1.2305,1.2305,1.2305,1.2305,1.2305,1.2305,1.2305,1.2305,1.2305,1.2305,1.2305,1.2305,1.2305,1.2305,1.2305,1.2305,1.2305,1.2305,1.2305,1.2305,1.2305,1.2305,1.2305,1.2305,1.2305,1.2305,1.2305,1.2305,1.2305,1.2305,1.2305,1.2305,1.2305,1.2305,1.2305,1.2305,1.2305,1.2305,1.2305,1.2305,1.2305,1.2305,1.2305,1.2305,1.2305,1.2305,1.2305,1.2305,1.2021,1.1749,1.2169,1.2015,1.1768,1.2187,1.2305,1.2305,1.2305,1.2305,1.2305,1.2305,1.2305,1.2305,1.2305,1.2305,1.2305,1.2305,1.2305,1.2305,1.2305,1.2305,1.2305,1.2305,1.2305,1.2305,1.2305,1.2305,1.2305,1.2305,1.2305,1.2305,1.2305,1.2305,1.2305,1.2305,1.2305,1.2305,1.2305,1.2305,1.2305,1.2305,1.2305,1.2305,1.2305,1.2842,1.2824,1.2316,1.2861,1.3647,1.2305,1.2305,1.2305,1.2305,1.2305,0.0,1.2305,1.2305,1.2305,1.2305,1.2305,1.2305,1.2305,1.2305,1.2305,1.2305,1.2305,1.2305,1.2305,1.2305,1.2305,1.2305,1.2305,1.2305,1.2305,1.2305,1.2305,1.2305,1.2305,1.2305,1.2305,1.2305,1.2305,1.2305,1.2305,1.2305,1.2305,1.2305,1.2305,1.2305,1.2305,1.2305,1.2305,1.2305,1.2305,1.2305,1.2305,1.2305,1.2305,1.2305,1.2305,1.2305,1.2305,1.2305,1.2305,1.2305,1.2305,1.2305,1.2305,1.2305,1.2305,1.2305,1.162,1.0975,1.1867,1.1502,1.0994,1.1885,1.2058,1.1984,1.2095,1.2132,1.215,1.2268,1.2305,1.2305,1.2305,1.2305,1.2305,1.2305,1.2305,1.2305,1.2305,1.2305,1.2305,1.2305,1.2305,1.2305,1.2305,1.2305,1.2305,1.2305,1.2305,1.2305,1.2305,1.2305,1.2305,1.2305,1.2305,1.2305,1.2305,1.2305,1.2305,1.2305,1.2305,1.2305,1.2305,1.2305,1.2305,1.2305,1.2305,1.2751,1.2305,1.2305,1.2305,1.2305,1.2305,0.0,1.2305,1.2305,1.2305,1.2305,1.2305,1.2305,1.2305,1.2305,1.2305,1.2305,1.2305,1.2305,1.2305,1.2305,1.2305,1.2305,1.2305,1.2305,1.2305,1.2305,1.2305,1.2305,1.2305,1.2305,1.2305,1.2305,1.2305,1.2305,1.2305,1.2305,1.2305,1.2305,1.2305,1.2305,1.2305,1.2305,1.2305,1.2305,1.2305,1.2305,1.2305,1.2305,1.2305,1.2305,1.2305,1.2305,1.2305,1.2305,1.2305,1.2305,1.2305,1.2305,1.2305,1.2305,1.2305,1.2305,1.162,1.0839,1.1031,1.0957,1.0839,1.1031,1.0514,1.0064,1.0882,1.1087,1.1298,1.2114,1.2305,1.2305,1.2305,1.2305,1.2305,1.2305,1.2305,1.2305,1.2305,1.2305,1.2305,1.2305,1.2305,1.2305,1.2305,1.2305,1.2305,1.2305,1.2305,1.2305,1.2305,1.2305,1.2305,1.2305,1.2305,1.2305,1.2305,1.2305,1.2305,1.2305,1.2305,1.2305,1.2305,1.2305,1.2305,1.2305,1.2305,1.239,1.2305,1.2305,1.2305,1.2305,1.2305,0.0,0.0,1.2305,1.2305,1.2305,1.2305,1.2305,1.2305,1.2305,1.2305,1.2305,1.2305,1.2305,1.2305,1.2305,1.2305,1.2305,1.2305,1.2305,1.2305,1.2305,1.2305,1.2305,1.2305,1.2305,1.2305,1.2305,1.2305,1.2305,1.2305,1.2305,1.2305,1.2305,1.2305,1.2305,1.2305,1.2305,1.2305,1.2305,1.2305,1.2305,1.2305,1.2305,1.2305,1.2305,1.2305,1.2305,1.2305,1.2305,1.2305,1.2305,1.2305,1.2305,1.2305,1.2305,1.2305,1.2305,1.1279,1.0153,1.0652,1.0453,1.004,1.004,0.9688,0.941,0.9927,1.004,1.0303,1.1316,1.1545,1.1694,1.2187,1.2305,1.2305,1.2305,1.2305,1.2305,1.2305,1.2305,1.2305,1.2305,1.2305,1.2305,1.2305,1.2305,1.2305,1.2305,1.2305,1.2305,1.2305,1.2305,1.2305,1.2305,1.2305,1.2305,1.2305,1.2305,1.2305,1.2305,1.2305,1.2305,1.2305,1.2305,1.2305,1.2305,1.2305,1.2305,1.2305,1.2305,1.2305,1.2305,1.2305,1.2305,0.0,0.0,0.0,1.2305,1.2305,1.2305,1.2305,1.2305,1.2305,1.2305,1.2305,1.2305,1.2305,1.2305,1.2305,1.2305,1.2305,1.2305,1.2305,1.2305,1.2305,1.2305,1.2305,1.2305,1.2305,1.2305,1.2305,1.2305,1.2305,1.2305,1.2305,1.2305,1.2305,1.2305,1.2305,1.2305,1.2305,1.2305,1.2305,1.2305,1.2305,1.2305,1.2305,1.2305,1.2305,1.2305,1.2305,1.2305,1.2305,1.2305,1.2305,1.2305,1.2305,1.2169,1.2015,1.2015,1.0645,0.9164,0.9984,0.9513,0.8765,0.8955,0.8879,0.8765,0.8955,0.9017,0.9258,1.0265,1.0658,1.1013,1.1842,1.215,1.2305,1.2305,1.2305,1.2305,1.2305,1.2305,1.2305,1.2305,1.2305,1.2305,1.2305,1.2305,1.2305,1.2305,1.2305,1.2305,1.2305,1.2305,1.2305,1.2305,1.2305,1.2305,1.2305,1.2305,1.2305,1.2305,1.2305,1.2305,1.2305,1.2305,1.2305,1.2305,1.2305,1.2305,1.2305,1.2305,1.2305,1.2305,1.2305,1.2305,1.2305,0.0,1.2305,1.2305,0.0,1.2305,1.2305,0.0,0.0,1.2305,1.2305,1.2305,1.2305,1.2305,1.2305,1.2305,1.2305,1.2305,1.2305,1.2305,1.2305,1.2305,1.2305,1.2305,1.2305,1.2305,1.2305,1.2305,1.2305,1.2305,1.2305,1.2305,1.2305,1.2305,1.2305,1.2305,1.2305,1.2305,1.2305,1.2305,1.2305,1.2305,1.2305,1.2305,1.2305,1.2305,1.2305,1.2305,1.2305,1.2305,1.2305,1.2305,1.2305,1.1712,1.0969,1.0969,0.9607,0.7993,0.8103,0.7442,0.6834,0.7725,0.7326,0.6853,0.7744,0.797,0.8218,0.9239,1.0153,1.082,1.0957,1.1675,1.2305,1.2305,1.2305,1.2305,1.2305,1.2305,1.2305,1.2305,1.2305,1.2305,1.2305,1.2305,1.2305,1.2305,1.2305,1.2305,1.2305,1.2305,1.2305,1.2305,1.2305,1.2305,1.2305,1.2305,1.2305,1.2305,1.2305,1.2305,1.2305,1.2305,1.2305,1.2305,1.2305,1.2305,1.2305,1.2305,1.2305,1.2305,1.2305,1.2305,1.2305,1.2305,1.2305,1.2305,0.0,0.0,0.0,0.0,0.0,0.0,1.2305,1.2305,1.2305,1.2305,1.2305,1.2305,0.0,0.0,1.2305,1.2305,1.2305,1.2305,1.2305,1.2305,1.2305,1.2305,1.2305,1.2305,1.2305,1.2305,1.2305,1.2305,1.2305,1.2305,1.2305,1.2305,1.2305,1.2305,1.2305,1.2305,1.2305,1.2305,1.2305,1.2305,1.2305,1.2305,1.2305,1.2305,1.2224,1.1638,1.1428,1.1354,1.0757,1.0271,0.9838,0.9248,0.8494,0.7687,0.7099,0.6644,0.6396,0.6814,0.6621,0.6393,0.6814,0.6926,0.7173,0.818,0.8742,0.921,0.9795,1.0252,1.0552,1.0552,1.1019,1.1428,1.1428,1.1904,1.2305,1.2305,1.2305,1.2305,1.2305,1.2305,1.2305,1.2305,1.2305,1.2305,1.2305,1.2305,1.2305,1.2305,1.2305,1.2305,1.2305,1.2305,1.2305,1.2305,1.2305,1.2305,1.2305,1.2305,1.2305,1.2305,1.2305,1.2305,1.2305,1.2305,1.2305,1.2305,1.2305,1.2305,1.2305,1.2305,1.2305,1.2305,1.2305,0.0,0.0,0.0,1.2305,1.2305,0.0,1.2305,1.2305,1.2305,1.2305,1.2305,1.2305,0.0,0.0,1.2305,1.2305,1.2305,1.2305,1.2305,1.2305,1.2305,1.2305,1.2305,1.2305,1.2305,1.2305,1.2305,1.2305,1.2305,1.2305,1.2305,1.2305,1.2305,1.2305,1.2305,1.2305,1.2305,1.2305,1.2305,1.2305,1.2305,1.2305,1.2132,1.1805,1.1069,1.064,1.0284,0.9561,0.9126,0.8727,0.7725,0.7384,0.7253,0.6528,0.63,0.63,0.63,0.63,0.63,0.63,0.63,0.649,0.7215,0.7591,0.7993,0.8727,0.9107,0.9296,0.9296,0.9895,1.0396,1.0396,1.1453,1.2305,1.2305,1.2305,1.2305,1.2305,1.2305,1.2305,1.2305,1.2305,1.2305,1.2305,1.2305,1.2305,1.2305,1.2305,1.2305,1.2305,1.2305,1.2305,1.2305,1.2305,1.2305,1.2305,1.2305,1.2305,1.2305,1.2305,1.2305,0.0,0.0,0.0,1.2305,0.0,0.0,0.0,0.0,1.2305,0.0,0.0,1.2305,1.2305,1.2305,1.2305,1.2305,1.2305,0.0,0.0,1.2305,1.2305,1.2305,1.2305,1.2305,0.0,1.2305,1.2305,0.0,1.2305,1.2305,1.2305,1.2305,1.2305,1.2305,1.2305,1.2305,1.2305,1.2305,1.2305,1.2305,1.2305,1.2305,1.2305,1.2305,1.2305,1.2305,1.2305,1.2305,1.2305,1.2305,1.2305,1.2305,1.2305,1.1712,1.0839,1.0802,1.0171,0.9334,0.9315,0.8656,0.7687,0.6679,0.6358,0.6338,0.6319,0.63,0.63,0.63,0.63,0.63,0.63,0.63,0.63,0.6338,0.7099,0.7802,0.784,0.8613,0.9296,0.9296,0.9334,0.9353,0.9353,1.0987,1.2305,1.2305,1.2305,1.2305,1.2305,1.2305,1.2305,1.2305,1.2305,1.2305,1.2305,1.2305,1.2305,1.2305,1.2305,1.2305,1.2305,1.2305,1.2305,1.2305,1.2305,1.2305,1.2305,1.2305,1.2305,1.2305,1.2305,1.2305,0.0,0.0,1.2305,1.2305,0.0,0.0,0.0,0.0,0.0,0.0,0.0,1.2305,1.2305,1.2305,1.2305,1.2305,1.2305,1.2305,0.0,1.2305,1.2305,1.2305,1.2305,1.2305,1.2305,0.0,0.0,0.0,1.2305,0.0,1.2305,1.2305,1.2305,1.2305,1.2305,1.2305,1.2305,1.2305,1.2305,1.2305,1.2305,1.2305,1.2305,1.2305,1.2305,1.2305,1.2305,1.2305,1.2243,1.1583,1.1316,1.1242,1.0571,0.9707,0.8893,0.9556,0.9178,0.8218,0.7557,0.7099,0.6756,0.6412,0.63,0.63,0.63,0.63,0.63,0.63,0.63,0.63,0.63,0.63,0.63,0.63,0.6567,0.6814,0.6814,0.708,0.7307,0.7307,0.7859,0.8313,0.8313,0.9429,1.0533,1.1205,1.1316,1.1545,1.2206,1.2305,1.2305,1.2305,1.2305,1.2305,1.2305,1.2305,1.2305,1.2305,1.2305,1.2305,1.2305,1.2305,1.2305,1.2305,1.2305,1.2305,1.2305,1.2305,1.2305,1.2305,1.2305,1.2305,1.1768,1.1508,0.0,1.123,1.123,0.0,1.123,0.0,1.1323,0.0,0.0,0.0,1.2224,1.2305,1.2305,1.2305,1.2305,1.2305,0.0,1.2305,1.2305,1.2305,1.2305,1.2305,1.2305,1.2305,1.2305,1.2305,1.2305,1.2305,0.0,1.2305,1.2305,1.2305,1.2305,1.2132,1.1768,1.1768,1.1583,1.123,1.123,1.123,1.1248,1.1601,1.1768,1.1768,1.1768,1.1768,1.1694,1.0677,1.0265,1.0209,0.9561,0.8689,0.7878,0.8523,0.8122,0.7176,0.6528,0.63,0.63,0.63,0.63,0.63,0.63,0.63,0.63,0.63,0.63,0.63,0.63,0.63,0.63,0.63,0.63,0.63,0.63,0.63,0.63,0.63,0.6814,0.7269,0.7269,0.7802,0.8689,1.0059,1.0265,1.0496,1.1155,1.1545,1.1768,1.1768,1.2095,1.2305,1.2305,1.2305,1.2305,1.2305,1.2305,1.2305,1.2305,1.2305,1.2305,1.2305,1.2305,1.2305,1.2305,1.2305,1.2305,1.2305,1.2305,1.2305]},{"header":{"parameterUnit":"m.s-1","parameterCategory":1,"la1":30.6,"la2":29.2853,"lo1":-89.7004,"lo2":-87.6739,"dy":0.0162,"dx":0.0183,"nx":112,"ny":82,"refTime":"2023-09-02T12:00:00:Z","depth":0,"parameterNumber":3,"parameterNumberName":"V-component_of_WINDS"},"data":[0.0,0.0,0.0,0.0,0.0,0.0,0.0,0.0,0.0,0.0,0.0,0.0,0.0,0.0,0.0,0.0,0.0,0.0,0.0,0.0,0.0,0.0,0.0,0.0,0.0,0.0,0.0,0.0,0.0,0.0,0.0,0.0,0.0,0.0,0.0,0.0,0.0,0.0,0.0,0.0,0.0,0.0,0.0,0.0,0.0,0.0,0.0,0.0,0.0,0.0,0.0,0.0,0.0,0.0,0.0,0.0,0.0,0.0,0.0,0.0,0.0,0.0,0.0,0.0,0.0,0.0,0.0,0.0,0.0,0.0,0.0,0.0,0.0,0.0,0.0,0.0,0.0,0.0,0.0,0.0,0.0,0.0,0.0,0.0,0.0,0.0,0.0,0.0,0.0,0.0,0.747,0.6593,0.5848,0.5395,0.5395,0.5395,0.5405,0.5393,0.0,0.0,0.0,0.0,0.0,0.0,0.0,0.0,0.0,0.0,0.0,0.0,0.0,0.0,0.0,0.0,0.0,0.0,0.0,0.0,0.0,0.0,0.0,0.0,0.0,0.0,0.0,0.0,0.0,0.0,0.0,0.0,0.0,0.0,0.0,0.0,0.0,0.0,0.0,0.0,0.0,0.0,0.0,0.0,0.0,0.0,0.0,0.0,0.0,0.0,0.0,0.0,0.0,0.0,0.0,0.0,0.0,0.0,0.0,0.0,0.0,0.0,0.0,0.0,0.0,0.0,0.0,0.0,0.0,0.0,0.0,0.0,0.0,0.0,0.0,0.0,0.0,0.0,0.0,0.0,0.0,0.0,0.0,0.0,0.0,0.0,0.0,0.0,0.0,0.0,0.0,0.0,0.0,0.0,0.0,0.0,0.0,0.0,0.0,0.0,0.0,0.0,0.0,0.0,0.656,0.5686,0.5478,0.5395,0.5395,0.5395,0.5405,0.5393,0.0,0.0,0.0,0.0,0.0,0.0,0.0,0.0,0.0,0.0,0.0,0.0,0.0,0.0,0.0,0.0,0.0,0.0,0.0,0.0,0.0,0.0,0.0,0.0,0.0,0.0,0.0,0.0,0.0,0.0,0.0,0.0,0.0,0.0,0.0,0.0,0.0,0.0,0.0,0.0,0.0,0.0,0.0,0.0,0.0,0.0,0.0,0.0,0.0,0.0,0.0,0.0,0.0,0.0,0.0,0.0,0.0,0.0,0.0,0.0,0.0,0.0,0.0,0.0,0.0,0.0,0.0,0.0,0.0,0.0,0.0,0.0,0.0,0.0,0.0,0.0,0.0,0.0,0.0,0.0,0.0,0.0,0.0,0.0,0.0,0.0,0.0,0.0,0.0,0.0,0.0,0.0,0.0,0.0,0.0,0.0,0.0,0.0,0.0,0.0,0.0,0.0,0.0,0.7945,0.7067,0.6203,0.5686,0.5395,0.5395,0.5395,0.5405,0.5393,0.3449,0.0,0.0,0.0,0.0,0.0,0.0,0.0,0.0,0.0,0.0,0.0,0.0,0.0,0.0,0.0,0.0,0.0,0.0,0.0,0.0,0.0,0.0,0.0,0.0,0.0,0.0,0.0,0.0,0.0,0.0,0.0,0.0,0.0,0.0,0.0,0.0,0.0,0.0,0.0,0.0,0.0,0.0,0.0,0.0,0.0,0.0,0.0,0.0,0.0,0.0,0.0,0.0,0.0,0.0,0.0,0.0,0.0,0.0,0.0,0.0,0.0,0.0,0.0,0.0,0.0,0.0,0.0,0.0,0.0,0.0,0.0,0.0,0.0,0.0,0.0,0.0,0.0,0.0,0.0,0.0,0.0,0.0,0.0,0.0,0.0,0.0,0.0,0.0,0.0,0.0,0.0,0.0,0.0,0.0,0.0,0.0,0.0,0.0,0.0,0.0,0.0,0.0,0.8533,0.7665,0.6801,0.5914,0.5395,0.5395,0.5395,0.5402,0.5406,0.3706,0.0,0.0,0.0,0.0,0.0,0.0,0.0,0.0,0.0,0.0,0.0,0.0,0.0,0.0,0.0,0.0,0.0,0.0,0.0,0.0,0.0,0.0,0.0,0.0,0.0,0.0,0.0,0.0,0.0,0.0,0.0,0.0,0.0,0.0,0.0,0.0,0.0,0.0,0.0,0.0,0.0,0.0,0.0,0.0,0.0,0.0,0.0,0.0,0.0,0.0,0.0,0.0,0.0,0.0,0.0,0.0,0.0,0.0,0.0,0.0,0.0,0.0,0.0,0.0,0.0,0.0,0.0,0.0,0.0,0.0,0.0,0.0,0.0,0.0,0.0,0.0,0.0,0.0,0.0,0.0,0.0,0.0,0.0,0.0,0.0,0.0,0.0,0.0,0.0,0.0,0.0,0.0,0.0,0.0,0.0,0.0,0.0,0.0,0.0,0.0,0.0,0.0,0.8533,0.7665,0.6801,0.5914,0.5395,0.5395,0.5395,0.5399,0.5396,0.3704,0.0,0.0,0.0,0.0,0.0,0.0,0.0,0.0,0.0,0.0,0.0,0.0,0.0,0.0,0.0,0.0,0.0,0.0,0.0,0.0,0.0,0.0,0.0,0.0,0.0,0.0,0.0,0.0,0.0,0.0,0.0,0.0,0.0,0.0,0.0,0.0,0.0,0.0,0.0,0.0,0.0,0.0,0.0,0.0,0.0,0.0,0.0,0.0,0.0,0.0,0.0,0.0,0.0,0.0,0.0,0.0,0.0,0.0,0.0,0.0,0.0,0.0,0.0,0.0,0.0,0.0,0.0,0.0,0.0,0.0,0.0,0.0,0.0,0.0,0.0,0.0,0.0,0.0,0.0,0.0,0.0,0.0,0.0,0.0,0.0,0.0,0.0,0.0,0.0,0.0,0.0,0.0,0.0,0.0,0.0,0.0,0.0,0.0,0.0,0.0,0.0,0.0,0.9011,0.8274,0.685,0.6412,0.5992,0.5445,0.5395,0.5399,0.5396,0.0,0.0,0.0,0.0,0.0,0.0,0.0,0.0,0.0,0.0,0.0,0.0,0.0,0.0,0.0,0.0,0.0,0.0,0.0,0.0,0.0,0.0,0.0,0.0,0.0,0.0,0.0,0.0,0.0,0.0,0.0,0.0,0.0,0.0,0.0,0.0,0.0,0.0,0.0,0.0,0.0,0.0,0.0,0.0,0.0,0.0,0.0,0.0,0.0,0.0,0.0,0.0,0.0,0.0,0.0,0.0,0.0,0.0,0.0,0.0,0.0,0.0,0.0,0.0,0.0,0.0,0.0,0.0,0.0,0.0,0.0,0.0,0.0,0.0,0.0,0.0,0.0,0.0,0.0,0.0,0.0,0.0,0.0,0.0,0.0,0.0,0.0,0.0,0.0,0.0,0.0,0.0,0.0,0.0,0.0,0.0,0.0,0.0,0.0,0.0,0.0,0.0,0.9786,0.9466,0.8844,0.7649,0.7274,0.6756,0.5881,0.5815,0.5693,0.5412,0.0,0.0,0.0,0.0,0.0,0.0,0.0,0.0,0.0,0.0,0.0,0.0,0.0,0.0,0.0,0.0,0.0,0.0,0.0,0.0,0.0,0.0,0.0,0.0,0.0,0.0,0.0,0.0,0.0,0.0,0.0,0.0,0.0,0.0,0.0,0.0,0.0,0.0,0.0,0.0,0.0,0.0,0.0,0.0,0.0,0.0,0.0,0.0,0.0,0.0,0.0,0.0,0.0,0.0,0.0,0.0,0.0,0.0,0.0,0.0,0.0,0.0,0.0,0.0,0.0,0.0,0.0,0.0,0.0,0.0,0.0,0.0,0.0,0.0,0.0,0.0,0.0,0.0,0.0,0.0,0.0,0.0,0.0,0.0,0.0,0.0,0.0,0.0,0.0,0.0,0.0,0.0,0.0,0.0,0.0,0.0,0.0,0.0,0.0,0.0,0.0,0.0,1.0609,0.9849,0.9306,0.9306,0.8533,0.7665,0.6785,0.6719,0.6338,0.0,0.0,0.0,0.0,0.0,0.0,0.0,0.0,0.0,0.0,0.0,0.0,0.0,0.0,0.0,0.0,0.0,0.0,0.0,0.0,0.0,0.0,0.0,0.0,0.0,0.0,0.0,0.0,0.0,0.0,0.0,0.0,0.0,0.0,0.0,0.0,0.0,0.0,0.0,0.0,0.0,0.0,0.0,0.0,0.0,0.0,0.0,0.0,0.0,0.0,0.0,0.0,0.0,0.0,0.0,0.0,0.0,0.0,0.0,0.0,0.0,0.0,0.0,0.0,0.0,0.0,0.0,0.0,0.0,0.0,0.0,0.0,0.0,0.0,0.0,0.0,0.0,0.0,0.0,0.0,0.0,0.0,0.0,0.0,0.0,0.0,0.0,0.0,0.0,0.0,0.0,0.0,0.0,0.0,0.0,0.0,0.0,0.0,0.0,0.0,0.0,0.0,0.0,1.0609,1.038,0.9977,0.937,0.9075,0.8565,0.7697,0.7616,0.7246,0.6371,0.0,0.0,0.0,0.0,0.0,0.0,0.0,0.0,0.0,0.0,0.0,0.0,0.0,0.0,0.0,0.0,0.0,0.0,0.0,0.0,0.0,0.0,0.0,0.0,0.0,0.0,0.0,0.0,0.0,0.0,0.0,0.0,0.0,0.0,0.0,0.0,0.0,0.0,0.0,0.0,0.0,0.0,0.0,0.0,0.0,0.0,0.0,0.0,0.0,0.0,0.0,0.0,0.0,0.0,0.0,0.0,0.0,0.0,0.0,0.0,0.0,0.0,0.0,0.0,0.0,0.0,0.0,0.0,0.0,0.0,0.0,0.0,0.0,0.0,0.0,0.0,0.0,0.0,0.0,0.0,0.0,0.0,0.0,0.0,0.0,0.0,0.0,0.0,0.0,0.0,0.0,0.0,0.0,0.0,0.0,0.0,0.0,0.0,0.0,0.0,0.0,0.0,1.064,1.0879,1.0762,0.9913,0.9817,0.946,0.8597,0.8517,0.8048,0.6921,0.0,0.0,0.0,0.0,0.0,0.0,0.0,0.0,0.0,0.0,0.0,0.0,0.0,0.0,0.0,0.0,0.0,0.0,0.0,0.0,0.0,0.0,0.0,0.0,0.0,0.0,0.0,0.0,0.0,0.0,0.0,0.0,0.0,0.0,0.0,0.0,0.0,0.0,0.0,0.0,0.0,0.0,0.0,0.0,0.0,0.0,0.0,0.0,0.0,0.0,0.0,0.0,0.0,0.0,0.0,0.0,0.0,0.0,0.0,0.0,0.0,0.0,0.0,0.0,0.0,0.0,0.0,0.0,0.0,0.0,0.0,0.0,0.0,0.0,0.0,0.0,0.0,0.0,0.0,0.0,0.0,0.0,0.0,0.0,0.0,0.0,0.0,0.0,0.0,0.0,0.0,0.0,0.0,0.0,0.0,0.0,0.0,0.0,0.0,0.0,0.0,0.0,1.0697,1.1304,1.15,1.0688,1.0609,1.0285,0.9482,0.9418,0.8813,0.7395,0.0,0.0,0.0,0.0,0.0,0.0,0.0,0.0,0.0,0.0,0.0,0.0,0.0,0.0,0.0,0.0,0.0,0.0,0.0,0.0,0.0,0.0,0.0,0.0,0.0,0.0,0.0,0.0,0.0,0.0,0.0,0.0,0.0,0.0,0.0,0.0,0.0,0.0,0.0,0.0,0.0,0.0,0.0,0.0,0.0,0.0,0.0,0.0,0.0,0.0,0.0,0.0,0.0,0.0,0.0,0.0,0.0,0.0,0.0,0.0,2.1968,0.0,0.0,0.0,0.0,0.0,0.0,0.0,0.0,0.0,0.0,0.0,0.0,0.0,0.0,0.0,0.0,0.0,0.0,0.0,0.0,0.0,0.0,0.0,0.0,0.0,0.0,0.0,0.0,0.0,0.0,0.0,0.0,0.0,0.0,0.0,0.0,0.0,0.0,0.0,0.0,0.0,1.0697,1.1304,1.15,1.0688,1.0609,1.0523,1.0333,1.0317,0.9903,0.8894,0.8786,0.0,0.0,0.0,0.0,0.0,0.0,0.0,0.0,0.0,0.0,0.0,0.0,0.0,0.0,0.0,0.0,0.0,0.0,0.0,0.0,0.0,0.0,0.0,0.0,0.0,0.0,0.0,0.0,0.0,0.0,0.0,0.0,0.0,0.0,0.0,0.0,0.0,0.0,0.0,0.0,0.0,0.0,0.0,0.0,0.0,0.0,0.0,0.0,0.0,0.0,0.0,0.0,0.0,0.0,0.0,0.0,0.0,0.0,0.0,0.0,2.2446,0.0,0.0,0.0,0.0,0.0,0.0,0.0,0.0,0.0,0.0,0.0,0.0,0.0,0.0,0.0,0.0,0.0,0.0,0.0,0.0,0.0,0.0,0.0,0.0,0.0,0.0,0.0,0.0,0.0,0.0,0.0,0.0,0.0,0.0,0.0,0.0,0.0,0.0,0.0,0.0,1.1273,1.1546,1.15,1.0688,1.0609,1.0609,1.0609,1.0609,1.0238,0.9354,0.9306,0.0,0.0,0.0,0.0,0.0,0.0,0.0,0.0,0.0,0.0,0.0,0.0,0.0,0.0,0.0,0.0,0.0,0.0,0.0,0.0,0.0,0.0,0.0,0.0,0.0,0.0,0.0,0.0,0.0,0.0,0.0,0.0,0.0,0.0,0.0,0.0,0.0,0.0,0.0,0.0,0.0,0.0,0.0,0.0,0.0,0.0,0.0,0.0,0.0,0.0,0.0,0.0,0.0,2.4168,2.3921,2.4246,2.3805,2.3595,2.3595,2.3595,2.3268,2.2694,2.2694,0.0,0.0,0.0,0.0,0.0,0.0,0.0,0.0,0.0,0.0,0.0,0.0,0.0,0.0,0.0,0.0,0.0,0.0,0.0,0.0,0.0,0.0,0.0,0.0,1.8461,1.8528,1.7163,0.0,0.0,0.0,0.0,0.0,0.0,0.0,0.0,0.0,0.0,0.0,1.1927,1.1927,1.1655,1.0697,1.0609,1.0609,1.0609,1.0609,1.0285,0.9578,0.953,0.9139,0.0,0.0,0.0,0.0,0.0,0.0,0.0,0.0,0.0,0.0,0.0,0.0,0.0,0.0,0.0,0.0,0.0,0.0,0.0,0.0,0.0,0.0,0.0,0.0,0.0,0.0,0.0,0.0,0.0,0.0,0.0,0.0,2.3095,2.3095,0.0,0.0,0.0,0.0,0.0,0.0,0.0,0.0,0.0,0.0,0.0,0.0,0.0,2.5096,2.5096,2.5012,2.4841,2.4501,2.4359,2.4085,2.3702,2.3627,2.3595,2.3595,2.3595,0.0,2.2694,2.2694,0.0,0.0,0.0,0.0,0.0,0.0,0.0,0.0,0.0,0.0,0.0,0.0,0.0,0.0,0.0,0.0,0.0,0.0,0.0,0.0,0.0,0.0,1.9631,1.9527,1.9579,1.9436,0.0,1.7907,1.7232,1.6496,1.634,0.0,0.0,0.0,0.0,0.0,0.0,0.0,1.1996,1.2405,1.2274,1.076,1.0609,1.0609,1.0609,1.0609,1.0545,1.0444,1.0428,1.004,0.9172,0.9011,0.0,0.0,0.0,0.0,0.0,0.0,0.0,0.0,0.0,0.0,0.0,0.0,0.0,0.0,0.0,0.0,0.0,0.0,0.0,0.0,0.0,0.0,0.0,0.0,0.0,0.0,0.0,0.0,0.0,2.4777,2.4777,2.4777,2.5036,2.5097,0.0,0.0,0.0,0.0,0.0,0.0,0.0,0.0,0.0,2.5652,2.5652,2.5652,2.5652,2.5041,2.495,2.5288,2.4379,2.398,2.4032,2.3745,2.3595,2.3595,2.3595,2.3454,2.3212,2.3212,2.268,2.1835,0.0,0.0,0.0,0.0,2.0358,2.0409,2.0744,2.0645,2.0358,2.0358,0.0,0.0,0.0,0.0,0.0,0.0,0.0,0.0,0.0,0.0,1.9798,1.9798,1.9798,1.9708,1.9397,1.9059,1.8501,0.0,1.6782,1.6407,1.6079,0.0,0.0,0.0,0.0,1.3951,1.3235,1.3061,1.2566,1.1398,1.1273,1.1092,1.064,1.0609,1.0609,1.0609,1.0609,1.0428,1.0047,0.9562,0.8941,0.0,0.0,0.0,0.0,0.0,0.0,0.0,0.0,0.0,0.0,0.0,0.0,0.0,0.0,0.0,0.0,0.0,0.0,0.0,0.0,0.0,0.0,0.0,0.0,0.0,0.0,0.0,0.0,2.6183,2.6183,2.6183,2.6183,2.6024,0.0,0.0,0.0,0.0,0.0,0.0,2.6683,2.6367,2.6183,2.6183,2.6183,2.6129,2.6004,2.5211,2.5076,2.5587,2.4379,2.3938,2.4173,2.3773,2.3595,2.3595,2.3595,2.3595,2.3595,2.3595,2.3143,2.2392,2.1899,2.133,2.0795,2.0795,2.0907,2.1088,2.1544,2.1414,2.1041,2.1041,2.1041,2.0906,2.0245,0.0,0.0,0.0,0.0,2.0295,2.0295,2.0182,2.0067,2.0067,1.9927,1.9798,1.9798,1.9656,1.9189,0.0,1.7288,1.6722,1.6535,0.0,0.0,0.0,0.0,1.4436,1.4228,1.3681,1.3,1.2181,1.1927,1.1562,1.0958,1.0713,1.0609,1.0609,1.0609,1.0609,1.0609,0.9977,0.953,0.9306,0.0,0.0,0.0,0.0,0.0,0.0,0.0,0.0,0.0,0.0,0.0,0.0,0.0,0.0,0.0,0.0,0.0,0.0,0.0,0.0,0.0,0.0,0.0,0.0,0.0,0.0,0.0,0.0,0.0,2.6666,2.6666,0.0,0.0,0.0,0.0,2.6666,2.6666,2.6674,2.67,2.6674,2.6666,2.6666,2.6666,2.6445,2.5997,2.5943,2.5446,2.4481,2.44,2.4116,2.3638,2.3606,2.3595,2.3595,2.3595,2.3595,2.3595,2.3595,2.2879,2.1758,2.1708,2.133,2.0795,2.0795,2.1161,2.1663,2.1685,2.1673,2.1649,2.1649,2.1649,2.1544,2.093,2.1149,0.0,0.0,2.1602,2.1602,2.1602,2.1186,2.0759,2.0759,2.0258,1.9798,1.9798,1.9241,1.8728,0.0,1.8045,1.7316,1.6624,0.0,1.5439,1.541,1.5366,1.5065,1.4302,1.4168,1.3831,1.3039,1.2266,1.1787,1.1741,1.1045,1.0609,1.0609,1.0609,1.0609,1.0609,1.0561,1.0158,0.9322,0.9258,0.0,0.0,0.0,0.0,0.0,0.0,0.0,0.0,0.0,0.0,0.0,0.0,0.0,0.0,0.0,0.0,0.0,0.0,0.0,0.0,0.0,0.0,0.0,0.0,0.0,0.0,0.0,0.0,2.67,2.67,0.0,2.67,2.67,2.67,2.67,2.67,2.67,2.67,2.67,2.67,2.67,2.67,2.647,2.5997,2.5661,2.5125,2.44,2.4053,2.3799,2.3595,2.3595,2.3595,2.3595,2.3595,2.3595,2.3595,2.3595,2.333,2.2891,2.2495,2.2221,2.2023,2.2023,2.2163,2.2334,2.2334,2.2334,2.2334,2.2334,2.1797,2.1149,2.133,2.1257,2.1125,2.1125,2.1125,2.1125,2.1125,2.0646,2.0169,2.0169,1.9978,1.9798,1.9798,1.9592,1.941,1.941,1.8808,1.8219,1.7961,1.7291,1.6645,1.6179,1.569,1.5308,1.5006,1.4977,1.4658,1.3861,1.3522,1.2923,1.1888,1.1546,1.1148,1.0634,1.0609,1.0609,1.0609,1.0609,1.0444,1.0142,1.0142,0.9977,0.0,0.0,0.0,0.0,0.0,0.0,0.0,0.0,0.0,0.0,0.0,0.0,0.0,0.0,0.0,0.0,0.0,0.0,0.0,0.0,0.0,0.0,0.0,0.0,0.0,2.67,2.67,2.67,2.67,2.67,2.67,2.67,2.67,2.67,2.67,2.67,2.67,2.67,2.681,2.7063,2.7072,2.686,2.6442,2.6089,2.5536,2.4794,2.443,2.4268,2.4268,2.4268,2.4268,2.4268,2.4268,2.4268,2.4268,2.4268,2.4268,2.4168,2.3106,2.2694,2.2694,2.2694,2.2819,2.2998,2.2998,2.2998,2.2931,2.2495,2.1939,2.1441,2.1402,2.1257,2.1101,2.1101,2.1101,2.1101,2.1101,2.0621,2.0144,2.0144,1.9965,1.9798,1.9798,1.9798,1.9798,1.9798,1.9202,1.8701,1.8701,1.7882,1.7062,1.6567,1.5864,1.5396,1.5396,1.5396,1.5196,1.4658,1.4362,1.3771,1.2703,1.2104,1.157,1.1045,1.076,1.0609,1.0609,1.0609,1.0609,1.0609,1.0609,1.0609,1.0609,0.0,0.0,0.0,0.0,0.0,0.0,0.0,0.0,0.0,0.0,0.0,0.0,0.0,0.0,0.0,0.0,0.0,0.0,0.0,0.0,0.0,0.0,0.0,2.6766,2.6708,2.6716,2.67,2.6708,2.6716,2.67,2.6716,2.6733,2.6733,2.6767,2.6767,2.6767,2.6767,2.7097,2.7807,2.7841,2.7655,2.7299,2.7305,2.6735,2.5603,2.5603,2.5603,2.5603,2.5603,2.5603,2.5603,2.5603,2.5603,2.5603,2.5603,2.5603,2.541,2.3495,2.2766,2.2766,2.2766,2.3138,2.3622,2.36,2.3589,2.34,2.2189,2.2191,2.2465,2.1241,2.1288,2.1716,2.1702,2.1689,2.1689,2.1675,2.1209,2.0758,2.0758,2.027,1.9798,1.9798,1.9798,1.9798,1.9798,1.9215,1.8728,1.8701,1.7495,1.6535,1.6507,1.5864,0.0,1.5396,1.5396,1.5396,1.5396,1.4702,1.4228,1.4198,1.2771,1.1857,1.1842,1.1076,1.064,1.064,1.0609,1.0609,1.0609,1.0624,1.0624,1.0609,0.0,0.0,0.0,0.0,0.0,0.0,0.0,0.0,0.0,0.0,0.0,0.0,0.0,0.0,0.0,0.0,0.0,0.0,0.0,0.0,0.0,2.747,2.7485,2.6791,2.6955,2.7036,2.6733,2.6963,2.7011,2.6733,2.7173,2.7503,2.7503,2.8044,2.8367,2.8367,2.8367,2.8468,2.8662,2.8679,2.8232,2.7315,2.7305,2.6735,2.5603,2.5603,2.5603,2.5603,2.5603,2.5603,2.5603,2.5603,2.5603,2.5603,2.5603,2.5603,2.5499,2.4423,2.4002,2.4002,2.4002,2.411,2.4182,2.3645,2.3461,2.3486,2.367,2.3163,2.2529,2.2762,2.2543,2.2139,2.1738,2.1631,2.1537,2.1148,2.0559,2.0067,2.0067,1.9927,1.9798,1.9798,1.9798,1.9798,1.9798,1.9643,1.932,1.8794,1.792,1.7118,1.6581,1.5864,0.0,1.5396,1.5396,1.5396,1.5396,1.5196,1.482,1.4258,1.3786,1.328,1.2711,1.1919,1.1469,1.1469,1.0911,1.0609,1.0609,1.1163,1.1179,0.0,0.0,0.0,0.0,0.0,0.0,0.0,0.0,0.0,0.0,0.0,0.0,0.0,0.0,0.0,0.0,0.0,0.0,0.0,0.0,0.0,0.0,2.751,2.7531,2.7207,2.7241,2.733,2.7399,2.7466,2.7545,2.7656,2.8044,2.8289,2.8289,2.8747,2.8993,2.8993,2.8993,2.9036,2.908,2.9329,2.893,2.7804,2.8045,2.7581,2.645,2.645,2.645,2.645,2.645,2.645,2.645,2.645,2.645,2.645,2.645,2.645,0.0,0.0,0.0,0.0,0.0,2.4294,2.3967,2.3547,2.3393,2.3418,2.3573,2.3081,2.243,2.2658,2.2389,2.1957,2.1649,2.1559,2.1495,2.1172,2.0793,2.0514,2.0514,2.0514,2.0514,2.0514,2.0514,2.0514,2.0514,2.0514,0.0,1.9544,1.84,1.7454,1.7034,1.6069,1.5396,1.5396,1.5396,1.5396,1.5396,1.5396,1.5211,1.4732,1.4392,0.0,0.0,0.0,1.1648,1.132,1.1163,0.0,0.0,0.0,1.1748,1.16,0.0,0.0,0.0,1.1264,1.1344,0.0,0.0,0.0,0.0,0.0,0.0,0.0,0.0,0.0,0.0,0.0,0.0,0.0,0.0,0.0,0.0,2.7533,2.7717,2.8015,2.777,2.7774,2.8393,2.8194,2.8258,2.8925,2.9077,2.9128,2.9128,2.9196,2.9247,2.9247,0.0,0.0,0.0,0.0,2.9698,2.8603,2.9123,2.8787,2.76,2.76,2.76,2.76,2.76,2.76,2.76,2.76,2.76,2.76,2.76,2.7547,2.7289,2.5444,2.5131,2.561,2.4784,2.4179,2.3715,2.3454,0.0,0.0,2.2924,2.2681,2.2559,2.2174,2.1951,2.1797,2.1734,2.1708,2.1696,2.1633,2.155,2.1521,2.1606,2.155,2.1507,2.1507,2.1507,2.1507,2.1507,2.1507,2.1299,2.0636,1.9064,1.7856,1.7676,1.6528,1.5659,1.5557,1.5518,1.5488,1.5488,0.0,0.0,1.5396,1.4756,1.4347,1.4347,1.2916,1.1717,1.0902,1.164,1.2027,1.1942,1.2012,1.2389,1.2993,1.1577,1.16,1.2978,1.2166,1.1896,0.0,0.0,0.0,0.0,0.0,0.0,0.0,0.0,0.0,0.0,0.0,0.0,0.0,0.0,0.0,2.8189,2.8957,2.9585,2.9647,2.9316,2.9024,2.89,2.905,2.9128,2.9012,2.9542,2.9888,2.9888,3.0446,3.0777,3.0777,3.0777,3.0779,3.0816,3.0922,3.0416,2.9237,2.9339,2.8787,2.76,0.0,0.0,2.76,2.76,2.76,2.76,2.76,2.76,2.76,2.76,2.7255,2.6666,2.6276,2.6201,2.6162,2.4833,2.4998,2.5646,2.3794,2.3965,2.4984,2.4861,2.4416,2.4121,2.5202,2.4695,0.0,2.3173,2.3029,2.2938,2.2494,2.1953,2.1648,2.2254,2.1926,2.1507,2.1507,2.1507,2.1507,2.1507,2.1507,2.1453,2.1313,2.0483,1.9414,1.8117,1.7692,1.7246,1.6537,1.6162,1.5968,1.5968,1.564,1.5396,1.5396,1.5264,1.5177,1.5177,1.4264,1.3371,1.2566,1.3304,1.3425,1.2772,1.341,1.3485,1.2993,1.2688,1.2704,1.2978,1.2166,1.2504,0.0,0.0,0.0,0.0,0.0,0.0,0.0,0.0,0.0,0.0,0.0,2.7903,2.8066,0.0,2.8759,2.891,2.9297,2.9678,3.0058,2.9918,2.9811,2.9811,2.9793,2.9874,3.0078,3.0429,3.0649,3.0649,3.0987,3.12,3.12,3.12,3.1055,3.0767,3.1035,3.0477,2.895,2.9248,2.8787,2.76,2.76,2.76,2.76,2.76,2.76,2.76,2.76,2.76,2.76,2.76,2.7382,2.7047,2.7047,2.6602,2.5906,2.5536,2.5632,2.5783,2.4653,2.4767,2.5398,2.5398,2.5147,2.4979,2.5728,2.5425,2.4798,2.4501,2.4392,2.4242,2.3613,2.3183,2.2899,2.2859,2.2571,2.2295,2.2295,2.2295,2.2295,2.2295,2.2295,2.2295,2.2295,2.2005,2.1166,1.9458,1.8523,1.7842,1.7404,1.6788,1.6396,1.6396,1.6021,1.5747,1.5747,1.5537,1.5235,1.483,1.4421,1.3831,1.3039,1.3771,1.401,1.3614,1.3995,1.4198,1.4198,1.3394,1.341,1.4183,1.3386,1.3431,0.0,0.0,0.0,0.0,0.0,0.0,0.0,2.8993,2.8993,2.8993,2.8993,2.9084,2.9351,2.9303,2.9305,2.9575,2.9516,2.9627,3.0226,3.0301,3.04,3.0684,3.0477,3.0548,3.114,3.12,3.12,3.12,3.12,3.12,3.12,3.12,3.0985,3.0487,3.0955,3.0393,2.8685,2.9157,2.8787,2.76,2.76,2.76,2.76,2.76,2.76,2.76,2.76,2.76,2.76,2.76,2.76,2.76,2.76,2.6877,2.5878,2.6323,2.6216,2.5796,2.5495,2.5591,2.581,2.566,2.5605,2.5632,2.5783,2.5728,2.5605,2.5605,2.5605,2.5481,2.4879,2.4624,2.4351,2.3708,2.3439,2.329,2.3138,2.3108,2.3108,2.3108,2.3108,2.3108,2.3108,2.3108,2.2556,2.0939,1.9584,1.8636,1.8306,1.7556,1.7005,1.6855,1.6465,1.6183,1.612,1.5757,1.5209,1.4481,1.4436,1.413,1.3485,1.4094,1.4436,1.4436,1.4436,1.4746,1.5396,1.41,1.413,1.5381,1.4732,1.4436,2.7503,2.8197,2.8756,2.8857,2.8874,2.8891,0.0,2.8993,2.8993,2.8993,2.8993,2.9011,2.9056,2.9553,2.9982,3.0029,3.0552,3.098,3.1072,3.1082,3.1092,3.1133,3.1094,3.1116,3.119,3.12,3.12,3.12,3.12,3.12,3.12,3.12,3.1171,3.1095,3.1161,3.058,2.9305,2.9361,2.8787,2.76,2.76,2.76,2.76,2.76,2.76,2.76,2.76,2.76,2.76,2.76,2.76,2.76,2.76,2.7496,2.7278,2.6708,2.6865,2.7176,2.585,2.6269,2.7255,2.6588,2.6391,2.651,2.7163,2.6904,2.6391,2.6391,2.6391,2.635,2.627,2.5769,2.5259,2.5161,2.4652,2.3972,2.3245,2.3108,2.3108,2.3108,2.3108,2.3108,2.3108,2.3108,2.2801,2.1861,2.1575,2.0908,1.9354,1.8704,1.8112,1.7403,1.6908,1.6479,1.6124,1.6046,1.5815,1.5298,1.5264,1.5235,1.5138,1.522,1.5264,1.5264,1.5264,1.5308,1.5396,1.522,1.522,1.5396,1.5308,1.5264,2.8281,2.8747,2.9102,2.9533,2.9634,2.9753,3.0185,3.0287,3.0287,3.0287,3.0287,3.0287,3.0287,3.0531,3.0734,3.0734,3.1004,3.12,3.12,3.12,3.12,3.12,3.12,3.12,3.12,3.12,3.12,3.12,3.12,3.12,3.12,3.12,3.12,3.12,3.12,3.0797,2.9924,2.9574,2.8962,2.8116,2.776,2.76,2.76,2.76,2.76,2.76,2.76,2.76,2.76,2.76,2.76,2.76,2.76,2.76,2.7547,2.7255,2.7331,2.7509,2.689,2.7071,2.7549,2.7242,2.7137,2.7203,2.7511,2.7382,2.7137,2.7137,2.7137,2.7034,2.6616,2.627,2.5933,2.5495,2.5161,2.4852,2.451,2.4105,2.3796,2.3796,2.3424,2.3108,2.3108,2.3108,2.2987,2.2656,2.2199,2.1643,2.091,2.0204,1.9527,1.8924,1.8227,1.7639,1.7241,1.673,1.6269,1.5835,1.5806,1.5674,1.5405,1.5396,1.5396,1.5396,1.5396,1.5396,1.5396,1.5396,1.5396,1.5396,1.5396,1.5396,2.9153,2.945,2.9728,3.0277,3.0403,3.0548,3.1082,3.12,3.12,3.12,3.12,3.12,3.12,3.1291,3.1322,3.122,3.13,3.1322,3.122,3.12,3.12,3.12,3.12,3.12,3.12,3.12,3.12,3.12,3.12,3.12,3.12,3.12,3.12,3.12,3.12,3.0908,3.0303,2.9706,2.9104,2.8487,2.7897,2.76,2.76,2.76,2.76,2.76,2.76,2.76,2.76,2.76,2.76,2.76,2.76,2.76,2.76,2.76,2.76,2.76,2.76,2.76,2.76,2.76,2.76,2.76,2.76,2.76,2.76,2.76,2.76,2.7471,2.6943,2.68,2.6629,2.5878,2.5701,2.5646,2.5439,2.4979,2.4538,2.435,2.3826,2.3365,2.314,2.3108,2.3108,2.3108,2.2598,2.2141,2.1924,2.1144,2.0472,2.0133,1.9534,1.8987,1.8562,1.7728,1.7045,1.6657,1.6393,1.6151,1.5914,1.5894,1.5936,1.6011,1.5806,1.569,1.569,1.5497,1.5396,1.5396,1.5537,1.5586,3.0065,3.0581,3.1149,3.1157,3.1166,3.1166,3.119,3.12,3.12,3.12,3.12,3.12,3.12,3.1517,3.165,3.1261,3.1536,3.1641,3.1252,3.12,3.12,3.12,3.12,3.12,3.12,3.12,3.12,3.12,3.12,3.12,3.12,3.12,3.12,3.12,3.12,3.0908,3.0303,2.9706,2.9104,2.8487,2.7897,2.76,2.76,2.76,2.76,2.76,2.76,2.76,2.76,2.76,2.76,2.76,2.76,2.76,2.76,2.76,2.76,2.76,2.76,2.76,2.76,2.76,2.76,2.76,2.76,2.76,2.76,2.76,2.76,2.76,2.7575,2.7575,2.7382,2.6642,2.647,2.627,2.555,2.5384,2.5161,2.4437,2.4278,2.4016,2.323,2.3108,2.3108,2.3108,2.3078,2.2778,2.2002,2.1144,2.0579,2.0584,2.0552,2.0351,1.9878,1.9049,1.837,1.7965,1.7145,1.6815,1.7124,1.7158,1.7276,1.7534,1.6824,1.6478,1.6454,1.5748,1.5396,1.5405,1.588,1.6075,3.0835,3.1004,3.12,3.12,3.12,3.12,3.12,3.12,3.12,3.12,3.12,3.12,3.12,3.132,3.1361,3.122,3.1303,3.1351,3.122,3.12,3.12,3.12,3.12,3.12,3.12,3.12,3.12,3.12,3.12,3.12,3.12,3.12,3.12,3.12,3.12,3.1095,3.0898,3.0293,2.9695,2.9088,2.8076,2.76,2.76,2.76,2.76,2.76,2.76,2.76,2.76,2.76,2.76,2.76,2.76,2.76,2.76,2.76,2.76,2.76,2.76,2.76,2.76,2.76,2.76,2.76,2.76,2.76,2.76,2.76,2.76,2.76,2.76,2.76,2.7549,2.7293,2.7242,2.7163,2.6916,2.6483,2.6068,2.581,2.5356,2.4937,2.4667,2.4625,2.4453,2.3972,2.3439,2.299,2.2732,2.2433,2.2264,2.2264,2.1788,2.1405,2.1245,2.0439,1.9737,1.93,1.8989,1.8741,1.8603,1.8592,1.8637,1.8731,1.8485,1.8353,1.8353,1.8108,1.769,1.7132,1.7297,1.7057,3.12,3.12,3.12,3.12,3.12,3.12,3.12,3.12,3.12,3.12,3.12,3.12,3.12,3.1329,3.137,3.122,3.1312,3.1361,3.122,3.12,3.12,3.12,3.12,3.12,3.12,3.12,3.12,3.12,3.1437,3.1589,3.1589,3.1843,3.1985,3.1985,3.1985,3.1985,3.1985,3.1133,3.0152,2.9081,2.8295,2.781,2.76,2.76,2.76,2.76,2.76,2.76,2.76,2.76,2.76,2.76,2.76,2.76,2.76,2.76,2.76,2.76,2.76,2.76,2.76,2.76,2.76,2.76,2.76,2.76,2.76,2.76,2.76,2.76,2.76,2.76,2.76,2.76,2.76,2.76,2.76,2.7229,2.6813,2.655,2.6122,2.5701,2.5453,2.5398,2.5231,2.4766,2.425,2.3725,2.317,2.3108,2.3108,2.3108,2.2641,2.2338,2.2338,2.1553,2.0931,2.063,2.0312,2.0081,1.9913,1.9905,1.9958,2.0076,1.9828,1.9685,1.9685,1.9431,1.9004,1.8473,1.8605,1.8382,3.12,3.12,3.12,3.12,3.12,3.12,3.12,3.12,3.12,3.12,3.12,3.12,3.12,3.1517,3.1641,3.1252,3.1526,3.1649,3.1252,3.12,3.12,3.12,3.12,3.12,3.12,3.1224,3.1268,3.1268,3.1904,3.2327,3.2344,3.3017,3.3396,3.3396,3.3396,3.3396,3.3396,3.2069,3.0469,2.8641,2.855,2.8201,2.765,2.7597,2.76,2.76,2.76,2.76,2.76,2.76,2.76,2.76,2.76,2.76,2.76,2.76,2.76,2.76,2.76,2.76,2.76,2.76,2.76,2.76,2.76,2.76,2.76,2.76,2.76,2.76,2.76,2.76,2.76,2.76,2.76,2.76,2.76,2.76,2.7382,2.6695,2.6563,2.6323,2.5632,2.5508,2.5495,2.5453,2.5453,2.4909,2.3412,2.317,2.3155,2.3155,2.3123,2.3108,2.3108,2.2399,2.1955,2.1955,2.1191,2.0835,2.1098,2.1104,2.126,2.1581,2.0893,2.0536,2.0536,1.9839,1.947,1.9436,1.9825,1.9978,3.12,3.12,3.12,3.12,3.12,3.12,3.12,3.12,3.12,3.12,3.12,3.12,3.12,3.1281,3.1312,3.122,3.1291,3.1329,3.121,3.12,3.12,3.12,3.12,3.12,3.12,3.1691,3.2022,3.2022,3.2192,3.2547,3.3085,3.3305,3.3396,3.3396,3.3396,3.3396,3.3396,3.2069,3.115,3.0634,2.919,2.8415,2.8262,2.7798,2.76,2.76,2.76,2.76,2.76,2.76,2.76,2.76,2.76,2.76,2.76,2.76,2.76,2.76,2.76,2.76,2.76,2.76,2.76,2.76,2.76,2.76,2.76,2.76,2.76,2.76,2.76,2.76,2.76,2.76,2.76,2.76,2.76,2.76,2.7534,2.7357,2.7318,2.7267,2.7058,2.7047,2.685,2.6296,2.6216,2.5878,2.4923,2.4337,2.3987,2.3987,2.3469,2.3108,2.3108,2.2914,2.2793,2.2793,2.2598,2.2494,2.2567,2.2555,2.2598,2.2694,2.2506,2.2417,2.2417,2.2211,2.1819,2.1243,2.1342,2.1042,3.12,3.12,3.12,3.12,3.12,3.12,3.12,3.12,3.12,3.12,3.12,3.12,3.12,3.1341,3.1451,3.1451,3.1451,3.1451,3.1451,3.132,3.12,3.12,3.12,3.12,3.12,3.187,3.2418,3.2757,3.3078,3.3451,3.3863,3.419,3.4376,3.4376,3.4376,3.4207,3.3897,3.3135,3.2297,3.1391,3.0292,2.9454,2.8873,2.8271,2.7993,2.7981,0.0,2.7748,2.7993,2.7993,2.8149,2.8364,2.8104,2.8149,2.8328,2.7798,2.776,2.7993,2.7993,2.7823,2.76,2.76,2.76,2.76,2.76,2.76,2.76,2.76,2.76,2.76,2.76,2.76,2.76,2.76,2.76,2.76,2.76,2.76,2.76,2.76,2.76,2.76,2.76,2.76,2.7458,2.7049,2.6982,2.6824,2.6415,2.5439,2.478,2.478,2.438,2.4106,2.4106,2.4106,2.4106,2.4106,2.3811,2.3632,2.3632,2.329,2.3108,2.3108,2.3108,2.3108,2.3108,2.3108,2.2869,2.243,2.243,2.2156,3.12,3.12,3.12,3.12,3.12,3.12,3.12,3.12,3.12,3.12,3.12,3.12,3.12,3.1536,3.1789,3.1742,3.1771,3.1789,3.1742,3.142,3.12,3.12,3.12,3.12,3.12,3.1962,3.2706,3.3345,3.4167,3.4652,3.4652,3.5256,3.56,3.56,3.56,3.5289,3.4641,3.455,3.3597,3.1807,3.1533,3.0789,2.9635,2.8939,2.8618,2.8594,2.8067,2.8152,2.8618,2.8618,2.8931,2.935,2.8826,2.8943,2.9271,2.8219,2.8161,2.8618,2.8618,2.8283,2.7835,2.7748,2.771,2.7698,2.7625,2.7663,2.7698,2.7625,2.76,2.76,2.76,2.76,2.76,2.76,2.76,2.76,2.76,2.76,2.76,2.76,2.76,2.76,2.76,2.76,2.76,2.76,2.76,2.76,2.76,2.6402,2.555,2.555,2.5453,2.5398,2.5398,2.5398,2.5398,2.5398,2.4809,2.4408,2.4307,2.3619,2.32,2.3108,2.3108,2.3108,2.3108,2.3108,2.3108,2.3108,2.3108,2.3108,3.12,3.12,3.12,3.12,3.12,3.12,3.12,3.12,3.12,3.12,3.12,3.12,3.12,3.1536,3.1696,3.1361,3.1584,3.1687,3.1351,3.1232,3.12,3.12,3.12,3.12,3.12,3.2408,3.3271,3.3379,3.4647,3.5408,3.5408,3.5532,3.56,3.56,3.56,3.5532,3.5408,3.4793,3.4321,3.3936,3.2225,3.127,3.1002,2.9797,2.9237,2.9237,2.9134,0.0,2.9237,2.9237,2.9305,2.9384,2.9282,2.9305,2.9372,2.9168,2.9146,2.9237,2.9237,2.918,2.9008,2.8511,2.8331,2.8262,2.7748,2.7959,2.825,2.7735,2.76,2.76,2.76,2.76,2.76,2.76,2.76,2.76,2.76,2.76,2.76,2.76,2.76,2.76,2.76,2.76,2.76,2.76,2.76,2.76,2.76,2.6837,2.631,2.631,2.5755,2.5398,2.5398,2.5398,2.5398,2.5398,2.5273,2.4937,2.4336,2.4176,2.3782,2.3108,2.3108,2.3108,2.3108,2.3108,2.3108,2.3108,2.3108,2.3108,3.12,3.12,3.12,3.12,3.12,3.1252,3.146,3.1351,3.1329,3.1778,3.1677,3.1592,3.1832,3.203,3.21,3.1914,3.1842,3.1725,3.1545,3.1332,3.12,3.12,3.12,3.12,3.12,3.2527,3.3396,3.3396,3.4782,3.56,3.56,3.56,3.56,3.56,3.56,3.56,3.56,3.5256,3.4878,3.4472,3.31,3.2235,3.1823,3.0478,2.987,2.9848,2.954,2.9585,2.987,2.987,3.0059,3.0303,2.9995,3.0059,3.0251,2.9629,2.9596,2.987,2.987,2.9662,2.9406,2.9429,2.9225,2.8861,2.8247,2.8274,2.8367,2.7773,2.76,2.76,2.76,2.76,2.76,2.76,2.76,2.76,2.76,2.76,2.76,2.76,2.76,2.76,2.76,2.76,2.76,2.76,2.76,2.76,2.76,2.7293,2.706,2.706,2.6759,2.6534,2.6534,2.6534,2.6534,2.6534,2.6175,2.581,2.5453,2.5077,2.4509,2.3738,2.3723,2.3529,2.3108,2.3108,2.3108,2.3108,2.3108,2.3108,3.12,3.12,3.12,3.12,3.12,3.1281,3.1603,3.143,3.1418,3.2187,3.2065,3.1933,3.2417,3.2501,3.2467,3.2375,3.203,3.1771,3.1687,3.1391,3.12,3.12,3.12,3.12,3.12,3.2527,3.3396,3.3396,3.4782,3.56,3.56,3.56,3.56,3.56,3.56,3.56,3.56,3.56,3.5306,3.4726,3.3829,3.3102,3.2493,3.112,3.0487,3.0466,2.9995,3.0043,0.0,3.0487,3.076,3.1151,3.0679,3.0771,3.1092,3.0134,3.0091,3.0487,3.0487,3.0187,2.9859,3.0335,3.0075,2.9485,2.8873,2.8779,2.8768,2.8161,2.7993,2.7993,2.7993,2.7882,2.776,2.7638,2.7698,2.776,2.7638,2.7698,2.7748,2.7625,2.76,2.76,2.76,2.76,2.76,2.76,2.76,2.76,2.76,2.76,2.76,2.76,2.76,2.76,2.76,2.76,2.76,2.76,2.706,2.6669,2.651,2.5946,2.5287,2.4552,2.4538,2.4221,2.359,2.359,2.359,2.359,2.359,2.3501,3.12,3.12,3.12,3.12,3.12,3.121,3.1259,3.123,3.1339,3.1771,3.1834,3.1933,3.2417,3.2501,3.2367,3.1924,3.1834,3.1669,3.131,3.122,3.12,3.12,3.12,3.12,3.12,3.2527,3.3396,3.3396,3.4782,3.56,3.56,3.56,3.56,3.56,3.56,3.56,3.56,3.56,3.5566,3.5481,3.4072,3.3362,3.3243,3.1783,3.1121,3.1105,3.1055,3.1065,0.0,3.1121,3.1151,3.119,3.1141,3.1151,3.1181,3.1092,3.1065,3.1121,3.1121,3.1075,3.1035,3.1102,3.0709,3.0096,2.9496,2.9695,3.0016,2.9406,2.9237,2.9237,2.9237,2.8826,2.8271,2.7723,2.8018,2.8274,2.771,2.803,2.8262,2.7698,2.76,2.76,2.76,2.76,2.76,2.76,2.76,2.76,2.76,2.76,2.76,2.76,2.76,2.76,2.76,2.76,2.76,2.76,2.7549,2.7203,2.6537,2.6431,2.6055,2.5315,2.5301,2.5259,2.5189,2.5189,2.5189,2.5189,2.5189,2.4824,3.12,3.12,3.12,3.12,3.12,3.1261,3.1507,3.1363,3.1389,3.2083,3.2213,3.229,3.2467,3.2501,3.235,3.1888,3.1603,3.1372,3.122,3.12,3.12,3.12,3.12,3.12,3.12,3.2131,3.3112,3.3998,3.5019,3.56,3.56,3.56,3.56,3.56,3.56,3.56,3.56,3.56,3.56,3.5583,3.4556,3.3829,3.3362,3.2334,3.1623,3.12,3.12,3.12,0.0,3.12,3.12,3.12,3.12,3.12,3.12,3.12,3.12,3.12,3.12,3.12,3.12,3.12,3.1035,3.073,3.0123,3.0113,3.0177,2.9574,2.9395,2.9395,2.9395,2.9214,2.8973,2.874,2.8869,2.8989,2.8744,2.8869,2.8962,2.8729,2.8391,2.8259,2.8626,2.8076,2.771,2.8091,2.7835,2.76,2.76,2.76,2.76,2.76,2.76,2.76,2.76,2.76,2.76,2.76,2.76,2.7471,2.7163,2.7165,2.6826,2.6082,2.6068,2.5837,2.5398,2.5398,2.5398,2.5398,2.5398,2.5231,3.12,3.12,3.12,3.12,3.12,3.1271,3.1556,3.1498,3.1592,3.2341,3.2608,3.2745,3.2864,3.2785,3.2608,3.2273,3.1733,3.138,3.138,3.1281,3.12,3.12,3.12,3.12,3.12,3.2063,3.3146,3.4415,3.5171,3.56,3.56,3.56,3.56,3.56,3.56,3.56,3.56,3.56,3.56,3.5583,3.4844,3.4117,3.3362,3.2638,3.1904,3.12,3.12,3.12,0.0,3.12,3.12,3.12,3.12,3.12,3.12,3.12,3.12,3.12,3.12,3.12,3.12,3.12,3.12,3.1131,3.0699,3.0576,3.0477,3.0059,2.9924,2.9881,2.9706,2.9662,2.9618,2.944,2.954,2.9618,2.944,2.954,2.9618,2.9429,2.907,2.8908,2.9327,2.8693,2.8283,2.8697,2.84,2.8137,2.8137,2.7981,2.7872,2.7872,2.7872,2.7798,2.7625,2.76,2.76,2.76,2.76,2.76,2.76,2.76,2.7357,2.6839,2.6826,2.6575,2.6054,2.6054,2.6054,2.6054,2.6054,2.5932,3.12,3.12,3.12,3.12,3.12,3.12,3.12,3.1517,3.1933,3.2401,3.2874,3.331,3.3714,3.3465,3.3191,3.3191,3.2408,3.178,3.178,3.1458,3.12,3.12,3.12,3.12,3.12,3.2527,3.3694,3.4449,3.5171,0.0,3.56,3.56,3.56,3.56,3.56,3.56,3.56,3.56,3.56,3.5583,3.4844,3.4117,3.3362,3.2638,3.1904,3.12,3.12,3.12,0.0,3.12,3.12,3.12,3.12,3.12,3.12,3.12,3.12,3.12,3.12,3.12,3.12,3.12,3.12,3.12,3.119,3.119,3.1181,3.1181,3.1181,3.1035,3.0445,3.0282,3.0145,2.954,2.9859,3.0134,2.9529,2.987,3.0113,2.9518,2.9395,2.9395,2.9395,2.9395,2.9384,2.9395,2.9384,2.9384,2.9384,2.8861,2.8487,2.8487,2.8487,2.8262,2.7648,2.76,2.76,2.76,2.76,2.76,2.76,2.76,2.76,2.76,2.76,2.7587,2.7587,2.7587,2.7587,2.7587,2.7587,2.719,3.1621,3.1621,3.1537,3.1261,3.1401,3.1621,3.1621,3.195,3.2324,3.2467,3.2864,3.3136,3.2942,3.3075,3.2999,3.2349,3.2256,3.2179,3.1852,3.1968,3.2092,3.2092,3.2092,3.1959,3.1649,3.3269,3.4189,3.3781,3.5235,3.5996,3.5622,3.56,3.56,3.56,3.56,3.56,3.56,3.56,3.56,3.56,3.5357,3.4596,3.3379,3.3169,3.2374,3.12,3.12,3.12,0.0,3.12,3.12,3.12,3.12,3.12,3.12,3.12,3.12,3.12,3.12,3.12,3.12,3.12,3.12,3.12,3.12,3.12,3.12,3.12,3.12,3.1161,3.0948,3.0908,3.0868,3.0679,3.0787,3.0858,3.0679,3.0787,3.0858,3.0669,3.0293,3.0155,3.0566,2.9962,2.954,2.9946,2.9662,2.9395,2.9395,2.9225,2.9111,2.9111,2.9111,2.8873,2.8274,2.8225,2.8225,2.8225,2.7835,2.76,2.76,2.76,2.76,2.76,2.76,2.76,2.76,2.76,2.76,2.76,2.76,2.7471,3.2109,3.1924,3.178,3.1704,3.1878,3.2057,3.2057,3.2434,3.2761,3.2761,3.3121,3.3339,3.3042,3.3225,3.3233,3.2653,3.2671,3.2665,3.2374,3.2434,3.2501,3.2501,3.2501,3.2392,3.2083,3.3715,3.4475,3.3724,3.5363,3.6171,3.5633,3.56,3.56,3.56,3.56,3.56,3.56,3.56,3.56,3.56,3.56,3.4968,3.3812,3.3541,3.2747,3.1606,3.1319,3.12,0.0,3.12,3.12,3.12,3.12,3.12,3.12,3.12,3.12,3.12,3.12,3.12,3.12,3.12,3.12,3.12,3.12,3.12,3.12,3.12,3.12,3.12,3.12,3.12,3.12,3.12,3.12,3.12,3.12,3.12,3.12,3.12,3.0898,3.0767,3.1141,3.0586,3.0208,3.057,3.0314,3.0081,3.0081,2.987,2.9739,2.9739,2.9739,2.9585,2.9214,2.8977,2.8838,2.8838,2.8484,2.8186,2.7944,2.7947,2.7835,2.7597,2.76,2.76,2.76,2.76,2.76,2.76,2.76,2.76,0.0,3.2247,3.1995,3.2401,3.2526,3.255,3.255,3.2921,0.0,3.3243,3.3536,3.3807,3.3807,3.3807,3.3782,3.3755,3.3473,3.3236,3.3206,3.284,3.2599,3.2599,3.2599,3.2583,3.255,3.3975,3.4702,3.4195,3.561,3.6249,3.5683,3.5667,3.5644,3.56,3.56,3.56,3.56,3.56,3.56,3.56,3.56,3.5205,3.4472,3.3744,3.3011,0.0,3.1522,3.12,0.0,3.12,3.12,3.12,3.12,3.122,3.1232,3.1232,3.1232,3.1232,3.1232,3.123,3.12,3.12,3.12,3.12,3.12,3.12,3.12,3.12,3.12,3.12,3.12,3.12,3.12,3.12,3.12,3.12,3.12,3.12,3.12,3.12,3.12,3.12,3.12,3.12,3.12,3.12,3.12,3.12,3.12,3.0709,3.0356,3.0356,3.0356,3.0356,3.0356,2.9805,2.9462,2.9462,2.9417,2.9146,2.8594,2.8559,2.8295,2.7735,2.7685,2.766,2.766,2.7625,2.76,2.76,2.76,2.76,3.344,0.0,3.2817,3.2567,3.2769,3.3037,0.0,3.3361,3.3666,3.3666,3.3734,3.3807,3.3807,3.3807,3.37,3.3383,3.3522,3.355,3.3243,3.3368,3.349,3.349,3.349,3.3364,3.3068,3.4807,3.558,3.4694,3.6452,3.7155,3.6249,3.6214,3.6011,3.5622,3.56,3.56,3.56,3.56,3.56,3.56,3.56,3.5205,3.4472,3.3744,3.3011,3.2259,3.1522,0.0,3.12,3.12,3.12,3.12,3.12,3.1399,3.166,3.166,3.166,3.166,3.166,3.1468,3.12,3.12,3.12,3.12,3.12,3.12,3.12,3.12,3.12,3.12,3.12,3.12,3.12,3.12,3.12,3.12,3.12,3.12,3.12,3.12,3.12,3.12,3.12,3.12,3.12,3.12,3.12,3.12,3.12,3.1092,3.0995,3.0995,3.0995,3.0995,3.0995,3.0445,3.0091,3.0091,2.9662,2.9339,2.9191,2.918,2.9123,2.8985,2.8519,2.8298,2.8298,2.7835,2.76,2.76,2.76,2.76,3.3734,3.3508,3.3191,3.3103,3.3284,3.348,3.348,3.3634,3.3807,3.3807,3.3807,3.3807,3.3807,3.3807,3.3728,3.3508,3.3666,3.3721,3.3508,3.3666,3.3807,3.3807,3.3807,3.3714,3.3501,3.5187,3.5979,3.5181,3.6856,3.7578,3.6813,3.6539,3.6277,3.5985,3.5728,3.5717,3.5963,3.5974,3.5974,3.5974,3.5974,3.5639,3.4979,3.3886,3.3186,3.274,3.1674,0.0,3.1487,3.1487,3.161,3.1786,3.1564,3.1733,3.2109,3.1888,3.1807,3.1807,3.1807,3.1545,3.12,3.12,3.12,3.12,3.12,3.12,3.12,3.12,3.12,3.12,3.12,3.12,3.12,3.12,3.12,3.12,3.12,3.12,3.12,3.12,3.12,3.12,3.12,3.12,3.12,3.12,3.12,3.12,3.12,3.12,3.12,3.12,3.12,3.12,3.12,3.0898,3.0709,3.0709,3.0414,3.0102,2.9816,2.9816,2.9684,2.9406,2.8803,2.8642,2.8908,2.803,2.7735,2.8005,2.7723,2.76,3.3807,3.355,3.3368,3.3714,3.3807,3.3807,3.3807,3.3807,3.3807,3.3807,3.3807,3.3807,3.3807,3.3807,3.3807,3.3807,3.3807,3.3807,3.3807,3.3807,3.3807,3.3807,3.3807,3.3807,3.3807,3.5312,3.6102,3.5661,3.7101,3.7799,3.7323,3.6874,3.6552,3.6395,3.5963,3.5941,3.6412,3.6395,3.6395,3.6395,3.6488,3.6228,3.5666,3.4194,3.348,3.3311,0.0,0.0,3.1798,3.1725,3.2021,3.2459,3.1977,3.2127,3.2558,3.2161,3.2013,3.1995,3.1861,3.1545,3.12,3.12,3.12,3.12,3.12,3.12,3.12,3.12,3.12,3.12,3.12,3.12,3.12,3.12,3.12,3.12,3.12,3.12,3.12,3.12,3.12,3.12,3.12,3.12,3.12,3.12,3.12,3.12,3.12,3.12,3.12,3.12,3.12,3.12,3.12,3.12,3.12,3.12,3.12,3.0975,3.0456,3.0445,3.0198,2.9684,2.9077,2.9035,2.9529,2.8424,2.8152,2.863,2.8018,2.7735,3.3807,3.3748,3.3721,3.3775,3.3807,3.3807,3.3807,3.3807,3.3807,3.3807,3.3807,3.3807,3.3807,3.3807,3.3807,3.3807,3.3807,3.3807,3.3807,3.3807,3.3807,3.3807,3.3807,3.3807,3.3807,3.5312,3.6263,3.6179,3.768,3.835,3.7816,3.772,3.7277,3.6426,3.6312,3.6329,3.6395,3.6395,3.6395,3.6423,3.6862,3.6803,3.6236,3.4757,3.3835,3.3311,0.0,3.143,3.1771,3.143,3.1769,3.2459,3.1977,3.2332,3.3075,3.3014,3.2991,3.2872,3.2074,3.1545,3.12,3.12,3.12,3.12,3.12,3.12,3.12,3.12,3.12,3.12,3.12,3.12,3.12,3.12,3.12,3.12,3.12,3.12,3.12,3.12,3.12,3.12,3.12,3.12,3.12,3.12,3.12,3.12,3.12,3.12,3.12,3.12,3.12,3.12,3.12,3.12,3.12,3.12,3.12,3.1161,3.1065,3.1055,3.1025,3.0935,3.0341,3.0081,3.0166,2.9462,2.9168,2.9248,2.8638,2.8355,3.3807,3.3807,3.3807,3.3807,3.3807,3.3807,3.3807,3.3807,3.3807,3.3807,3.3807,3.3807,3.3807,3.3807,3.3807,3.3807,3.3807,3.3807,3.3807,3.3807,3.3807,3.3807,3.3807,3.3807,3.3807,3.5312,3.631,3.631,3.779,3.8585,3.835,3.8057,3.7694,3.7221,3.6684,3.6549,3.6833,3.6833,3.6833,3.6843,3.7341,3.7323,3.678,3.5006,3.4066,3.3739,0.0,3.143,3.1789,3.1603,3.2057,3.2825,3.2358,3.2727,3.3501,3.328,3.3037,3.2721,3.2039,3.1545,3.12,3.12,3.12,3.12,3.12,3.12,3.12,3.12,3.12,3.12,3.12,3.12,3.12,3.12,3.12,3.12,3.12,3.12,3.12,3.12,3.12,3.12,3.12,3.12,3.12,3.12,3.12,3.12,3.12,3.12,3.12,3.12,3.12,3.12,3.12,3.12,3.12,3.12,3.12,3.12,3.12,3.12,3.12,3.12,3.0617,3.0456,3.0771,2.9848,2.9563,2.987,2.9271,2.8989,3.3807,3.3807,3.3807,3.3807,3.3807,3.3807,3.3807,3.3807,3.3807,3.3807,3.3807,3.3807,3.3807,3.3807,3.3807,3.3807,3.3807,3.3807,3.3807,3.3807,3.3807,3.3807,3.3807,3.3807,3.3807,3.5128,3.6083,3.6285,3.7624,3.8505,3.8681,3.8308,3.8022,3.7893,3.7146,3.6843,3.7001,3.7143,3.7266,3.7369,3.7851,3.7726,3.7021,3.5308,3.4309,3.3827,3.2087,3.1517,3.1798,3.1706,3.2196,3.2991,3.2526,3.2887,3.3613,3.331,3.2975,3.2616,3.2256,3.1779,3.1341,3.1341,3.1281,3.12,3.12,3.12,3.12,3.12,3.12,3.12,3.12,3.12,3.12,3.12,3.12,3.12,3.12,3.12,3.12,3.12,3.12,3.12,3.12,3.12,3.12,3.12,3.12,3.12,3.12,3.12,3.12,3.12,3.12,3.12,3.12,3.12,3.12,3.12,3.12,3.12,3.12,3.12,3.12,3.12,3.0757,3.073,3.12,3.0272,3.0059,3.0497,2.9881,2.9607,3.3807,3.3807,3.3807,3.3807,3.3807,3.3807,3.3807,3.3807,3.3807,3.3807,3.3807,3.3807,3.3807,3.3807,3.3807,3.3807,3.3807,3.3807,3.3807,3.3807,3.3807,3.3807,3.3807,3.3807,3.3807,3.4582,3.5426,3.6229,3.7099,3.7907,3.867,3.8658,3.8407,3.7929,3.7833,3.736,3.6467,3.696,3.7415,3.785,3.8382,3.7976,3.6709,3.5878,3.4629,3.3046,3.2134,3.1771,3.1771,3.1408,3.175,3.2501,3.203,3.2425,3.3236,3.3214,3.3184,3.3136,3.3105,3.2508,3.1752,3.1752,3.1507,3.12,3.12,3.12,3.12,3.12,3.12,3.12,3.12,3.12,3.12,3.12,3.12,3.12,3.12,3.12,3.12,3.12,3.12,3.12,3.12,3.12,3.12,3.12,3.12,3.12,3.12,3.12,3.12,3.12,3.12,3.12,3.12,3.12,3.12,3.12,3.12,3.12,3.12,3.12,3.12,3.12,3.1161,3.1161,3.12,3.1121,3.1085,3.1131,3.0518,3.024,3.3807,3.3807,3.3807,3.3807,3.3807,3.3807,3.3807,3.3807,3.3807,3.3807,3.3807,3.3807,3.3807,3.3807,3.3807,3.3807,3.3807,3.3807,3.3807,3.3807,3.3807,3.3807,3.3807,3.3807,3.3807,3.4527,3.5151,3.547,3.6285,3.7099,3.7907,3.7944,3.8088,3.8399,3.8074,3.772,3.7333,3.7524,3.772,3.7893,3.8099,3.7857,3.7169,3.6087,3.4821,3.3371,3.2281,3.166,3.1411,3.1261,3.1536,3.2083,3.2179,3.264,3.3199,3.3199,3.3199,3.3199,3.3199,3.259,3.1807,3.1807,3.1706,3.1565,3.1565,3.1787,3.1941,3.1658,3.177,3.1887,3.1339,3.12,3.12,3.12,3.12,3.12,3.12,3.12,3.12,3.12,3.12,3.12,3.12,3.12,3.12,3.12,3.12,3.12,3.12,3.12,3.12,3.12,3.12,3.12,3.12,3.12,3.12,3.12,3.12,3.12,3.12,3.12,3.12,3.12,3.12,3.12,3.12,3.12,3.12,3.119,3.0975,3.0858,3.3807,3.3807,3.3807,3.3807,3.3807,3.3807,3.3807,3.3807,3.3807,3.3807,3.3807,3.3807,3.3807,3.3807,3.3807,3.3807,3.3807,3.3807,3.3807,3.3807,3.3807,3.3807,3.3807,3.3807,3.3807,3.4296,3.4729,3.4979,3.5562,3.6248,3.7088,3.7125,3.7375,3.7918,3.7585,3.7305,3.7145,3.7137,3.706,3.6922,3.706,3.713,3.7074,3.5935,3.4736,3.3485,3.2621,3.1915,3.1399,3.1399,3.1547,3.1852,3.2324,3.2795,3.3199,3.3199,3.328,3.3383,3.3383,3.2895,3.2247,3.2247,3.2144,3.2013,3.2013,3.2256,3.2434,3.21,3.2239,3.2358,3.1777,3.1496,3.1399,3.1399,3.13,3.12,3.12,3.12,3.12,3.12,3.12,3.12,3.12,3.12,3.12,3.12,3.12,3.12,3.12,3.12,3.12,3.12,3.12,3.12,3.12,3.12,3.12,3.12,3.12,3.12,3.12,3.12,3.12,3.12,3.12,3.12,3.12,3.12,3.12,3.12,3.12,3.12,3.3807,3.3807,3.3807,3.3807,3.3807,3.3807,3.3807,3.3807,3.3807,3.3807,3.3807,3.3807,3.3807,3.3807,3.3807,3.3807,3.3807,3.3807,3.3807,3.3807,3.3807,3.3807,3.3807,3.3807,3.3807,3.3807,3.413,3.4924,3.4997,3.5371,3.6229,3.6285,3.6285,3.631,3.631,3.6031,3.5515,3.5515,3.5274,3.4801,3.5273,3.5771,3.6248,3.5389,3.4331,3.3199,3.3199,3.2663,3.1807,3.1807,3.1789,3.1844,3.2324,3.2795,3.3199,3.3199,3.344,3.3807,3.3807,3.3536,3.3199,3.3199,3.2897,3.2509,3.2509,3.2509,3.2517,3.2509,3.2509,3.2517,3.2509,3.2153,3.1808,3.1816,3.1498,3.121,3.121,3.121,3.121,3.121,3.121,3.121,3.12,3.12,3.12,3.12,3.12,3.12,3.12,3.12,3.12,3.12,3.12,3.12,3.12,3.12,3.12,3.12,3.12,3.12,3.12,3.12,3.12,3.12,3.12,3.12,3.12,3.12,3.12,3.12,3.12,3.12,3.3807,3.3807,3.3807,3.3807,3.3807,3.3807,3.3807,3.3807,3.3807,3.3807,3.3807,3.3807,3.3807,3.3807,3.3807,3.3807,3.3807,3.3807,3.3807,3.3807,3.3807,3.3807,3.3807,3.3807,3.3807,3.3807,3.3899,3.413,3.4167,3.4516,3.5334,3.5389,3.5672,3.6273,3.631,3.6031,3.5515,3.5866,3.5805,3.5281,3.5198,3.5082,3.4962,3.4994,3.4331,3.3199,3.3199,3.2663,3.1807,3.1807,3.1986,3.2316,3.2451,3.2795,3.3199,3.3199,3.344,3.3807,3.3807,3.3536,3.3199,3.3199,3.3116,3.2999,3.2999,3.3188,3.3361,3.3075,3.3196,3.3343,3.3068,3.2887,3.2695,3.2366,3.2196,3.2118,3.2118,3.2118,3.2118,3.2118,3.2118,3.2012,3.1678,3.163,3.1536,3.1232,3.12,3.12,3.12,3.12,3.12,3.12,3.12,3.12,3.12,3.12,3.12,3.12,3.12,3.12,3.12,3.12,3.12,3.12,3.12,3.12,3.12,3.12,3.12,3.12,3.12,3.12,3.3807,3.3807,3.3807,3.3807,3.3807,3.3807,3.3807,3.3807,3.3807,3.3807,3.3807,3.3807,3.3807,3.3807,3.3807,3.3807,3.3807,3.3807,3.3807,3.3807,3.3807,3.3807,3.3807,3.3807,3.3807,3.3807,3.3807,3.3807,3.3807,3.4002,3.4491,3.4509,3.4754,3.5293,3.5319,3.5143,3.4824,3.5155,3.5064,3.4583,3.4546,3.4308,3.3936,3.4348,3.4123,3.3419,3.3266,3.288,3.2358,3.2358,3.2524,3.2785,3.295,3.3188,3.3451,3.3451,3.3585,3.3807,3.3807,3.3634,3.3451,3.3451,3.3451,3.3451,3.3451,3.3599,3.3741,3.3508,3.3606,3.3741,3.3501,3.3451,3.3332,3.288,3.2632,3.2501,3.2501,3.2501,3.2501,3.2501,3.2501,3.2417,3.2135,3.2074,3.1933,3.1498,3.131,3.1269,3.142,3.13,3.12,3.12,3.12,3.12,3.12,3.12,3.12,3.12,3.12,3.12,3.12,3.12,3.12,3.12,3.12,3.12,3.12,3.12,3.12,3.12,3.12,3.12,3.3807,3.3807,3.3807,3.3807,3.3807,3.3807,3.3807,3.3807,3.3807,3.3807,3.3807,3.3807,3.3807,3.3807,3.3807,3.3807,3.3807,3.3807,3.3807,3.3807,3.3807,3.3807,3.3807,3.3807,3.3807,3.3807,3.3807,3.3807,3.3807,3.3807,3.3807,3.3807,3.3807,3.3807,3.3807,3.3807,3.3807,3.3807,3.3592,3.3206,3.3599,3.3585,3.3214,3.3625,3.3807,3.3787,3.3368,3.3221,3.3251,3.3221,3.3221,3.3288,3.3666,3.3807,3.3807,3.3807,3.3807,3.3807,3.3807,3.3807,3.3807,3.3807,3.3807,3.3807,3.3807,3.3807,3.3807,3.3807,3.3807,3.3807,3.3807,3.3807,3.3707,3.3339,3.2937,3.2624,3.2624,3.2624,3.2624,3.2624,3.2624,3.2608,3.2567,3.2567,3.2391,3.1924,3.1554,3.1447,3.1752,3.1479,3.1249,3.12,3.12,3.12,3.12,3.12,3.12,3.12,3.12,3.12,3.12,3.12,3.12,3.12,3.12,3.12,3.12,3.12,3.12,3.12,3.12,3.12,3.3807,3.3807,3.3807,3.3807,3.3807,3.3807,3.3807,3.3807,3.3807,3.3807,3.3807,3.3807,3.3807,3.3807,3.3807,3.3807,3.3807,3.3807,3.3807,3.3807,3.3807,3.3807,3.3807,3.3807,3.3807,3.3807,3.3807,3.3807,3.3807,3.3807,3.3807,3.3807,3.3807,3.3807,3.3807,3.3807,3.3807,3.3807,3.3592,0.0,3.3599,3.3585,3.3214,3.3625,3.3807,3.3787,3.3368,3.3375,3.3652,3.3324,3.3394,3.3687,3.378,3.3807,3.3807,3.3807,3.3807,3.3807,3.3807,3.3807,3.3807,3.3807,3.3807,3.3807,3.3807,3.3807,3.3807,3.3807,3.3807,3.3807,3.3807,3.3807,3.3787,3.3694,3.3592,3.3511,3.3511,3.3511,3.3511,3.3511,3.3511,3.3419,3.3098,3.3045,3.288,3.2426,3.2273,3.2118,3.1843,3.1716,3.1547,3.1239,3.12,3.12,3.12,3.12,3.12,3.12,3.12,3.12,3.12,3.12,3.12,3.12,3.12,3.12,3.12,3.12,3.12,3.12,3.12,3.12,3.3807,3.3807,3.3807,3.3807,3.3807,3.3807,3.3807,3.3807,3.3807,3.3807,3.3807,3.3807,3.3807,3.3807,3.3807,3.3807,3.3807,3.3807,3.3807,3.3807,3.3807,3.3807,3.3807,3.3807,3.3807,3.3807,3.3807,3.3807,3.3807,3.3807,3.3807,3.3807,3.3807,3.3807,3.3807,3.3807,3.3807,3.3807,3.3694,3.3494,3.37,3.3694,3.3501,3.3707,3.3807,3.3793,3.3571,3.3599,3.3775,3.3571,3.3606,3.3807,3.3807,3.3807,3.3807,3.3807,3.3807,3.3807,3.3807,3.3807,3.3807,3.3807,3.3807,3.3807,3.3807,3.3807,3.3807,3.3807,3.3807,3.3807,3.3807,3.3807,3.3807,3.3807,3.3807,3.3807,3.3807,3.3807,3.3807,3.3807,3.3807,3.3728,3.3522,3.3324,3.3191,3.3136,3.2777,3.2501,3.2475,3.2273,3.1968,3.1536,3.1488,3.1411,3.122,3.12,3.12,3.12,3.12,3.12,3.12,3.12,3.12,3.12,3.12,3.12,3.12,3.12,3.12,3.12,3.12,3.12,3.3807,3.3807,3.3807,3.3807,3.3807,3.3807,3.3807,3.3807,3.3807,3.3807,3.3807,3.3807,3.3807,3.3807,3.3807,3.3807,3.3807,3.3807,3.3807,3.3807,3.3807,3.3807,3.3807,3.3807,3.3807,3.3807,3.3807,3.3807,3.3807,3.3807,3.3807,3.3807,3.3807,3.3807,3.3807,3.3807,3.3807,3.3807,3.378,3.37,3.37,3.3728,3.3807,3.3807,3.3807,3.3807,3.3807,3.3807,3.3807,3.3807,3.3807,3.3807,3.3807,3.3807,3.3807,3.3807,3.3807,3.3807,3.3807,3.3807,3.3807,3.3807,3.3807,3.3807,3.3807,3.3807,3.3807,3.3807,3.3807,3.3807,3.3807,3.3807,3.3807,3.3807,3.3807,3.3807,3.3807,3.3807,3.3807,3.3807,3.3807,3.3807,3.3807,3.3473,3.3332,3.3734,3.3136,3.2753,3.3154,3.2785,3.2324,3.1861,3.1734,3.1556,3.123,3.12,3.12,3.12,3.12,3.12,3.12,3.12,3.12,3.12,3.12,3.12,3.12,3.12,3.12,3.12,3.12,3.12,3.3807,3.3807,3.3807,3.3807,3.3807,3.3807,3.3807,3.3807,3.3807,3.3807,3.3807,3.3807,3.3807,3.3807,3.3807,3.3807,3.3807,3.3807,3.3807,3.3807,3.3807,3.3807,3.3807,3.3807,3.3807,3.3807,3.3807,3.3807,3.3807,3.3807,3.3807,3.3807,3.3807,3.3807,3.3807,3.3807,3.3807,3.3807,3.3632,3.328,3.328,3.3465,3.3807,3.3807,3.3807,3.3807,3.3807,3.3807,3.3807,3.3807,3.3807,3.3807,3.3807,3.3807,3.3807,3.3807,3.3807,3.3807,3.3807,3.3807,3.3807,3.3807,3.3807,3.3807,3.3807,3.3807,3.3807,3.3807,3.3807,3.3807,3.3807,3.3807,3.3807,3.3807,3.3807,3.3807,3.3807,3.3807,3.3807,3.3807,3.3807,3.3807,3.3807,3.3473,3.3332,3.3734,3.3397,3.3139,3.3191,3.2785,3.2324,3.1861,3.1488,3.1252,3.12,3.12,3.12,3.12,3.12,3.12,3.12,3.12,3.12,3.12,3.12,3.12,3.12,3.12,3.12,3.12,3.12,3.12,3.3807,3.3807,3.3807,3.3807,3.3807,3.3807,3.3807,3.3807,3.3807,3.3807,3.3807,3.3807,3.3807,3.3807,3.3807,3.3807,3.3807,3.3807,3.3807,3.3807,3.3807,3.3807,3.3807,3.3807,3.3807,3.3807,3.3807,3.3807,3.3807,3.3807,3.3807,3.3807,3.3807,3.3807,3.3807,3.3807,3.3807,3.3807,3.3707,3.3536,3.3536,3.3638,3.3807,3.3807,3.3807,3.3807,3.3807,3.3807,3.3807,3.3807,3.3807,3.3807,3.3807,3.3807,3.3807,3.3807,3.3807,3.3807,3.3807,3.3807,3.3807,3.3807,3.3807,3.3807,3.3807,3.3807,3.3807,3.3807,3.3807,3.3807,3.3807,3.3807,3.3807,3.3807,3.3807,3.3807,3.3807,3.3807,3.3807,3.3807,3.3807,3.3807,3.3807,3.3641,3.3611,3.3768,3.3465,3.3199,3.3199,3.2785,3.2324,3.1861,3.1632,3.1449,3.122,3.12,3.12,3.12,3.1411,3.1439,3.121,3.1666,3.1805,3.1545,3.1303,3.12,3.12,3.143,3.142,3.12,3.143,3.1411,3.3807,3.3807,3.3807,3.3807,3.3807,3.3807,3.3807,3.3807,3.3807,3.3807,3.3807,3.3807,3.3807,3.3807,3.3807,3.3807,3.3807,3.3807,3.3807,3.3807,3.3807,3.3807,3.3807,3.3807,3.3807,3.3807,3.3807,3.3807,3.3807,3.3807,3.3807,3.3807,3.3807,3.3807,3.3807,3.3807,3.3807,3.3807,3.3807,3.3807,3.3807,3.3807,3.3807,3.3807,3.3807,3.3807,3.3807,3.3807,3.3807,3.3807,3.3807,3.3807,3.3807,3.3807,3.3807,3.3807,3.3807,3.3807,3.3807,3.3807,3.3807,3.3807,3.3807,3.3807,3.3807,3.3807,3.3807,3.3807,3.3807,3.3807,3.3807,3.3807,3.3807,3.3807,3.3807,3.3807,3.3807,3.3807,3.3807,3.3807,3.3807,3.3807,3.3807,3.3714,3.3687,3.3775,3.3465,3.3236,3.3339,3.2968,3.2533,3.2196,3.1933,3.1733,3.1553,3.1428,3.1408,3.1524,3.1815,3.1851,3.1543,3.2144,3.2341,3.1977,3.1677,3.1524,3.1524,3.1706,3.1641,3.1361,3.1564,3.1488,3.3807,3.3807,3.3807,3.3807,3.3807,3.3807,3.3807,3.3807,3.3807,3.3807,3.3807,3.3807,3.3807,3.3807,3.3807,3.3807,3.3807,3.3807,3.3807,3.3807,3.3807,3.3807,3.3807,3.3807,3.3807,3.3807,3.3807,3.3807,3.3807,3.3807,3.3807,3.3807,3.3807,3.3807,3.3807,3.3807,3.3807,3.3807,3.3807,3.3807,3.3807,3.3807,3.3807,3.3807,3.3807,3.3807,3.3807,3.3807,3.3807,3.3807,3.3807,3.3807,3.3807,3.3807,3.3807,3.3807,3.3807,3.3807,3.3807,3.3807,3.3807,3.3807,3.3807,3.3807,3.3807,3.3807,3.3807,3.3807,3.3807,3.3807,3.3807,3.3807,3.3807,3.3807,3.3807,3.3807,3.3807,3.3807,3.3807,3.3807,3.3807,3.3807,3.3807,3.3487,3.3354,3.3741,3.3465,3.3332,3.3721,3.3404,3.3143,3.3139,3.2332,3.196,3.2401,3.2013,3.1968,3.2401,3.2451,3.2459,3.2434,3.2476,3.2492,3.2467,3.2442,3.2426,3.2426,3.2013,3.1789,3.1761,3.1408,3.122,3.3807,3.3807,3.3807,3.3807,3.3807,3.3807,3.3807,3.3807,3.3807,3.3807,3.3807,3.3807,3.3807,3.3807,3.3807,3.3807,3.3807,3.3807,3.3807,3.3807,3.3807,3.3807,3.3807,3.3807,3.3807,3.3807,3.3807,3.3807,3.3807,3.3807,3.3807,3.3807,3.3807,3.3807,3.3807,3.3807,3.3807,3.3807,3.3807,3.3807,3.3807,3.3807,3.3807,3.3807,3.3807,3.3807,3.3807,3.3807,3.3807,3.3807,3.3807,3.3807,3.3807,3.3807,3.3807,3.3807,3.3807,3.3807,3.3807,3.3807,3.3807,3.3807,3.3807,3.3807,3.3807,3.3807,3.3807,3.3807,3.3807,3.3807,3.3807,3.3807,3.3807,3.3807,3.3807,3.3807,3.3807,3.3807,3.3807,3.3807,3.3807,3.3807,3.3807,3.3687,3.362,3.3787,3.3465,3.3251,3.3408,3.3029,3.2745,3.2745,3.2459,3.2324,3.2484,3.235,3.2324,3.2492,3.2777,3.2809,3.2517,3.3034,3.3211,3.296,3.3203,3.3057,3.2501,3.2333,3.2239,3.223,3.1797,3.1584,3.3807,3.3807,3.3807,3.3807,3.3807,3.3807,3.3807,3.3807,3.3807,3.3807,3.3807,3.3807,3.3807,3.3807,3.3807,3.3807,3.3807,3.3807,3.3807,3.3807,3.3807,3.3807,3.3807,3.3807,3.3807,3.3807,3.3807,3.3807,3.3807,0.0,3.3807,3.3807,3.3807,3.3807,3.3807,3.3807,3.3807,3.3807,3.3807,3.3807,3.3807,3.3807,3.3807,3.3807,3.3807,3.3807,3.3807,3.3807,3.3807,3.3807,3.3807,3.3807,3.3807,3.3807,3.3807,3.3807,3.3807,3.3807,3.3807,3.3807,3.3807,3.3807,3.3807,3.3807,3.3807,3.3807,3.3807,3.3807,3.3807,3.3807,3.3807,3.3807,3.3807,3.3807,3.3807,3.3807,3.3807,3.3807,3.3807,3.3807,3.3807,3.3807,3.3807,3.3807,3.3807,3.3807,3.3571,3.3397,3.3397,3.3136,3.2934,3.2934,3.2817,3.2785,3.2926,3.2809,3.2793,3.2926,3.3225,3.3255,3.295,3.349,3.3662,3.3415,3.3666,3.3529,3.2934,3.2801,3.2729,3.2721,3.2247,3.1942,0.0,0.0,0.0,3.3807,3.3807,3.3807,3.3807,3.3807,3.3807,3.3807,3.3807,3.3807,3.3807,3.3807,3.3807,3.3807,3.3807,3.3807,3.3807,3.3807,3.3807,3.3807,3.3807,3.3807,3.3807,3.3807,3.3807,3.3807,3.3807,3.3807,3.3807,3.3807,3.3807,3.3807,3.3807,3.3807,3.3807,3.3807,3.3807,3.3807,3.3807,3.3807,3.3807,3.3807,3.3807,3.3807,3.3807,3.3807,3.3807,3.3807,3.3807,3.3807,3.3807,3.3807,3.3807,3.3807,3.3807,3.3807,3.3807,3.3807,3.3807,3.3807,3.3807,3.3807,3.3807,3.3807,3.3807,3.3807,3.3807,3.3807,3.3807,3.3807,3.3807,3.3807,3.3807,3.3807,3.3807,3.3807,3.3807,3.3807,3.3807,3.3807,3.3807,3.3807,3.3807,3.3807,3.3807,3.3807,3.3807,3.3807,3.3807,3.3807,3.3458,3.3386,3.378,3.3433,3.3375,3.3787,3.3807,3.3807,3.3807,3.3807,3.3807,3.3807,3.3807,3.3807,3.3807,3.3408,3.3206,3.3214,3.2737,3.2264,3.3807,0.0,0.0,0.0,0.0,0.0,3.3807,3.3807,3.3807,3.3807,3.3807,3.3807,3.3807,3.3807,3.3807,3.3807,3.3807,3.3807,3.3807,3.3807,3.3807,3.3807,3.3807,3.3807,3.3807,3.3807,3.3807,0.0,3.3807,3.3807,3.3807,3.3807,3.3807,3.3807,3.3807,3.3807,3.3807,3.3807,3.3807,3.3807,3.3807,3.3807,3.3807,3.3807,3.3807,3.3807,3.3807,3.3807,3.3807,3.3807,3.3807,3.3807,3.3807,3.3807,3.3807,3.3807,3.3807,3.3807,3.3807,3.3807,3.3807,3.3807,3.3807,3.3807,3.3807,3.3807,3.3807,3.3807,3.3807,3.3807,3.3807,3.3807,3.3807,3.3807,3.3807,3.3807,3.3807,3.3807,3.3807,3.3807,3.3807,3.3807,3.3807,3.3807,3.3807,3.3807,3.3807,3.3807,3.3807,3.3807,3.3807,3.3807,3.37,3.3687,3.3782,3.37,3.3687,3.3782,3.3807,3.3807,3.3807,3.3807,3.3807,3.3807,3.3807,3.3807,3.3807,3.3408,3.3346,3.3613,3.3196,3.2753,3.3807,3.3807,3.3807,3.3807,0.0,0.0,3.3807,3.3807,3.3807,3.3807,3.3807,3.3807,3.3807,3.3807,3.3807,3.3807,3.3807,3.3807,3.3807,3.3807,3.3807,3.3807,3.3807,3.3807,3.3807,3.3807,3.3807,3.3807,3.3807,3.3807,3.3807,3.3807,3.3807,3.3807,3.3807,3.3807,3.3807,3.3807,3.3807,3.3807,3.3807,3.3807,3.3807,3.3807,3.3807,3.3807,3.3807,3.3807,3.3807,3.3807,3.3807,3.3807,3.3807,3.3807,3.3807,3.3807,3.3807,3.3807,3.3807,3.3807,3.3807,3.3807,3.3888,3.3942,3.3835,3.387,3.3935,3.3829,3.3807,3.3807,3.3807,3.3807,3.3807,3.3807,3.3807,3.3807,3.3807,3.3807,3.3807,3.3807,3.3807,3.3807,3.3807,3.3807,3.3807,3.3807,3.3807,3.3807,3.3807,3.3807,3.3807,3.3807,3.3807,3.3807,3.3807,3.3807,3.3807,3.3807,3.3807,3.3807,3.3807,3.3807,3.3807,3.3807,3.3807,3.3807,3.3807,3.3564,3.3571,3.3782,3.3557,3.3203,3.3807,3.3807,3.3807,3.3807,3.3807,0.0,3.3807,3.3807,3.3807,3.3807,3.3807,3.3807,3.3807,3.3807,3.3807,3.3807,3.3807,3.3807,3.3807,3.3807,3.3807,3.3807,3.3807,3.3807,3.3807,3.3807,3.3807,3.3807,3.3807,3.3807,3.3807,3.3807,3.3807,3.3807,3.3807,3.3807,3.3807,3.3807,3.3807,3.3807,3.3807,3.3807,3.3807,3.3807,3.3807,3.3807,3.3807,3.3807,3.3807,3.3807,3.3807,3.3807,3.3807,3.3807,3.3807,3.3807,3.3807,3.3807,3.3807,3.3807,3.3807,3.3807,3.3986,3.4159,3.3922,3.4006,3.4153,3.3915,3.3875,3.3901,3.3862,3.3848,3.3842,3.382,3.3807,3.3807,3.3807,3.3807,3.3807,3.3807,3.3807,3.3807,3.3807,3.3807,3.3807,3.3807,3.3807,3.3807,3.3807,3.3807,3.3807,3.3807,3.3807,3.3807,3.3807,3.3807,3.3807,3.3807,3.3807,3.3807,3.3807,3.3807,3.3807,3.3807,3.3807,3.3807,3.3807,3.3807,3.3807,3.3807,3.3807,3.3599,3.3807,3.3807,3.3807,3.3807,3.3807,0.0,3.3807,3.3807,3.3807,3.3807,3.3807,3.3807,3.3807,3.3807,3.3807,3.3807,3.3807,3.3807,3.3807,3.3807,3.3807,3.3807,3.3807,3.3807,3.3807,3.3807,3.3807,3.3807,3.3807,3.3807,3.3807,3.3807,3.3807,3.3807,3.3807,3.3807,3.3807,3.3807,3.3807,3.3807,3.3807,3.3807,3.3807,3.3807,3.3807,3.3807,3.3807,3.3807,3.3807,3.3807,3.3807,3.3807,3.3807,3.3807,3.3807,3.3807,3.3807,3.3807,3.3807,3.3807,3.3807,3.3807,3.3986,3.4182,3.4141,3.4165,3.4182,3.4141,3.4324,3.4459,3.4189,3.4123,3.4074,3.3855,3.3807,3.3807,3.3807,3.3807,3.3807,3.3807,3.3807,3.3807,3.3807,3.3807,3.3807,3.3807,3.3807,3.3807,3.3807,3.3807,3.3807,3.3807,3.3807,3.3807,3.3807,3.3807,3.3807,3.3807,3.3807,3.3807,3.3807,3.3807,3.3807,3.3807,3.3807,3.3807,3.3807,3.3807,3.3807,3.3807,3.3807,3.3755,3.3807,3.3807,3.3807,3.3807,3.3807,0.0,0.0,3.3807,3.3807,3.3807,3.3807,3.3807,3.3807,3.3807,3.3807,3.3807,3.3807,3.3807,3.3807,3.3807,3.3807,3.3807,3.3807,3.3807,3.3807,3.3807,3.3807,3.3807,3.3807,3.3807,3.3807,3.3807,3.3807,3.3807,3.3807,3.3807,3.3807,3.3807,3.3807,3.3807,3.3807,3.3807,3.3807,3.3807,3.3807,3.3807,3.3807,3.3807,3.3807,3.3807,3.3807,3.3807,3.3807,3.3807,3.3807,3.3807,3.3807,3.3807,3.3807,3.3807,3.3807,3.3807,3.408,3.4412,3.4241,3.4323,3.4445,3.4445,3.4566,3.4663,3.4478,3.4445,3.4368,3.4068,3.4012,3.3961,3.3829,3.3807,3.3807,3.3807,3.3807,3.3807,3.3807,3.3807,3.3807,3.3807,3.3807,3.3807,3.3807,3.3807,3.3807,3.3807,3.3807,3.3807,3.3807,3.3807,3.3807,3.3807,3.3807,3.3807,3.3807,3.3807,3.3807,3.3807,3.3807,3.3807,3.3807,3.3807,3.3807,3.3807,3.3807,3.3807,3.3807,3.3807,3.3807,3.3807,3.3807,3.3807,0.0,0.0,0.0,3.3807,3.3807,3.3807,3.3807,3.3807,3.3807,3.3807,3.3807,3.3807,3.3807,3.3807,3.3807,3.3807,3.3807,3.3807,3.3807,3.3807,3.3807,3.3807,3.3807,3.3807,3.3807,3.3807,3.3807,3.3807,3.3807,3.3807,3.3807,3.3807,3.3807,3.3807,3.3807,3.3807,3.3807,3.3807,3.3807,3.3807,3.3807,3.3807,3.3807,3.3807,3.3807,3.3807,3.3807,3.3807,3.3807,3.3807,3.3807,3.3807,3.3807,3.3835,3.387,3.387,3.4284,3.4729,3.4462,3.4595,3.4832,3.4784,3.4803,3.4832,3.4784,3.4788,3.4704,3.4379,3.4259,3.4147,3.391,3.3842,3.3807,3.3807,3.3807,3.3807,3.3807,3.3807,3.3807,3.3807,3.3807,3.3807,3.3807,3.3807,3.3807,3.3807,3.3807,3.3807,3.3807,3.3807,3.3807,3.3807,3.3807,3.3807,3.3807,3.3807,3.3807,3.3807,3.3807,3.3807,3.3807,3.3807,3.3807,3.3807,3.3807,3.3807,3.3807,3.3807,3.3807,3.3807,3.3807,3.3807,3.3807,0.0,3.3807,3.3807,0.0,3.3807,3.3807,0.0,0.0,3.3807,3.3807,3.3807,3.3807,3.3807,3.3807,3.3807,3.3807,3.3807,3.3807,3.3807,3.3807,3.3807,3.3807,3.3807,3.3807,3.3807,3.3807,3.3807,3.3807,3.3807,3.3807,3.3807,3.3807,3.3807,3.3807,3.3807,3.3807,3.3807,3.3807,3.3807,3.3807,3.3807,3.3807,3.3807,3.3807,3.3807,3.3807,3.3807,3.3807,3.3807,3.3807,3.3807,3.3807,3.3955,3.414,3.414,3.4569,3.5057,3.5012,3.5198,3.5361,3.5117,3.5223,3.5358,3.5113,3.5043,3.4985,3.4709,3.4412,3.4188,3.4165,3.3967,3.3807,3.3807,3.3807,3.3807,3.3807,3.3807,3.3807,3.3807,3.3807,3.3807,3.3807,3.3807,3.3807,3.3807,3.3807,3.3807,3.3807,3.3807,3.3807,3.3807,3.3807,3.3807,3.3807,3.3807,3.3807,3.3807,3.3807,3.3807,3.3807,3.3807,3.3807,3.3807,3.3807,3.3807,3.3807,3.3807,3.3807,3.3807,3.3807,3.3807,3.3807,3.3807,3.3807,3.3807,0.0,0.0,0.0,0.0,0.0,0.0,3.3807,3.3807,3.3807,3.3807,3.3807,3.3807,0.0,0.0,3.3807,3.3807,3.3807,3.3807,3.3807,3.3807,3.3807,3.3807,3.3807,3.3807,3.3807,3.3807,3.3807,3.3807,3.3807,3.3807,3.3807,3.3807,3.3807,3.3807,3.3807,3.3807,3.3807,3.3807,3.3807,3.3807,3.3807,3.3807,3.3807,3.3807,3.3815,3.398,3.4031,3.4056,3.4249,3.4398,3.4524,3.4666,3.4879,3.5126,3.5289,3.5417,3.5483,3.5365,3.5402,3.5463,3.5365,3.5323,3.5254,3.4994,3.4818,3.4676,3.4516,3.4403,3.4313,3.4313,3.4165,3.4031,3.4031,3.3909,3.3807,3.3807,3.3807,3.3807,3.3807,3.3807,3.3807,3.3807,3.3807,3.3807,3.3807,3.3807,3.3807,3.3807,3.3807,3.3807,3.3807,3.3807,3.3807,3.3807,3.3807,3.3807,3.3807,3.3807,3.3807,3.3807,3.3807,3.3807,3.3807,3.3807,3.3807,3.3807,3.3807,3.3807,3.3807,3.3807,3.3807,3.3807,3.3807,0.0,0.0,0.0,3.3807,3.3807,0.0,3.3807,3.3807,3.3807,3.3807,3.3807,3.3807,0.0,0.0,3.3807,3.3807,3.3807,3.3807,3.3807,3.3807,3.3807,3.3807,3.3807,3.3807,3.3807,3.3807,3.3807,3.3807,3.3807,3.3807,3.3807,3.3807,3.3807,3.3807,3.3807,3.3807,3.3807,3.3807,3.3807,3.3807,3.3807,3.3807,3.3848,3.3923,3.4129,3.4265,3.4373,3.4622,3.4739,3.4841,3.5117,3.5211,3.5258,3.5439,3.55,3.55,3.55,3.55,3.55,3.55,3.55,3.5446,3.5266,3.5147,3.5057,3.4841,3.4744,3.4694,3.4694,3.4508,3.434,3.434,3.4043,3.3807,3.3807,3.3807,3.3807,3.3807,3.3807,3.3807,3.3807,3.3807,3.3807,3.3807,3.3807,3.3807,3.3807,3.3807,3.3807,3.3807,3.3807,3.3807,3.3807,3.3807,3.3807,3.3807,3.3807,3.3807,3.3807,3.3807,3.3807,0.0,0.0,0.0,3.3807,0.0,0.0,0.0,0.0,3.3807,0.0,0.0,3.3807,3.3807,3.3807,3.3807,3.3807,3.3807,0.0,0.0,3.3807,3.3807,3.3807,3.3807,3.3807,0.0,3.3807,3.3807,0.0,3.3807,3.3807,3.3807,3.3807,3.3807,3.3807,3.3807,3.3807,3.3807,3.3807,3.3807,3.3807,3.3807,3.3807,3.3807,3.3807,3.3807,3.3807,3.3807,3.3807,3.3807,3.3807,3.3807,3.3807,3.3807,3.3955,3.4182,3.4194,3.4407,3.4684,3.4689,3.4879,3.5126,3.5391,3.549,3.5493,3.5497,3.55,3.55,3.55,3.55,3.55,3.55,3.55,3.55,3.5493,3.5289,3.51,3.5092,3.487,3.4694,3.4694,3.4684,3.4679,3.4679,3.4196,3.3807,3.3807,3.3807,3.3807,3.3807,3.3807,3.3807,3.3807,3.3807,3.3807,3.3807,3.3807,3.3807,3.3807,3.3807,3.3807,3.3807,3.3807,3.3807,3.3807,3.3807,3.3807,3.3807,3.3807,3.3807,3.3807,3.3807,3.3807,0.0,0.0,3.3807,3.3807,0.0,0.0,0.0,0.0,0.0,0.0,0.0,3.3807,3.3807,3.3807,3.3807,3.3807,3.3807,3.3807,0.0,3.3807,3.3807,3.3807,3.3807,3.3807,3.3807,0.0,0.0,0.0,3.3807,0.0,3.3807,3.3807,3.3807,3.3807,3.3807,3.3807,3.3807,3.3807,3.3807,3.3807,3.3807,3.3807,3.3807,3.3807,3.3807,3.3807,3.3807,3.3807,3.3809,3.3999,3.4068,3.4093,3.4307,3.4561,3.4779,3.4603,3.4705,3.4985,3.5174,3.5289,3.5376,3.546,3.55,3.55,3.55,3.55,3.55,3.55,3.55,3.55,3.55,3.55,3.55,3.55,3.5432,3.5365,3.5365,3.5293,3.5227,3.5227,3.5088,3.4963,3.4963,3.4658,3.4318,3.4105,3.4068,3.4012,3.3822,3.3807,3.3807,3.3807,3.3807,3.3807,3.3807,3.3807,3.3807,3.3807,3.3807,3.3807,3.3807,3.3807,3.3807,3.3807,3.3807,3.3807,3.3807,3.3807,3.3807,3.3807,3.3807,3.3807,3.3935,3.4024,0.0,3.4117,3.4117,0.0,3.4117,0.0,3.4087,0.0,0.0,0.0,3.3815,3.3807,3.3807,3.3807,3.3807,3.3807,0.0,3.3807,3.3807,3.3807,3.3807,3.3807,3.3807,3.3807,3.3807,3.3807,3.3807,3.3807,0.0,3.3807,3.3807,3.3807,3.3807,3.3848,3.3935,3.3935,3.3999,3.4117,3.4117,3.4117,3.4111,3.3993,3.3935,3.3935,3.3935,3.3935,3.3961,3.4253,3.4379,3.4396,3.4622,3.4851,3.5083,3.4912,3.5008,3.5273,3.5439,3.55,3.55,3.55,3.55,3.55,3.55,3.55,3.55,3.55,3.55,3.55,3.55,3.55,3.55,3.55,3.55,3.55,3.55,3.55,3.55,3.55,3.5365,3.5235,3.5235,3.51,3.4851,3.444,3.4379,3.433,3.4142,3.4012,3.3935,3.3935,3.3862,3.3807,3.3807,3.3807,3.3807,3.3807,3.3807,3.3807,3.3807,3.3807,3.3807,3.3807,3.3807,3.3807,3.3807,3.3807,3.3807,3.3807,3.3807,3.3807]}]]